[[{"header":{"parameterUnit":"m.s-1","parameterCategory":1,"la1":30.6,"la2":29.2853,"lo1":-89.7004,"lo2":-87.6739,"dy":0.0162,"dx":0.0183,"nx":112,"ny":82,"refTime":"2024-06-27T18:00:00:Z","depth":0,"parameterNumber":2,"parameterNumberName":"U-component_of_WINDS"},"data":[0.0,0.0,0.0,0.0,0.0,0.0,0.0,0.0,0.0,0.0,0.0,0.0,0.0,0.0,0.0,0.0,0.0,0.0,0.0,0.0,0.0,0.0,0.0,0.0,0.0,0.0,0.0,0.0,0.0,0.0,0.0,0.0,0.0,0.0,0.0,0.0,0.0,0.0,0.0,0.0,0.0,0.0,0.0,0.0,0.0,0.0,0.0,0.0,0.0,0.0,0.0,0.0,0.0,0.0,0.0,0.0,0.0,0.0,0.0,0.0,0.0,0.0,0.0,0.0,0.0,0.0,0.0,0.0,0.0,0.0,0.0,0.0,0.0,0.0,0.0,0.0,0.0,0.0,0.0,0.0,0.0,0.0,0.0,0.0,0.0,0.0,0.0,0.0,0.0,0.0,0.0,-4.0011,-4.0096,-4.0096,-4.0096,-4.0096,-3.9462,-3.799,0.0,0.0,0.0,0.0,0.0,0.0,0.0,0.0,0.0,0.0,0.0,0.0,0.0,0.0,0.0,0.0,0.0,0.0,0.0,0.0,0.0,0.0,0.0,0.0,0.0,0.0,0.0,0.0,0.0,0.0,0.0,0.0,0.0,0.0,0.0,0.0,0.0,0.0,0.0,0.0,0.0,0.0,0.0,0.0,0.0,0.0,0.0,0.0,0.0,0.0,0.0,0.0,0.0,0.0,0.0,0.0,0.0,0.0,0.0,0.0,0.0,0.0,0.0,0.0,0.0,0.0,0.0,0.0,0.0,0.0,0.0,0.0,0.0,0.0,0.0,0.0,0.0,0.0,0.0,0.0,0.0,0.0,0.0,0.0,0.0,0.0,0.0,0.0,0.0,0.0,0.0,0.0,0.0,0.0,0.0,0.0,0.0,0.0,0.0,0.0,0.0,0.0,0.0,0.0,-3.8582,-3.996,-4.0096,-4.0096,-4.0096,-4.0096,-3.9462,-3.799,0.0,0.0,0.0,0.0,0.0,0.0,0.0,0.0,0.0,0.0,0.0,0.0,0.0,0.0,0.0,0.0,0.0,0.0,0.0,0.0,0.0,0.0,0.0,0.0,0.0,0.0,0.0,0.0,0.0,0.0,0.0,0.0,0.0,0.0,0.0,0.0,0.0,0.0,0.0,0.0,0.0,0.0,0.0,0.0,0.0,0.0,0.0,0.0,0.0,0.0,0.0,0.0,0.0,0.0,0.0,0.0,0.0,0.0,0.0,0.0,0.0,0.0,0.0,0.0,0.0,0.0,0.0,0.0,0.0,0.0,0.0,0.0,0.0,0.0,0.0,0.0,0.0,0.0,0.0,0.0,0.0,0.0,0.0,0.0,0.0,0.0,0.0,0.0,0.0,0.0,0.0,0.0,0.0,0.0,0.0,0.0,0.0,0.0,0.0,0.0,0.0,0.0,0.0,-3.8497,-3.8903,-3.9994,-4.0096,-4.0096,-4.0096,-4.0096,-3.9462,-3.799,-3.6445,0.0,0.0,0.0,0.0,0.0,0.0,0.0,0.0,0.0,0.0,0.0,0.0,0.0,0.0,0.0,0.0,0.0,0.0,0.0,0.0,0.0,0.0,0.0,0.0,0.0,0.0,0.0,0.0,0.0,0.0,0.0,0.0,0.0,0.0,0.0,0.0,0.0,0.0,0.0,0.0,0.0,0.0,0.0,0.0,0.0,0.0,0.0,0.0,0.0,0.0,0.0,0.0,0.0,0.0,0.0,0.0,0.0,0.0,0.0,0.0,0.0,0.0,0.0,0.0,0.0,0.0,0.0,0.0,0.0,0.0,0.0,0.0,0.0,0.0,0.0,0.0,0.0,0.0,0.0,0.0,0.0,0.0,0.0,0.0,0.0,0.0,0.0,0.0,0.0,0.0,0.0,0.0,0.0,0.0,0.0,0.0,0.0,0.0,0.0,0.0,0.0,0.0,-3.9039,-3.9486,-4.0045,-4.0096,-4.0096,-4.0096,-3.9943,-3.9276,-3.799,-3.6276,0.0,0.0,0.0,0.0,0.0,0.0,0.0,0.0,0.0,0.0,0.0,0.0,0.0,0.0,0.0,0.0,0.0,0.0,0.0,0.0,0.0,0.0,0.0,0.0,0.0,0.0,0.0,0.0,0.0,0.0,0.0,0.0,0.0,0.0,0.0,0.0,0.0,0.0,0.0,0.0,0.0,0.0,0.0,0.0,0.0,0.0,0.0,0.0,0.0,0.0,0.0,0.0,0.0,0.0,0.0,0.0,0.0,0.0,0.0,0.0,0.0,0.0,0.0,0.0,0.0,0.0,0.0,0.0,0.0,0.0,0.0,0.0,0.0,0.0,0.0,0.0,0.0,0.0,0.0,0.0,0.0,0.0,0.0,0.0,0.0,0.0,0.0,0.0,0.0,0.0,0.0,0.0,0.0,0.0,0.0,0.0,0.0,0.0,0.0,0.0,0.0,0.0,-3.9157,-4.0045,-4.0096,-4.0096,-4.0096,-4.0096,-3.9462,-3.8734,-3.7956,-3.5808,0.0,0.0,0.0,0.0,0.0,0.0,0.0,0.0,0.0,0.0,0.0,0.0,0.0,0.0,0.0,0.0,0.0,0.0,0.0,0.0,0.0,0.0,0.0,0.0,0.0,0.0,0.0,0.0,0.0,0.0,0.0,0.0,0.0,0.0,0.0,0.0,0.0,0.0,0.0,0.0,0.0,0.0,0.0,0.0,0.0,0.0,0.0,0.0,0.0,0.0,0.0,0.0,0.0,0.0,0.0,0.0,0.0,0.0,0.0,0.0,0.0,0.0,0.0,0.0,0.0,0.0,0.0,0.0,0.0,0.0,0.0,0.0,0.0,0.0,0.0,0.0,0.0,0.0,0.0,0.0,0.0,0.0,0.0,0.0,0.0,0.0,0.0,0.0,0.0,0.0,0.0,0.0,0.0,0.0,0.0,0.0,0.0,0.0,0.0,0.0,0.0,0.0,-3.8785,-3.9605,0.0,-4.0096,-4.0096,-4.0096,-3.9436,-3.8481,-3.728,0.0,0.0,0.0,0.0,0.0,0.0,0.0,0.0,0.0,0.0,0.0,0.0,0.0,0.0,0.0,0.0,0.0,0.0,0.0,0.0,0.0,0.0,0.0,0.0,0.0,0.0,0.0,0.0,0.0,0.0,0.0,0.0,0.0,0.0,0.0,0.0,0.0,0.0,0.0,0.0,0.0,0.0,0.0,0.0,0.0,0.0,0.0,0.0,0.0,0.0,0.0,0.0,0.0,0.0,0.0,0.0,0.0,0.0,0.0,0.0,0.0,0.0,0.0,0.0,0.0,0.0,0.0,0.0,0.0,0.0,0.0,0.0,0.0,0.0,0.0,0.0,0.0,0.0,0.0,0.0,0.0,0.0,0.0,0.0,0.0,0.0,0.0,0.0,0.0,0.0,0.0,0.0,0.0,0.0,0.0,0.0,0.0,0.0,0.0,0.0,0.0,0.0,-3.7821,-3.8751,-3.9529,0.0,-4.0096,-4.0011,-3.9774,-3.9056,-3.8007,-3.6502,0.0,0.0,0.0,0.0,0.0,0.0,0.0,0.0,0.0,0.0,0.0,0.0,0.0,0.0,0.0,0.0,0.0,0.0,0.0,0.0,0.0,0.0,0.0,0.0,0.0,0.0,0.0,0.0,0.0,0.0,0.0,0.0,0.0,0.0,0.0,0.0,0.0,0.0,0.0,0.0,0.0,0.0,0.0,0.0,0.0,0.0,0.0,0.0,0.0,0.0,0.0,0.0,0.0,0.0,0.0,0.0,0.0,0.0,0.0,0.0,0.0,0.0,0.0,0.0,0.0,0.0,0.0,0.0,0.0,0.0,0.0,0.0,0.0,0.0,0.0,0.0,0.0,0.0,0.0,0.0,0.0,0.0,0.0,0.0,0.0,0.0,0.0,0.0,0.0,0.0,0.0,0.0,0.0,0.0,0.0,0.0,0.0,0.0,0.0,0.0,0.0,0.0,-3.7821,-3.9174,-4.0096,-4.0096,-4.0079,-3.9791,-3.9039,-3.8311,-3.7222,0.0,0.0,0.0,0.0,0.0,0.0,0.0,0.0,0.0,0.0,0.0,0.0,0.0,0.0,0.0,0.0,0.0,0.0,0.0,0.0,0.0,0.0,0.0,0.0,0.0,0.0,0.0,0.0,0.0,0.0,0.0,0.0,0.0,0.0,0.0,0.0,0.0,0.0,0.0,0.0,0.0,0.0,0.0,0.0,0.0,0.0,0.0,0.0,0.0,0.0,0.0,0.0,0.0,0.0,0.0,0.0,0.0,0.0,0.0,0.0,0.0,0.0,0.0,0.0,0.0,0.0,0.0,0.0,0.0,0.0,0.0,0.0,0.0,0.0,0.0,0.0,0.0,0.0,0.0,0.0,0.0,0.0,0.0,0.0,0.0,0.0,0.0,0.0,0.0,0.0,0.0,0.0,0.0,0.0,0.0,0.0,0.0,0.0,0.0,0.0,0.0,0.0,0.0,-3.7821,-3.8717,-3.9309,-3.9309,-3.8853,-3.8464,-3.8244,-3.7058,-3.5732,-3.4282,0.0,0.0,0.0,0.0,0.0,0.0,0.0,0.0,0.0,0.0,0.0,0.0,0.0,0.0,0.0,0.0,0.0,0.0,0.0,0.0,0.0,0.0,0.0,0.0,0.0,0.0,0.0,0.0,0.0,0.0,0.0,0.0,0.0,0.0,0.0,0.0,0.0,0.0,0.0,0.0,0.0,0.0,0.0,0.0,0.0,0.0,0.0,0.0,0.0,0.0,0.0,0.0,0.0,0.0,0.0,0.0,0.0,0.0,0.0,0.0,0.0,0.0,0.0,0.0,0.0,0.0,0.0,0.0,0.0,0.0,0.0,0.0,0.0,0.0,0.0,0.0,0.0,0.0,0.0,0.0,0.0,0.0,0.0,0.0,0.0,0.0,0.0,0.0,0.0,0.0,0.0,0.0,0.0,0.0,0.0,0.0,0.0,0.0,0.0,0.0,0.0,0.0,-3.6907,-3.7922,-3.8565,-3.8565,-3.8159,-3.7787,-3.7483,-3.637,-3.4962,-3.3261,0.0,0.0,0.0,0.0,0.0,0.0,0.0,0.0,0.0,0.0,0.0,0.0,0.0,0.0,0.0,0.0,0.0,0.0,0.0,0.0,0.0,0.0,0.0,0.0,0.0,0.0,0.0,0.0,0.0,0.0,0.0,0.0,0.0,0.0,0.0,0.0,0.0,0.0,0.0,0.0,0.0,0.0,0.0,0.0,0.0,0.0,0.0,0.0,0.0,0.0,0.0,0.0,0.0,0.0,0.0,0.0,0.0,0.0,0.0,0.0,0.0,0.0,0.0,0.0,0.0,0.0,0.0,0.0,0.0,0.0,0.0,0.0,0.0,0.0,0.0,0.0,0.0,0.0,0.0,0.0,0.0,0.0,0.0,0.0,0.0,0.0,0.0,0.0,0.0,0.0,0.0,0.0,0.0,0.0,0.0,0.0,0.0,0.0,0.0,0.0,0.0,0.0,-3.56,-3.6918,-3.7804,-3.7804,-3.7736,-3.7391,-3.6652,-3.5932,-3.4602,-3.2452,0.0,0.0,0.0,0.0,0.0,0.0,0.0,0.0,0.0,0.0,0.0,0.0,0.0,0.0,0.0,0.0,0.0,0.0,0.0,0.0,0.0,0.0,0.0,0.0,0.0,0.0,0.0,0.0,0.0,0.0,0.0,0.0,0.0,0.0,0.0,0.0,0.0,0.0,0.0,0.0,0.0,0.0,0.0,0.0,0.0,0.0,0.0,0.0,0.0,0.0,0.0,0.0,0.0,0.0,0.0,0.0,0.0,0.0,0.0,0.0,-3.5571,0.0,0.0,0.0,0.0,0.0,0.0,0.0,0.0,0.0,0.0,0.0,0.0,0.0,0.0,0.0,0.0,0.0,0.0,0.0,0.0,0.0,0.0,0.0,0.0,0.0,0.0,0.0,0.0,0.0,0.0,0.0,0.0,0.0,0.0,0.0,0.0,0.0,0.0,0.0,0.0,0.0,-3.6372,-3.6846,-3.7032,-3.7032,-3.6468,-3.5805,-3.512,-3.4439,-3.3175,-3.1117,-3.0109,0.0,0.0,0.0,0.0,0.0,0.0,0.0,0.0,0.0,0.0,0.0,0.0,0.0,0.0,0.0,0.0,0.0,0.0,0.0,0.0,0.0,0.0,0.0,0.0,0.0,0.0,0.0,0.0,0.0,0.0,0.0,0.0,0.0,0.0,0.0,0.0,0.0,0.0,0.0,0.0,0.0,0.0,0.0,0.0,0.0,0.0,0.0,0.0,0.0,0.0,0.0,0.0,0.0,0.0,0.0,0.0,0.0,0.0,0.0,0.0,-3.6383,0.0,0.0,0.0,0.0,0.0,0.0,0.0,0.0,0.0,0.0,0.0,0.0,0.0,0.0,0.0,0.0,0.0,0.0,0.0,0.0,0.0,0.0,0.0,0.0,0.0,0.0,0.0,0.0,0.0,0.0,0.0,0.0,0.0,0.0,0.0,0.0,0.0,0.0,0.0,0.0,-3.556,-3.5732,-3.5746,-3.5746,-3.5079,-3.4364,-3.3714,-3.301,-3.1929,-3.0233,-2.9199,0.0,0.0,0.0,0.0,0.0,0.0,0.0,0.0,0.0,0.0,0.0,0.0,0.0,0.0,0.0,0.0,0.0,0.0,0.0,0.0,0.0,0.0,0.0,0.0,0.0,0.0,0.0,0.0,0.0,0.0,0.0,0.0,0.0,0.0,0.0,0.0,0.0,0.0,0.0,0.0,0.0,0.0,0.0,0.0,0.0,0.0,0.0,0.0,0.0,0.0,0.0,0.0,0.0,-3.8227,-3.8278,-3.8278,-3.8278,-3.8278,-3.8261,-3.7642,-3.7567,-3.7804,0.0,0.0,0.0,0.0,0.0,0.0,0.0,0.0,0.0,0.0,0.0,0.0,0.0,0.0,0.0,0.0,0.0,0.0,0.0,0.0,0.0,0.0,0.0,0.0,0.0,-3.2998,-3.3665,0.0,0.0,0.0,0.0,0.0,0.0,0.0,0.0,0.0,0.0,0.0,0.0,-3.427,-3.4395,-3.4431,-3.4431,-3.3824,-3.3141,-3.249,-3.1804,-3.0851,-2.9521,-2.8379,-2.748,0.0,0.0,0.0,0.0,0.0,0.0,0.0,0.0,0.0,0.0,0.0,0.0,0.0,0.0,0.0,0.0,0.0,0.0,0.0,0.0,0.0,0.0,0.0,0.0,0.0,0.0,0.0,0.0,0.0,0.0,0.0,0.0,-2.9244,-3.0559,0.0,0.0,0.0,0.0,0.0,0.0,0.0,0.0,0.0,0.0,0.0,0.0,0.0,-3.8474,-3.7878,-3.8529,-3.8853,-3.8853,-3.9503,-3.9808,-3.9808,-3.9808,-3.9808,-3.9808,-3.9706,0.0,-3.7889,-3.7686,0.0,0.0,0.0,0.0,0.0,0.0,0.0,0.0,0.0,0.0,0.0,0.0,0.0,0.0,0.0,0.0,0.0,0.0,0.0,0.0,0.0,0.0,-3.2786,-3.2666,-3.3619,-3.4687,0.0,-3.4422,-3.3576,-3.3479,-3.2992,0.0,0.0,0.0,0.0,0.0,0.0,0.0,-3.3711,-3.3738,-3.3735,-3.3735,-3.3139,-3.2453,-3.1774,-3.1109,-3.0176,-2.8804,-2.8554,-2.8184,-2.7495,-2.6746,0.0,0.0,0.0,0.0,0.0,0.0,0.0,0.0,0.0,0.0,0.0,0.0,0.0,0.0,0.0,0.0,0.0,0.0,0.0,0.0,0.0,0.0,0.0,0.0,0.0,0.0,0.0,0.0,0.0,-2.9351,-3.1063,-3.1637,-3.2731,-3.3424,0.0,0.0,0.0,0.0,0.0,0.0,0.0,0.0,0.0,-3.8625,-3.8891,-3.8909,-3.8628,-3.9291,-3.9622,-3.9622,-3.996,-4.0096,-4.0096,-4.0096,-4.0096,-4.0096,-4.0096,-3.974,-3.9089,-3.8684,-3.8328,-3.8014,0.0,0.0,0.0,0.0,-3.7303,-3.7194,-3.736,-3.6878,0.0,0.0,0.0,0.0,0.0,0.0,0.0,0.0,0.0,0.0,0.0,0.0,0.0,-3.266,-3.332,-3.4197,-3.4836,-3.4453,-3.4218,0.0,-3.4967,-3.45,-3.3611,0.0,0.0,0.0,0.0,-3.3112,-3.3553,-3.3261,-3.2898,-3.2505,-3.1835,-3.1001,-3.0007,-2.9646,-2.9061,-2.812,-2.8049,-2.7914,-2.76,-2.6971,-2.6452,0.0,0.0,0.0,0.0,0.0,0.0,0.0,0.0,0.0,0.0,0.0,0.0,0.0,0.0,0.0,0.0,0.0,0.0,0.0,0.0,0.0,0.0,0.0,0.0,0.0,0.0,0.0,0.0,-3.1393,-3.2406,-3.2896,-3.3667,-3.416,0.0,0.0,0.0,0.0,0.0,0.0,-3.897,-3.8755,-3.8797,-3.926,-3.9427,-3.9513,-3.944,-3.9867,-4.0096,-4.0096,-4.0096,-4.0096,-4.0096,-4.0096,-4.0096,-4.0096,-4.0096,-4.0096,-4.0062,-3.952,-3.9157,-3.8937,-3.8396,-3.8075,-3.7922,-3.8125,-3.808,-3.7985,-3.8343,-3.7758,-3.681,-3.6633,0.0,-3.3885,-3.3817,0.0,0.0,0.0,0.0,-3.3013,-3.252,-3.2736,-3.2982,-3.263,-3.2916,-3.3425,-3.4114,-3.4384,-3.4878,0.0,-3.6248,-3.5691,-3.4257,0.0,0.0,0.0,0.0,-3.2665,-3.3014,-3.2625,-3.2066,-3.139,-3.0688,-2.9819,-2.8697,-2.8442,-2.8113,-2.763,-2.76,-2.76,-2.76,-2.7121,-2.6791,-2.6587,0.0,0.0,0.0,0.0,0.0,0.0,0.0,0.0,0.0,0.0,0.0,0.0,0.0,0.0,0.0,0.0,0.0,0.0,0.0,0.0,0.0,0.0,0.0,0.0,0.0,0.0,0.0,0.0,0.0,-3.4059,-3.4494,0.0,0.0,0.0,0.0,-3.709,-3.7983,-3.8704,-3.9164,-3.9824,-3.9965,-3.9508,-4.0096,-4.0319,-4.0045,-4.0079,-4.0096,-4.0096,-4.0096,-4.0096,-4.0096,-4.0096,-4.0096,-4.0096,-4.0096,-4.0096,-4.0096,-4.0062,-3.9639,-3.8988,-3.8954,-3.8514,-3.799,-3.8684,-3.8764,-3.8589,-3.8861,-3.8541,-3.7776,-3.6405,-3.4506,-3.2807,-3.2997,-3.2368,0.0,0.0,-3.171,-3.187,-3.1841,-3.1872,-3.2009,-3.2554,-3.2616,-3.2736,-3.341,-3.4038,-3.4698,0.0,-3.5048,-3.4787,-3.532,0.0,-3.3485,-3.3454,-3.2955,-3.2379,-3.1682,-3.1582,-3.1299,-3.0638,-3.0011,-2.934,-2.8667,-2.8019,-2.763,-2.76,-2.76,-2.76,-2.76,-2.757,-2.7255,-2.6602,-2.5914,0.0,0.0,0.0,0.0,0.0,0.0,0.0,0.0,0.0,0.0,0.0,0.0,0.0,0.0,0.0,0.0,0.0,0.0,0.0,0.0,0.0,0.0,0.0,0.0,0.0,0.0,0.0,0.0,-3.4308,-3.4945,0.0,-3.496,-3.6003,-3.6719,-3.681,-3.7959,-3.8957,-3.9621,-3.9899,-4.0106,-4.0268,-4.0422,-4.0387,-4.0096,-4.0096,-4.0096,-4.0096,-4.0096,-4.0096,-4.0096,-4.0096,-4.0096,-4.0096,-4.0096,-4.0096,-4.0096,-4.0096,-3.996,-3.9723,-3.9723,-3.9554,-3.9276,-3.9073,-3.8815,-3.8496,-3.7819,-3.7156,-3.6422,-3.5097,-3.4,-3.3156,-3.2796,-3.2436,-3.2049,-3.163,-3.1539,-3.1597,-3.1597,-3.1597,-3.1657,-3.1882,-3.1869,-3.2034,-3.2721,-3.3051,-3.341,-3.4083,-3.4711,-3.4956,-3.4333,-3.3804,-3.3198,-3.2335,-3.2017,-3.1796,-3.1524,-3.1511,-3.1241,-3.0567,-3.0313,-2.9744,-2.8682,-2.8368,-2.8064,-2.763,-2.76,-2.76,-2.76,-2.7195,-2.7061,-2.724,-2.6153,-2.5472,0.0,0.0,0.0,0.0,0.0,0.0,0.0,0.0,0.0,0.0,0.0,0.0,0.0,0.0,0.0,0.0,0.0,0.0,0.0,0.0,0.0,0.0,0.0,0.0,0.0,0.0,-3.496,-3.5087,-3.5671,-3.591,-3.5537,-3.6243,-3.6827,-3.7186,-3.8061,-3.9031,-4.006,-4.0112,-4.0259,-4.0558,-4.0461,-4.0337,-4.0096,-4.0096,-4.0096,-4.0096,-4.0096,-3.9977,-3.974,-3.974,-3.9605,-3.9343,-3.9343,-3.9343,-3.9343,-3.9343,-3.9343,-3.9419,-3.991,-3.996,-3.9673,-3.9174,-3.8713,-3.8129,-3.6988,-3.6082,-3.5259,-3.437,-3.3804,-3.3365,-3.2706,-3.2512,-3.2348,-3.169,-3.1511,-3.1511,-3.1511,-3.1511,-3.1511,-3.1511,-3.1511,-3.163,-3.2064,-3.2333,-3.2647,-3.308,-3.4068,-3.4547,-3.3649,-3.3305,-3.2871,-3.1974,-3.1645,-3.1511,-3.1511,-3.1511,-3.1241,-3.0567,-3.0507,-2.9983,-2.8712,-2.8607,-2.8308,-2.7645,-2.76,-2.76,-2.76,-2.6971,-2.6926,-2.7585,-2.6497,-2.5944,-2.5944,0.0,0.0,0.0,0.0,0.0,0.0,0.0,0.0,0.0,0.0,0.0,0.0,0.0,0.0,0.0,0.0,0.0,0.0,0.0,0.0,0.0,0.0,0.0,-3.4389,-3.5321,-3.6034,-3.646,-3.6623,-3.6702,-3.6702,-3.6599,-3.7037,-3.8277,-3.8408,-3.9031,-4.039,-4.0493,-4.0436,-4.0305,-4.0305,-4.0255,-4.0096,-4.0096,-4.0096,-4.0096,-4.0079,-3.9706,-3.8988,-3.8971,-3.8582,-3.7905,-3.7905,-3.7905,-3.7905,-3.7905,-3.7905,-3.8041,-3.9462,-3.9605,-3.8954,-3.8937,-3.8374,-3.7466,-3.6463,-3.5419,-3.4512,-3.4205,-3.3819,-3.332,-3.2677,-3.2452,-3.2318,-3.169,-3.1511,-3.1511,-3.1511,-3.1511,-3.1511,-3.1511,-3.1511,-3.1511,-3.1511,-3.2004,-3.2452,-3.2452,-3.2991,-3.344,-3.3469,-3.2931,-3.2497,-3.2452,-3.1914,0.0,-3.1511,-3.1511,-3.1256,-3.0612,-3.0537,-3.0028,-2.8771,-2.8637,-2.8338,-2.7675,-2.76,-2.76,-2.76,-2.6971,-2.6911,-2.7555,-2.6941,-2.6587,-2.6587,0.0,0.0,0.0,0.0,0.0,0.0,0.0,0.0,0.0,0.0,0.0,0.0,0.0,0.0,0.0,0.0,0.0,0.0,0.0,0.0,0.0,0.0,-3.4798,-3.5489,-3.5598,-3.5898,-3.6623,-3.6748,-3.6708,-3.6564,-3.692,-3.7231,-3.7438,-3.8534,-3.9363,-3.9733,-4.034,-4.0583,-4.0461,-4.0337,-4.0255,-4.0096,-4.0096,-4.0096,-4.0096,-3.9571,-3.9191,-3.8971,-3.8447,-3.8091,-3.7905,-3.7905,-3.7905,-3.7905,-3.7905,-3.7905,-3.7939,-3.8345,-3.8379,-3.8142,-3.7608,-3.6673,-3.5544,-3.4683,-3.3895,-3.3227,-3.2741,-3.2355,-3.2019,-3.1824,-3.1765,-3.1735,-3.1555,-3.1511,-3.1511,-3.1511,-3.1511,-3.1511,-3.1511,-3.1511,-3.1511,-3.1511,-3.1645,-3.1765,-3.1765,-3.1914,-3.2183,-3.2706,-3.2632,-3.2333,-3.1854,-3.1615,0.0,-3.1511,-3.1511,-3.1436,-3.1241,-3.1227,-3.0883,-3.0058,-2.9564,-2.9052,-2.8368,-2.7869,-2.76,-2.76,-2.6971,-2.6701,-2.6881,-2.6677,-2.6587,0.0,0.0,0.0,0.0,0.0,0.0,0.0,0.0,0.0,0.0,0.0,0.0,0.0,0.0,0.0,0.0,0.0,0.0,0.0,0.0,0.0,0.0,-3.4952,-3.6058,-3.6576,-3.6365,-3.6365,-3.6878,-3.693,-3.6891,-3.6753,-3.6988,-3.724,-3.7456,-3.8178,-3.8769,-3.9095,-3.9781,-4.0072,-3.9951,-4.0184,-4.0255,-4.0096,-4.0096,-3.9943,-3.9639,-3.9191,-3.8667,-3.8058,-3.7618,-3.7263,0.0,-3.6935,-3.6935,-3.6935,-3.6935,-3.6935,0.0,0.0,0.0,0.0,0.0,-3.5659,-3.4732,-3.4101,-3.3351,-3.2641,-3.2219,-3.1811,-3.1511,-3.1511,-3.1511,-3.1511,-3.1511,-3.1511,-3.1511,-3.1511,-3.1511,-3.1511,-3.1511,-3.1511,-3.1511,-3.1511,-3.1511,-3.1511,-3.1511,-3.1511,0.0,-3.2004,-3.2064,-3.1944,-3.157,-3.1511,-3.1511,-3.1511,-3.1511,-3.1511,-3.1511,-3.1511,-3.1122,-3.0193,-2.9789,0.0,0.0,0.0,-2.7465,-2.7195,-2.7091,0.0,0.0,0.0,0.0,0.0,0.0,0.0,0.0,-2.9415,-2.9639,0.0,0.0,0.0,0.0,0.0,0.0,0.0,0.0,0.0,0.0,0.0,0.0,0.0,0.0,0.0,0.0,-3.5708,-3.6747,-3.7417,-3.7179,-3.6973,-3.715,-3.7166,-3.7147,-3.7147,-3.695,-3.7126,-3.7825,-3.7615,-3.7749,-3.8479,0.0,0.0,0.0,0.0,-4.0153,-4.0096,-4.0028,-3.9656,-3.8988,-3.8819,-3.8082,-3.6795,-3.6711,-3.6282,-3.56,-3.56,-3.56,-3.56,-3.56,-3.56,-3.5735,-3.7127,-3.7246,-3.6569,-3.575,-3.5111,-3.4618,-3.4159,0.0,0.0,-3.2247,-3.1868,-3.1511,-3.1511,-3.1511,-3.1511,-3.1511,-3.1511,-3.1511,-3.1511,-3.1511,-3.1511,-3.1511,-3.1511,-3.1511,-3.1511,-3.1511,-3.1511,-3.1511,-3.1511,-3.1511,-3.1511,-3.1511,-3.1511,-3.1511,-3.1511,-3.1511,-3.1511,-3.1511,-3.1511,-3.1511,0.0,0.0,-2.9789,-2.9577,-2.8992,-2.7794,-2.7645,-2.733,-2.6746,-2.7285,-2.733,-2.6707,-2.73,-2.7899,-2.8487,-2.9172,-2.9789,-3.0372,-2.94,-2.9535,0.0,0.0,0.0,0.0,0.0,0.0,0.0,0.0,0.0,0.0,0.0,0.0,0.0,0.0,0.0,-3.5299,-3.5164,-3.529,-3.6746,-3.6285,-3.6254,-3.7434,-3.754,-3.7466,-3.7337,-3.7106,-3.7038,-3.7178,-3.7512,-3.7843,-3.8101,-3.8528,0.0,-3.9418,-3.9416,-3.9619,-4.0096,-3.952,-3.914,-3.8988,0.0,0.0,-3.6778,-3.6129,-3.5735,-3.56,-3.56,-3.56,-3.56,-3.56,-3.56,-3.5633,-3.5921,-3.5955,-3.578,-3.5341,-3.497,-3.457,-3.3688,-3.3018,-3.252,-3.2038,-3.1712,-3.1511,-3.1511,-3.1511,0.0,-3.1511,-3.1511,-3.1511,-3.1511,-3.1511,-3.1511,-3.1511,-3.1511,-3.1511,-3.1511,-3.1511,-3.1511,-3.1511,-3.1511,-3.1511,-3.1511,-3.1511,-3.1511,-3.1511,-3.1511,-3.1511,-3.1511,-3.1511,-3.1511,-3.1511,-3.1002,-3.0597,-3.0342,-2.9385,-2.8682,-2.8412,-2.7899,-2.754,-2.7405,-2.7525,-2.754,-2.7405,-2.7525,-2.766,-2.7794,-2.8457,-2.9131,-2.9774,-3.0597,-3.1077,0.0,0.0,0.0,0.0,0.0,0.0,0.0,0.0,0.0,0.0,0.0,-3.1865,-3.2396,0.0,-3.3906,-3.5198,-3.526,-3.5439,-3.6286,-3.6019,-3.5975,-3.6568,-3.695,-3.713,-3.7059,-3.7235,-3.7337,-3.7337,-3.7459,-3.7567,-3.7644,-3.8053,-3.8386,-3.8537,-3.8722,-3.8887,-3.9059,-3.8664,-3.8261,-3.7895,-3.7151,-3.6592,-3.618,-3.5769,-3.56,-3.56,-3.56,-3.56,-3.56,-3.56,-3.56,-3.56,-3.56,-3.56,-3.5577,-3.5297,-3.4947,-3.4497,-3.3729,-3.3033,-3.2437,-3.2038,-3.1712,-3.1511,-3.1511,-3.1511,-3.1511,-3.1511,-3.1511,-3.1511,-3.1511,-3.1511,-3.1511,-3.1511,-3.1511,-3.1511,-3.1511,-3.1511,-3.1511,-3.1511,-3.1511,-3.1511,-3.1511,-3.1511,-3.1511,-3.1511,-3.1511,-3.1511,-3.1511,-3.1511,-3.1376,-3.1032,-3.0717,-3.0238,-2.9594,-2.8652,-2.8109,-2.8109,-2.7794,-2.76,-2.76,-2.76,-2.76,-2.76,-2.76,-2.76,-2.76,-2.8263,-2.8771,-2.9116,-3.0103,-3.0883,0.0,0.0,0.0,0.0,0.0,0.0,0.0,0.0,-3.0392,-3.1247,-3.1995,-3.2532,-3.268,-3.371,-3.4626,-3.4859,-3.5257,-3.5596,-3.5757,-3.5632,-3.5448,-3.5245,-3.6,-3.6566,-3.671,-3.7182,-3.756,-3.7739,-3.7503,-3.7372,-3.741,-3.7701,-3.7822,-3.7696,-3.8043,-3.8174,-3.808,-3.7814,-3.7405,-3.6818,-3.6643,-3.6231,-3.56,-3.56,-3.56,-3.56,-3.56,-3.56,-3.56,-3.56,-3.56,-3.56,-3.56,-3.5498,-3.5374,-3.5293,-3.4947,-3.4448,-3.3822,-3.3102,-3.2398,-3.2066,-3.1769,-3.1511,-3.1511,-3.1511,-3.1511,-3.1511,-3.1511,-3.1511,-3.1511,-3.1511,-3.1511,-3.1511,-3.1511,-3.1511,-3.1511,-3.1406,-3.1346,-3.1481,-3.1391,-3.1346,-3.1481,-3.1511,-3.1511,-3.1511,-3.1511,-3.1511,-3.1511,-3.1391,-3.1092,-3.0567,-3.0283,-2.9654,-2.8502,-2.7914,-2.76,-2.76,-2.76,-2.76,-2.76,-2.76,-2.76,-2.76,-2.76,-2.76,-2.76,-2.8128,-2.8472,-2.8607,-2.9146,-3.0088,-2.7019,-2.7888,-2.836,-2.8038,-2.8752,-2.9642,0.0,0.0,-3.1917,-3.2494,-3.2919,-3.3255,-3.3449,-3.3567,-3.3931,-3.4753,-3.4323,-3.413,-3.4899,-3.4363,-3.3875,-3.3917,-3.5042,-3.6098,-3.6805,-3.673,-3.7003,-3.7895,-3.7721,-3.7649,-3.7828,-3.7536,-3.7565,-3.8029,-3.7804,-3.7887,-3.8345,-3.7473,-3.6984,-3.6882,-3.6107,-3.5684,-3.56,-3.56,-3.56,-3.56,-3.56,-3.56,-3.56,-3.56,-3.56,-3.56,-3.56,-3.5194,-3.4648,-3.5,-3.4923,-3.4546,-3.3585,-3.2953,-3.2492,-3.1996,-3.167,-3.1511,-3.1511,-3.1511,-3.1511,-3.1511,-3.1511,-3.1511,-3.1511,-3.1511,-3.1511,-3.1511,-3.1511,-3.1511,-3.1511,-3.1017,-3.0806,-3.1391,-3.1017,-3.0806,-3.1406,-3.1511,-3.1511,-3.1511,-3.1511,-3.1511,-3.1511,-3.0972,-3.0582,-3.0507,-2.949,-2.8502,-2.7779,-2.7645,-2.76,-2.76,-2.76,-2.76,-2.76,-2.76,-2.76,-2.76,-2.76,-2.76,-2.76,-2.7675,-2.8034,-2.8607,-2.8682,-2.94,-2.7072,-2.8185,0.0,0.0,-2.9154,-2.9976,-2.9937,-3.0675,-3.1427,-3.1708,-3.226,-3.2762,-3.2926,-3.3323,-3.3771,0.0,-3.3945,-3.3835,-3.4211,-3.3945,-3.3726,-3.3753,-3.4633,-3.5536,-3.6305,-3.6701,-3.7285,-3.8165,-3.8087,-3.8037,-3.8123,-3.7828,-3.7719,-3.7854,-3.7506,-3.7362,-3.7463,-3.6874,-3.6503,-3.637,-3.5931,-3.5684,-3.56,-3.56,-3.56,-3.56,-3.56,-3.56,-3.56,-3.56,-3.56,-3.5549,-3.5131,-3.4776,-3.4501,-3.46,-3.4133,-3.3329,-3.2676,-3.2003,-3.1361,-3.099,-3.0636,-3.0462,-3.0821,-3.0913,-3.0987,-3.1391,-3.1511,-3.1511,-3.1511,-3.1511,-3.1511,-3.1511,-3.1511,-3.1391,-3.0987,-3.0717,-3.0477,-3.0417,-3.0163,-3.0178,-3.0821,-3.0913,-3.1047,-3.1451,-3.1511,-3.1361,-3.0957,-3.0687,-3.0223,-2.9475,-2.8562,-2.7899,-2.7615,-2.76,-2.76,-2.76,-2.76,-2.76,-2.76,-2.76,-2.76,-2.76,-2.76,-2.76,-2.76,-2.76,-2.775,-2.8034,-2.8034,-2.8502,-2.6874,0.0,0.0,-2.8367,-2.9173,-2.9971,-2.975,-3.0333,-3.0966,-3.1048,-3.1556,-3.2111,-3.2433,-3.2971,-3.3456,-3.3757,-3.3807,-3.3807,-3.3807,-3.3807,-3.388,-3.41,-3.4614,-3.5326,-3.6306,-3.69,-3.7525,-3.8376,-3.837,-3.8338,-3.8354,-3.814,-3.7951,-3.7809,-3.7467,-3.7167,-3.6974,-3.6615,-3.6343,-3.6127,-3.5949,-3.5778,-3.5644,-3.5622,-3.56,-3.56,-3.56,-3.56,-3.56,-3.56,-3.5481,-3.525,-3.4709,-3.4235,-3.388,-3.3777,-3.3272,-3.2562,-3.2111,-3.1405,-3.069,-3.0381,-3.0004,-2.9723,-3.0173,-3.04,-3.0612,-3.1077,-3.1361,-3.1511,-3.1511,-3.1511,-3.1511,-3.1511,-3.1361,-3.1077,-3.0612,-3.0223,-2.9894,-2.9666,-2.9457,-2.9505,-3.0133,-3.0253,-3.0417,-3.0898,-3.0972,-3.0853,-3.0552,-3.0193,-2.9549,-2.8427,-2.7899,-2.76,-2.76,-2.76,-2.76,-2.76,-2.76,-2.76,-2.76,-2.76,-2.76,-2.76,-2.76,-2.76,-2.76,-2.76,-2.76,-2.76,-2.76,-2.7959,0.0,0.0,-2.7566,-2.7991,-2.8873,-2.9656,-2.9847,-3.0503,-3.1111,-3.119,-3.1203,-3.1485,-3.2336,-3.2532,-3.2815,-3.3665,-3.3807,-3.3807,-3.3807,-3.3807,-3.41,-3.4876,-3.4972,-3.5646,0.0,-3.729,-3.7557,-3.8421,-3.843,-3.843,-3.8494,-3.8352,-3.8239,-3.8085,-3.7809,-3.7595,-3.7376,-3.6993,-3.6693,-3.6482,-3.6148,-3.591,-3.5795,-3.5667,-3.56,-3.56,-3.56,-3.56,-3.56,-3.56,-3.5182,-3.4523,-3.4506,-3.363,-3.2361,-3.2361,-3.2589,-3.2818,-3.2272,-3.1654,-3.102,-3.0617,-3.0173,-2.9798,-2.9813,-3.0153,-3.0507,-3.0522,-3.0987,-3.1511,-3.1511,-3.1511,-3.1511,-3.1511,-3.0987,-3.0522,-3.0507,-2.9535,-2.8846,-2.9487,-2.9071,-2.8831,-2.9517,-2.9636,-2.9636,-2.9666,-2.9666,-2.9849,-3.0432,-2.9415,-2.8382,-2.7705,-2.76,-2.76,-2.76,-2.76,-2.76,-2.76,-2.76,-2.76,-2.76,-2.76,-2.76,-2.76,-2.76,-2.76,-2.76,-2.76,-2.76,-2.76,-2.76,-2.7959,0.0,0.0,-2.6774,-2.6916,-2.7592,-2.8244,-2.8337,-2.9028,-2.9637,-2.9673,-3.0131,-3.0625,-3.0913,-3.186,-3.2667,-3.2949,-3.3458,-3.3807,-3.3807,-3.3807,-3.41,-3.4912,-3.55,0.0,0.0,0.0,0.0,-3.8569,-3.8609,-3.8611,-3.8624,-3.8496,-3.8415,-3.8364,-3.8204,-3.8002,-3.7792,-3.7485,-3.7129,-3.6776,-3.6339,-3.6058,-3.5932,-3.5778,-3.5728,-3.5728,-3.5644,-3.56,-3.56,-3.56,-3.5182,-3.4438,-3.3964,-3.3169,-3.2242,-3.1752,-3.1594,-3.1587,-3.1175,-3.0589,-2.9973,-2.9651,-2.9282,-2.901,-2.9291,-2.9807,-3.0349,-3.0554,-3.1157,-3.167,-3.1539,-3.1511,-3.1511,-3.1511,-3.0972,-3.0387,-2.9983,-2.922,-2.8532,-2.8319,-2.8094,-2.8154,-2.8816,-2.8936,-2.8936,-2.8936,-2.8936,-2.9011,-2.922,-2.8498,-2.7854,-2.7615,-2.76,-2.76,-2.76,-2.76,-2.76,-2.76,-2.76,-2.76,-2.76,-2.76,-2.76,-2.76,-2.76,-2.76,-2.76,-2.76,-2.76,-2.76,-2.76,-2.772,-2.5238,-2.5643,-2.6085,-2.6359,-2.6793,-2.7237,-2.7579,-2.81,-2.8592,-2.8885,-2.9385,-2.9849,-3.0155,-3.1292,-3.2284,-3.2546,-3.3293,-3.3807,-3.3807,-3.3807,-3.4211,-3.5334,-3.5973,-3.6725,0.0,0.0,0.0,-3.867,-3.8707,-3.8707,-3.8707,-3.8624,-3.8575,-3.8575,-3.8433,-3.8303,-3.8136,-3.788,-3.7468,-3.6976,-3.655,-3.6276,-3.617,-3.6014,-3.5769,-3.547,-3.5343,-3.5086,-3.4805,-3.4805,-3.4387,-3.3681,-3.3186,-3.2544,-3.1853,-3.136,-3.1112,-3.0955,-3.0733,-3.0258,-2.9716,-2.9483,-2.9097,-2.8771,-2.902,-2.9633,-3.0265,-3.0371,-3.1089,-3.1756,-3.1539,-3.1511,-3.1451,-3.1197,-3.0657,-2.9998,-2.937,-2.8738,-2.8124,-2.769,-2.76,-2.7735,-2.8184,-2.8233,-2.8233,-2.8233,-2.8233,-2.8233,-2.8233,-2.7869,-2.76,-2.76,-2.76,-2.76,-2.76,-2.76,-2.76,-2.76,-2.76,-2.76,-2.76,-2.76,-2.76,-2.76,-2.76,-2.76,-2.76,-2.76,-2.76,-2.76,-2.76,-2.76,-2.5055,-2.5236,-2.5419,-2.6179,-2.6409,-2.6677,-2.7537,-2.778,-2.8044,-2.8895,-2.9023,-2.9262,-3.0118,0.0,-3.1715,-3.2528,-3.3348,-3.3862,-3.3862,-3.3875,-3.4481,0.0,0.0,0.0,0.0,0.0,0.0,-3.8707,0.0,-3.8707,-3.8707,-3.8707,-3.8707,-3.8707,-3.8575,-3.8478,-3.8399,-3.8136,-3.7703,-3.7127,-3.6796,-3.6591,-3.6523,-3.628,-3.5698,-3.4903,-3.4708,-3.4173,-3.3406,-3.3406,-3.2966,-3.2293,-3.2293,-3.1853,-3.119,-3.119,-3.1131,-3.0995,-3.0952,-3.0609,-3.021,-3.007,-2.9639,-2.912,-2.8974,-2.9595,-3.0314,-2.9985,-3.084,-3.1756,-3.1568,-3.1511,-3.1331,-3.0672,-3.0028,-2.9427,-2.8742,-2.8053,-2.76,-2.76,-2.76,-2.76,-2.76,-2.76,-2.76,-2.76,-2.76,-2.76,-2.76,-2.76,-2.76,-2.76,-2.76,-2.76,-2.76,-2.76,-2.76,-2.76,-2.76,-2.76,-2.76,-2.76,-2.76,-2.76,-2.76,-2.76,-2.76,-2.76,-2.76,-2.76,-2.76,-2.76,-2.4427,-2.4482,-2.4537,-2.4739,-2.5244,-2.5905,-2.6722,-2.7365,-2.8191,-2.9604,-2.9427,-2.9427,-3.0834,0.0,0.0,-3.3366,-3.4251,0.0,-3.483,-3.4897,0.0,-3.633,0.0,-3.7745,-3.8759,-3.8851,0.0,0.0,-3.8719,-3.8707,-3.8707,-3.8707,-3.8707,-3.8707,-3.8658,-3.8593,-3.8478,-3.817,-3.7845,-3.7523,-3.7319,-3.711,-3.6915,-3.6078,-3.5489,-3.5081,-3.4243,-3.3698,-3.3406,-3.3406,-3.2966,-3.2293,-3.2293,-3.1853,-3.119,-3.119,-3.1171,-3.1151,-3.1131,-3.0875,-3.0547,-3.0405,-3.0199,-2.993,-2.9528,-3.0243,-3.1061,-3.0392,-3.1124,-3.201,-3.1582,-3.1511,-3.1331,-3.0672,-3.0028,-2.9427,-2.8742,-2.8053,-2.76,-2.76,-2.76,-2.76,-2.76,-2.76,-2.76,-2.76,-2.76,-2.76,-2.76,-2.76,-2.76,-2.76,-2.76,-2.76,-2.76,-2.76,-2.76,-2.76,-2.76,-2.76,-2.76,-2.76,-2.76,-2.76,-2.76,-2.76,-2.76,-2.76,-2.76,-2.76,-2.76,-2.76,-2.419,-2.419,-2.419,-2.419,-2.4548,-2.5191,-2.6337,-2.6961,-2.7732,-2.9335,-2.9701,0.0,-3.0875,-3.2286,0.0,0.0,0.0,0.0,-3.5848,-3.5927,-3.6276,0.0,-3.7588,0.0,-3.8999,-3.9045,-3.8989,0.0,-3.8822,-3.8719,-3.8707,-3.8707,-3.8707,-3.8707,-3.8707,-3.8643,-3.851,-3.8267,-3.8103,-3.7967,-3.7774,-3.7399,-3.6896,-3.6137,-3.5254,-3.4304,0.0,-3.2971,-3.2469,-3.2446,-3.2188,-3.1819,-3.1819,-3.1546,-3.119,-3.119,-3.119,-3.119,-3.119,-3.1072,-3.0895,-3.0773,-3.0613,-3.041,-3.0032,-3.0706,-3.1429,-3.076,-3.1351,-3.2046,-3.1364,-3.1119,-3.0823,-2.9894,-2.94,-2.8992,-2.8293,-2.7869,-2.76,-2.76,-2.76,-2.76,-2.76,-2.76,-2.76,-2.76,-2.76,-2.76,-2.76,-2.76,-2.76,-2.76,-2.76,-2.76,-2.76,-2.76,-2.76,-2.76,-2.76,-2.76,-2.76,-2.76,-2.76,-2.76,-2.76,-2.76,-2.76,-2.76,-2.76,-2.76,-2.76,-2.76,-2.419,-2.419,-2.419,-2.419,-2.4291,-2.4768,-2.6264,-2.6686,-2.7229,-2.8879,0.0,-3.0675,-3.093,-3.2787,-3.4351,-3.4654,0.0,-3.6666,-3.6855,-3.6957,-3.7306,-3.8053,-3.824,-3.8596,-3.9288,-3.9285,-3.9187,-3.8989,-3.8798,-3.8641,-3.8557,-3.8432,-3.8432,-3.8542,-3.8542,-3.8548,-3.8525,-3.8446,-3.833,-3.8176,-3.7975,-3.7424,-3.6549,-3.6061,-3.4941,-3.3298,0.0,0.0,-3.1295,-3.123,-3.119,-3.119,-3.119,-3.119,-3.119,-3.119,-3.119,-3.119,-3.119,-3.119,-3.1171,-3.1055,-3.0895,-3.0712,-3.0435,-3.0979,-3.1542,-3.0959,-3.1362,-3.1793,-3.0885,-3.0526,-3.0073,-2.8876,-2.8607,-2.8412,-2.775,-2.76,-2.76,-2.76,-2.76,-2.76,-2.76,-2.76,-2.76,-2.76,-2.76,-2.76,-2.76,-2.76,-2.76,-2.76,-2.76,-2.76,-2.76,-2.76,-2.76,-2.76,-2.76,-2.76,-2.76,-2.76,-2.76,-2.76,-2.76,-2.76,-2.76,-2.76,-2.76,-2.76,-2.76,-2.76,-2.419,-2.419,-2.419,-2.419,-2.4743,-2.5516,-2.6403,-2.7158,0.0,0.0,-3.0472,-3.1063,-3.2633,-3.384,-3.4969,-3.6118,0.0,0.0,0.0,0.0,-3.826,0.0,0.0,0.0,0.0,0.0,0.0,0.0,0.0,-3.8035,-3.7798,-3.7118,-3.7019,-3.7694,-3.7713,-3.8028,-3.8658,-3.8544,-3.8149,-3.746,-3.7385,-3.6821,-3.5831,-3.4939,-3.4142,-3.3406,-3.2397,0.0,-3.1295,-3.123,-3.119,-3.119,-3.119,-3.119,-3.119,-3.119,-3.119,-3.119,-3.119,-3.119,-3.119,-3.1171,-3.1151,-3.1052,-3.0733,-3.1016,-3.1277,-3.0466,-3.0567,-3.0735,-3.014,-2.9868,-2.9549,-2.8786,-2.8607,-2.8412,-2.775,-2.76,-2.76,-2.76,-2.76,-2.76,-2.76,-2.76,-2.76,-2.76,-2.76,-2.76,-2.76,-2.76,-2.76,-2.76,-2.76,-2.76,-2.76,-2.76,-2.76,-2.76,-2.76,-2.76,-2.76,-2.76,-2.76,-2.76,-2.76,-2.76,-2.76,-2.76,-2.76,-2.76,-2.76,-2.76,-2.43,-2.419,-2.43,-2.4713,-2.5157,-2.5823,-2.7095,0.0,0.0,0.0,-3.1252,-3.2041,-3.3371,0.0,0.0,0.0,0.0,0.0,0.0,0.0,0.0,0.0,0.0,0.0,0.0,0.0,0.0,0.0,0.0,-3.7393,-3.7096,-3.6619,-3.6526,-3.6926,-3.6883,-3.7055,-3.7441,-3.7378,-3.7161,-3.6776,-3.675,-3.6218,-3.526,-3.4687,-3.394,-3.3101,-3.2354,0.0,-3.1447,-3.1312,-3.1232,-3.119,-3.119,-3.119,-3.119,-3.119,-3.119,-3.119,-3.119,-3.119,-3.119,-3.119,-3.119,-3.1151,-3.0915,-3.1166,-3.1364,-3.0741,-3.0711,-3.0672,-2.9904,-2.9529,-2.918,-2.8387,-2.812,-2.8004,-2.766,-2.76,-2.76,-2.76,-2.76,-2.76,-2.76,-2.76,-2.76,-2.76,-2.76,-2.76,-2.76,-2.76,-2.76,-2.76,-2.76,-2.76,-2.76,-2.76,-2.76,-2.76,-2.76,-2.76,-2.76,-2.76,-2.76,-2.76,-2.76,-2.76,-2.76,-2.76,-2.76,-2.76,-2.76,-2.76,-2.464,-2.4456,-2.4622,-2.5246,-2.5719,-2.6398,-2.7732,-2.8277,0.0,0.0,-3.1857,-3.2856,-3.3731,0.0,-3.6235,0.0,0.0,0.0,0.0,0.0,0.0,0.0,0.0,0.0,0.0,0.0,0.0,0.0,0.0,0.0,-3.612,-3.596,-3.597,-3.6122,-3.607,-3.6101,-3.6303,-3.6303,-3.6211,-3.6028,-3.6028,-3.554,-3.4631,-3.4448,-3.38,-3.2829,-3.2403,0.0,0.0,-3.1391,-3.1254,-3.119,-3.119,-3.119,-3.119,-3.119,-3.119,-3.119,-3.119,-3.119,-3.119,-3.119,-3.119,-3.1171,-3.1035,-3.1195,-3.1323,-3.0942,-3.0787,-3.0567,-2.9708,-2.9265,-2.8853,-2.8061,-2.7815,-2.77,-2.765,-2.765,-2.7625,-2.7625,-2.76,-2.76,-2.76,-2.76,-2.76,-2.76,-2.76,-2.76,-2.76,-2.76,-2.76,-2.76,-2.76,-2.76,-2.76,-2.76,-2.76,-2.76,-2.76,-2.76,-2.76,-2.76,-2.76,-2.76,-2.76,-2.76,-2.76,-2.76,-2.76,-2.76,-2.76,-2.76,-2.5301,-2.5283,-2.5301,-2.5374,-2.6596,-2.7772,-2.7816,0.0,0.0,-3.078,-3.1857,-3.292,-3.396,-3.4941,-3.5971,0.0,0.0,0.0,0.0,0.0,0.0,0.0,0.0,0.0,0.0,0.0,0.0,0.0,0.0,0.0,-3.4469,-3.4283,-3.4531,-3.5206,-3.5142,-3.55,-3.6285,-3.6303,-3.5899,-3.5133,-3.5133,-3.4651,-3.3808,-3.3672,-3.337,-3.2959,-3.2487,0.0,0.0,-3.1428,-3.1254,-3.119,-3.119,-3.119,-3.119,-3.119,-3.119,-3.119,-3.119,-3.119,-3.119,-3.119,-3.119,-3.1171,-3.1035,-3.0905,-3.0709,-3.0373,-2.9972,-2.9578,-2.9224,-2.8857,-2.8508,-2.821,-2.8162,-2.8088,-2.784,-2.779,-2.7765,-2.7625,-2.76,-2.76,-2.76,-2.76,-2.76,-2.76,-2.76,-2.76,-2.76,-2.76,-2.76,-2.76,-2.76,-2.76,-2.76,-2.76,-2.76,-2.76,-2.76,-2.76,-2.76,-2.76,-2.76,-2.76,-2.76,-2.76,-2.76,-2.76,-2.76,-2.76,-2.76,-2.76,-2.6245,-2.6117,-2.6245,-2.6715,-2.7424,-2.818,-2.88,0.0,-3.0772,-3.1913,-3.2903,-3.3855,-3.4801,-3.5269,-3.5837,0.0,-3.7563,-3.8374,-3.9429,0.0,0.0,0.0,0.0,0.0,0.0,0.0,0.0,0.0,0.0,0.0,-3.4615,-3.4274,-3.4234,-3.4491,-3.4352,-3.4449,-3.4798,-3.4798,-3.4614,-3.427,-3.427,-3.4105,-3.3766,-3.3657,-3.3444,-3.3099,-3.2749,0.0,0.0,-3.1598,-3.1368,-3.119,-3.119,-3.119,-3.119,-3.119,-3.119,-3.119,-3.119,-3.119,-3.119,-3.119,-3.119,-3.119,-3.1131,-3.1012,-3.0834,-3.0671,-3.0363,-3.0027,-2.9728,-2.9257,-2.8818,-2.8661,-2.8462,-2.825,-2.798,-2.7855,-2.7765,-2.7625,-2.76,-2.76,-2.76,-2.76,-2.76,-2.76,-2.76,-2.76,-2.76,-2.76,-2.76,-2.76,-2.76,-2.76,-2.76,-2.76,-2.76,-2.76,-2.76,-2.76,-2.76,-2.76,-2.76,-2.76,-2.76,-2.76,-2.76,-2.76,-2.76,-2.76,-2.76,-2.76,-2.7552,-2.7353,-2.7437,-2.7808,-2.8141,-2.8668,0.0,-3.0588,-3.1485,-3.2886,-3.373,-3.4468,-3.5346,-3.55,-3.5846,0.0,-3.7603,-3.8488,-3.9854,0.0,0.0,0.0,0.0,0.0,0.0,0.0,0.0,0.0,0.0,0.0,0.0,-3.4469,-3.4209,-3.4099,-3.3895,-3.3807,-3.3807,-3.3807,-3.3807,-3.3807,-3.3807,-3.3807,-3.3807,-3.3726,-3.3559,-3.3265,0.0,0.0,0.0,-3.1728,-3.1447,-3.123,-3.121,-3.119,-3.119,-3.119,-3.119,-3.119,-3.119,-3.119,-3.119,-3.119,-3.119,-3.119,-3.119,-3.1112,-3.0995,-3.0935,-3.0753,-3.0489,-3.0161,-2.9755,-2.9416,-2.9212,-2.8943,-2.8621,-2.8268,-2.8048,-2.7865,-2.77,-2.7625,-2.76,-2.76,-2.76,-2.76,-2.76,-2.76,-2.76,-2.76,-2.76,-2.76,-2.76,-2.76,-2.76,-2.76,-2.76,-2.76,-2.76,-2.76,-2.76,-2.76,-2.76,-2.76,-2.76,-2.76,-2.76,-2.76,-2.76,-2.76,-2.76,-2.76,-2.76,-2.9269,-2.9127,-2.8997,-2.8291,-2.8709,-2.9551,0.0,-3.0941,-3.1617,-3.3416,-3.4012,-3.4468,-3.5346,-3.55,-3.6058,-3.7719,-3.7988,-3.8873,-4.1423,0.0,0.0,0.0,0.0,0.0,0.0,0.0,0.0,0.0,0.0,0.0,0.0,-3.4618,-3.4305,-3.4111,-3.3895,-3.3807,-3.3807,-3.3807,-3.3807,-3.3807,-3.3807,-3.3807,-3.3807,-3.3726,-3.3633,0.0,0.0,0.0,0.0,-3.1785,-3.1485,-3.1295,-3.123,-3.119,-3.119,-3.119,-3.119,-3.119,-3.119,-3.119,-3.119,-3.119,-3.119,-3.119,-3.119,-3.1112,-3.0995,-3.0995,-3.0855,-3.0651,-3.0372,-3.0293,-3.0187,-2.9859,-2.9633,-2.9341,-2.8818,-2.8431,-2.8113,-2.784,-2.7675,-2.76,-2.76,-2.76,-2.76,-2.76,-2.76,-2.76,-2.76,-2.76,-2.76,-2.76,-2.76,-2.76,-2.76,-2.76,-2.76,-2.76,-2.76,-2.76,-2.76,-2.76,-2.76,-2.76,-2.76,-2.76,-2.76,-2.76,-2.76,-2.76,-2.76,-2.76,-3.1228,-3.109,-3.0828,-3.0226,-3.0725,-3.1308,-3.1164,-3.2116,-3.3218,-3.3923,-3.4607,-3.5173,-3.5442,-3.5942,-3.6885,-3.8604,0.0,0.0,0.0,0.0,0.0,0.0,0.0,0.0,0.0,0.0,0.0,0.0,0.0,0.0,0.0,-3.4596,-3.4328,-3.4173,-3.3934,-3.3807,-3.3807,-3.3807,-3.3807,-3.3807,-3.3807,-3.3807,-3.3807,-3.378,0.0,0.0,0.0,0.0,0.0,-3.193,-3.16,-3.1295,-3.123,-3.119,-3.119,-3.119,-3.119,-3.119,-3.119,-3.119,-3.119,-3.119,-3.119,-3.119,-3.119,-3.1171,-3.1151,-3.1151,-3.1015,-3.0895,-3.0797,-3.0675,-3.0493,-3.0204,-2.9924,-2.9572,-2.9074,-2.874,-2.8462,-2.8137,-2.8039,-2.7949,-2.7765,-2.774,-2.77,-2.7625,-2.76,-2.76,-2.76,-2.76,-2.76,-2.76,-2.76,-2.76,-2.76,-2.76,-2.76,-2.76,-2.76,-2.76,-2.76,-2.76,-2.76,-2.76,-2.76,-2.76,-2.76,-2.76,-2.76,-2.76,-2.76,-2.76,0.0,-3.2288,-3.2046,-3.1543,-3.1798,-3.2221,-3.2309,-3.3108,-3.4022,-3.4576,-3.5115,-3.5596,-3.5904,-3.6365,-3.7276,-3.9015,-3.9977,0.0,0.0,0.0,0.0,0.0,0.0,0.0,0.0,0.0,0.0,0.0,0.0,0.0,0.0,-3.4618,-3.4351,-3.4209,-3.3934,-3.3807,-3.3807,-3.3807,-3.3807,-3.3807,-3.3807,-3.3807,-3.3807,-3.3807,0.0,0.0,0.0,0.0,0.0,-3.2056,-3.1711,-3.1408,-3.1269,-3.119,-3.119,-3.119,-3.119,-3.119,-3.119,-3.119,-3.119,-3.119,-3.119,-3.119,-3.119,-3.119,-3.119,-3.119,-3.1151,-3.1092,-3.1092,-3.0975,-3.0834,-3.0617,-3.0326,-2.9962,-2.9589,-2.9205,-2.8826,-2.8518,-2.8356,-2.8186,-2.793,-2.7815,-2.7765,-2.7625,-2.76,-2.76,-2.76,-2.76,-2.76,-2.76,-2.76,-2.76,-2.76,-2.76,-2.76,-2.76,-2.76,-2.76,-2.76,-2.76,-2.76,-2.76,-2.76,-2.76,-2.76,-2.76,-2.76,-2.76,-2.76,-2.76,0.0,-3.2865,-3.2819,-3.2366,-3.2238,-3.2553,-3.3727,-3.3976,0.0,-3.528,-3.5558,-3.5808,-3.6558,-3.6788,-3.743,-3.9111,0.0,0.0,0.0,0.0,0.0,0.0,0.0,0.0,0.0,0.0,0.0,0.0,0.0,0.0,0.0,-3.4689,-3.4416,-3.4197,-3.3947,-3.3788,-3.3807,-3.3807,-3.3807,-3.3807,-3.3807,-3.3807,-3.3807,-3.3807,0.0,0.0,0.0,0.0,0.0,-3.2179,-3.1785,-3.1579,-3.131,-3.121,-3.119,-3.119,-3.119,-3.119,-3.119,-3.119,-3.119,-3.119,-3.119,-3.119,-3.119,-3.119,-3.119,-3.119,-3.119,-3.119,-3.119,-3.119,-3.1171,-3.1035,-3.0753,-3.0485,-3.0274,-2.976,-2.9289,-2.902,-2.87,-2.8396,-2.8103,-2.794,-2.78,-2.7675,-2.7625,-2.7625,-2.7625,-2.7625,-2.76,-2.76,-2.76,-2.76,-2.76,-2.76,-2.76,-2.76,-2.76,-2.76,-2.76,-2.76,-2.76,-2.76,-2.76,-2.76,-2.76,-2.76,-2.76,-2.76,-2.76,-2.76,-3.3852,0.0,-3.4163,-3.3799,-3.4198,-3.4596,0.0,-3.4632,-3.5189,-3.5435,0.0,-3.6481,-3.6673,-3.7796,-3.9008,-4.0054,0.0,0.0,0.0,0.0,0.0,0.0,0.0,0.0,0.0,0.0,0.0,0.0,0.0,0.0,0.0,-3.4678,-3.4439,-3.4136,-3.3959,-3.3842,-3.3807,-3.3807,-3.3807,-3.3807,-3.3807,-3.3807,-3.3807,-3.3807,0.0,0.0,0.0,0.0,-3.2763,-3.2369,-3.1966,-3.1579,-3.137,-3.1252,-3.119,-3.119,-3.119,-3.119,-3.119,-3.119,-3.119,-3.119,-3.119,-3.119,-3.119,-3.119,-3.119,-3.119,-3.119,-3.119,-3.119,-3.119,-3.1171,-3.1035,-3.0895,-3.0749,-3.0468,-3.0241,-2.9968,-2.9639,-2.9454,-2.9182,-2.8756,-2.8479,-2.8262,-2.8073,-2.7875,-2.7765,-2.7765,-2.765,-2.76,-2.76,-2.76,-2.76,-2.76,-2.76,-2.76,-2.76,-2.76,-2.76,-2.76,-2.76,-2.76,-2.76,-2.76,-2.76,-2.76,-2.76,-2.76,-2.76,-2.76,-2.76,-3.451,-3.4835,-3.5087,-3.516,-3.553,-3.5783,-3.5429,0.0,0.0,0.0,0.0,-3.6827,-3.7219,-3.8392,0.0,0.0,0.0,0.0,0.0,0.0,0.0,0.0,0.0,0.0,0.0,0.0,0.0,0.0,0.0,0.0,0.0,-3.474,-3.4506,-3.4197,-3.4036,-3.3895,-3.3807,-3.3807,-3.3807,-3.3807,-3.3807,-3.3807,-3.3807,-3.3807,-3.378,0.0,0.0,0.0,-3.2939,-3.2555,-3.2197,-3.1839,-3.156,-3.1408,-3.1368,-3.1291,-3.1252,-3.1232,-3.121,-3.119,-3.119,-3.119,-3.119,-3.119,-3.119,-3.119,-3.119,-3.119,-3.119,-3.119,-3.119,-3.119,-3.1171,-3.1112,-3.1032,-3.0912,-3.0753,-3.0613,-3.0372,-3.0097,-2.9903,-2.9617,-2.9159,-2.8904,-2.8693,-2.8374,-2.8186,-2.8039,-2.7989,-2.7815,-2.7675,-2.7675,-2.765,-2.76,-2.76,-2.76,-2.76,-2.76,-2.76,-2.76,-2.76,-2.76,-2.76,-2.76,-2.76,-2.76,-2.76,-2.76,-2.76,-2.76,-2.76,-2.76,-3.4993,-3.5541,-3.6006,-3.6291,-3.6366,-3.6455,-3.6817,0.0,0.0,0.0,0.0,0.0,0.0,-3.9008,0.0,0.0,0.0,0.0,0.0,0.0,0.0,0.0,0.0,0.0,0.0,0.0,0.0,0.0,0.0,0.0,0.0,-3.484,-3.4572,-3.4293,-3.4099,-3.3934,-3.3807,-3.3807,-3.3807,-3.3807,-3.3807,-3.3807,-3.3807,-3.3807,-3.3807,0.0,0.0,0.0,-3.319,-3.277,-3.2456,-3.2214,-3.1839,-3.1673,-3.1615,-3.1408,-3.1315,-3.1276,-3.1213,-3.119,-3.119,-3.119,-3.119,-3.119,-3.119,-3.119,-3.119,-3.119,-3.119,-3.119,-3.119,-3.119,-3.119,-3.119,-3.1112,-3.1035,-3.1035,-3.0895,-3.0695,-3.0456,-3.0267,-3.0006,-2.956,-2.9341,-2.912,-2.8748,-2.8605,-2.8453,-2.8317,-2.8063,-2.789,-2.7865,-2.7725,-2.7625,-2.7625,-2.7625,-2.76,-2.76,-2.76,-2.76,-2.76,-2.76,-2.76,-2.76,-2.76,-2.76,-2.76,-2.76,-2.76,-2.76,-2.76,-2.76,-3.5212,-3.6625,-3.7673,-3.6829,-3.663,-3.6836,-3.7615,0.0,0.0,0.0,0.0,0.0,0.0,0.0,0.0,0.0,0.0,0.0,0.0,0.0,0.0,0.0,0.0,0.0,0.0,0.0,0.0,0.0,0.0,0.0,0.0,-3.4812,-3.4556,-3.4221,-3.4074,-3.3934,-3.3807,-3.3807,-3.3807,-3.3807,-3.3807,-3.3807,-3.3807,-3.3807,-3.3807,0.0,0.0,-3.3563,-3.3349,-3.3119,-3.2786,-3.2422,-3.2214,-3.1966,-3.1727,-3.1538,-3.1406,-3.1276,-3.1213,-3.119,-3.119,-3.119,-3.119,-3.119,-3.119,-3.119,-3.119,-3.119,-3.119,-3.119,-3.119,-3.119,-3.119,-3.119,-3.119,-3.1171,-3.1171,-3.1151,-3.1092,-3.0918,-3.0814,-3.0671,-3.0363,-3.007,-2.9793,-2.9639,-2.9234,-2.8951,-2.8811,-2.851,-2.8275,-2.8162,-2.7915,-2.7765,-2.7765,-2.7675,-2.76,-2.76,-2.76,-2.76,-2.76,-2.76,-2.76,-2.76,-2.76,-2.76,-2.76,-2.76,-2.76,-2.76,-2.76,-2.76,-3.5167,-3.6672,-3.8009,-3.7532,-3.781,-3.8194,-3.8176,0.0,0.0,0.0,0.0,0.0,0.0,0.0,0.0,0.0,0.0,0.0,0.0,0.0,0.0,0.0,0.0,0.0,0.0,0.0,0.0,0.0,0.0,0.0,0.0,0.0,-3.4509,-3.4209,-3.4036,-3.3895,-3.3807,-3.3807,-3.3807,-3.3807,-3.3807,-3.3807,-3.3807,-3.3807,-3.3807,-3.3807,0.0,-3.3633,-3.3509,-3.3331,-3.3088,-3.2802,-3.2554,-3.2352,-3.2144,-3.1838,-3.1635,-3.1578,-3.1521,-3.1519,-3.1519,-3.1519,-3.1519,-3.1519,-3.1445,-3.1426,-3.1387,-3.1274,-3.123,-3.119,-3.119,-3.119,-3.119,-3.119,-3.119,-3.119,-3.119,-3.119,-3.1151,-3.1015,-3.0992,-3.0875,-3.0651,-3.0468,-3.0305,-3.0097,-2.9777,-2.9528,-2.9393,-2.902,-2.8732,-2.859,-2.835,-2.8155,-2.8128,-2.8063,-2.7915,-2.7625,-2.76,-2.76,-2.76,-2.76,-2.76,-2.76,-2.76,-2.76,-2.76,-2.76,-2.76,-2.76,-2.76,-2.76,-3.495,-3.6402,-3.7878,-3.7803,-3.8461,-3.9142,-3.9126,-3.8186,0.0,0.0,0.0,0.0,0.0,0.0,0.0,0.0,0.0,0.0,0.0,0.0,0.0,0.0,0.0,0.0,0.0,0.0,0.0,0.0,0.0,0.0,0.0,0.0,-3.4461,-3.4185,-3.3998,-3.3855,-3.3807,-3.3807,-3.3807,-3.3807,-3.3807,-3.3807,-3.3807,-3.3807,-3.3807,-3.3807,-3.3753,-3.3684,-3.3619,-3.3506,-3.3345,-3.3147,-3.2894,-3.2687,-3.2456,-3.2109,-3.1912,-3.1856,-3.1856,-3.1856,-3.1856,-3.1856,-3.1856,-3.1838,-3.1711,-3.1674,-3.1618,-3.1449,-3.1368,-3.1288,-3.121,-3.119,-3.119,-3.119,-3.119,-3.119,-3.119,-3.119,-3.1171,-3.1072,-3.1052,-3.0995,-3.0834,-3.0794,-3.0695,-3.0477,-3.0288,-3.0113,-2.9984,-2.9572,-2.9257,-2.9136,-2.8818,-2.8598,-2.8477,-2.8477,-2.8293,-2.787,-2.7785,-2.775,-2.775,-2.7675,-2.765,-2.765,-2.7625,-2.76,-2.76,-2.76,-2.76,-2.76,-2.76,-2.76,-3.4499,-3.6055,-3.7481,-3.723,-3.7632,0.0,-4.1017,-3.9673,0.0,-4.0995,0.0,0.0,0.0,0.0,0.0,0.0,0.0,0.0,0.0,0.0,0.0,0.0,0.0,0.0,0.0,0.0,0.0,0.0,0.0,0.0,0.0,0.0,0.0,-3.4124,-3.3972,-3.3855,-3.3807,-3.3807,-3.3807,-3.3807,-3.3807,-3.3807,-3.3807,-3.3807,-3.3807,-3.3807,-3.3775,-3.3753,-3.3684,-3.3684,-3.3563,-3.3364,-3.3223,-3.288,-3.2473,-3.2249,-3.2091,-3.1985,-3.1985,-3.1985,-3.1985,-3.1985,-3.1985,-3.1985,-3.1967,-3.1931,-3.1875,-3.1783,-3.1671,-3.1504,-3.1269,-3.119,-3.119,-3.119,-3.119,-3.119,-3.119,-3.119,-3.119,-3.119,-3.119,-3.1171,-3.1171,-3.1055,-3.0975,-3.0955,-3.0773,-3.0609,-3.0485,-3.0156,-2.9881,-2.975,-2.9325,-2.8958,-2.8701,-2.8677,-2.8662,-2.8614,-2.8326,-2.8162,-2.8162,-2.7915,-2.779,-2.779,-2.765,-2.76,-2.76,-2.76,-2.76,-2.76,-2.76,-2.76,-3.4297,-3.5885,-3.7527,-3.7637,-3.8082,0.0,0.0,-3.9287,-3.9318,-4.05,-4.047,0.0,0.0,0.0,0.0,0.0,0.0,0.0,0.0,0.0,0.0,0.0,0.0,0.0,0.0,0.0,0.0,0.0,0.0,0.0,0.0,0.0,0.0,-3.3985,-3.3881,-3.3834,-3.3807,-3.3807,-3.3807,-3.3807,-3.3807,-3.3807,-3.3807,-3.3807,-3.3807,-3.3807,-3.3807,-3.3793,-3.3766,-3.3766,-3.3684,-3.3577,-3.339,-3.3162,-3.2912,-3.28,-3.2736,-3.2685,-3.2685,-3.2685,-3.2685,-3.2685,-3.2685,-3.2651,-3.2535,-3.2468,-3.2419,-3.2179,-3.2038,-3.1858,-3.1389,-3.1254,-3.1235,-3.121,-3.119,-3.119,-3.119,-3.119,-3.119,-3.119,-3.119,-3.119,-3.119,-3.1151,-3.1131,-3.1131,-3.0975,-3.0875,-3.0814,-3.0593,-3.0384,-3.0258,-2.9962,-2.9744,-2.9633,-2.9633,-2.9633,-2.9633,-2.8935,-2.8479,-2.8383,-2.8286,-2.818,-2.8063,-2.8014,-2.7875,-2.7715,-2.7715,-2.7675,-2.76,-2.76,-2.76,-3.4759,-3.6315,-3.7936,-3.8159,0.0,0.0,-3.8669,-3.9085,-3.9716,-4.0472,-4.0414,0.0,0.0,0.0,0.0,0.0,0.0,0.0,0.0,0.0,0.0,0.0,0.0,0.0,0.0,0.0,0.0,0.0,0.0,0.0,0.0,0.0,0.0,0.0,-3.3829,-3.3807,-3.3807,-3.3807,-3.3807,-3.3807,-3.3807,-3.3807,-3.3807,-3.3807,-3.3807,-3.3807,-3.3807,-3.3807,-3.3807,-3.3807,-3.3766,-3.3684,-3.3491,-3.3375,-3.3298,-3.3226,-3.3196,-3.3196,-3.3196,-3.3196,-3.3196,-3.3196,-3.3196,-3.3162,-3.3019,-3.2972,-3.2876,-3.2587,-3.2437,-3.2231,-3.1712,-3.1468,-3.1332,-3.1252,-3.123,-3.119,-3.119,-3.119,-3.119,-3.119,-3.119,-3.119,-3.119,-3.119,-3.119,-3.119,-3.1131,-3.1055,-3.1055,-3.0895,-3.0733,-3.0589,-3.0443,-3.0338,-3.0295,-3.0295,-3.0295,-3.0295,-2.9661,-2.915,-2.8935,-2.8772,-2.8598,-2.8414,-2.8332,-2.8137,-2.7855,-2.7815,-2.774,-2.76,-2.76,-2.76,-3.5959,-3.7414,-3.8699,0.0,0.0,0.0,-3.9315,-3.9304,-3.9777,-4.145,0.0,-4.0496,0.0,0.0,0.0,0.0,0.0,0.0,0.0,0.0,0.0,0.0,0.0,0.0,0.0,0.0,0.0,0.0,0.0,0.0,0.0,0.0,0.0,0.0,-3.3829,-3.3807,-3.3807,-3.3807,-3.3807,-3.3807,-3.3807,-3.3807,-3.3807,-3.3807,-3.3807,-3.3807,-3.3807,-3.3807,-3.3807,-3.3807,-3.3766,-3.3684,-3.3549,-3.3491,-3.3477,-3.3422,-3.3393,-3.3393,-3.3393,-3.3393,-3.3393,-3.3393,-3.3393,-3.3393,-3.3393,-3.3316,-3.3175,-3.3037,-3.2864,-3.2636,-3.2301,-3.1857,-3.1462,-3.1315,-3.1252,-3.119,-3.119,-3.119,-3.119,-3.119,-3.119,-3.119,-3.119,-3.119,-3.119,-3.119,-3.119,-3.119,-3.119,-3.1075,-3.0935,-3.0733,-3.0692,-3.0651,-3.0526,-3.0506,-3.0506,-3.0506,-3.0506,-3.0284,-2.9815,-2.9348,-2.9044,-2.8904,-2.8573,-2.829,-2.8005,-2.788,-2.774,-2.7625,-2.7625,-2.7625,-3.5641,-3.6696,0.0,0.0,0.0,0.0,0.0,-4.0103,0.0,0.0,0.0,0.0,0.0,0.0,0.0,0.0,0.0,0.0,0.0,0.0,0.0,0.0,0.0,0.0,0.0,0.0,0.0,0.0,0.0,0.0,0.0,0.0,0.0,0.0,-3.382,-3.3807,-3.3807,-3.3807,-3.3807,-3.3807,-3.3807,-3.3807,-3.3807,-3.3807,-3.3807,-3.3807,-3.3807,-3.3807,-3.3807,-3.3807,-3.3793,-3.3766,-3.3726,-3.3712,-3.3712,-3.3684,-3.3671,-3.3671,-3.3671,-3.3671,-3.3671,-3.3671,-3.3671,-3.3671,-3.3633,-3.3587,-3.353,-3.3386,-3.3208,-3.3006,-3.2752,-3.2387,-3.1966,-3.154,-3.1349,-3.1271,-3.121,-3.119,-3.119,-3.119,-3.119,-3.119,-3.119,-3.119,-3.119,-3.119,-3.119,-3.119,-3.119,-3.1171,-3.1112,-3.1052,-3.1052,-3.1052,-3.1012,-3.0975,-3.0975,-3.0975,-3.0895,-3.0654,-3.0182,-2.9984,-2.9722,-2.9409,-2.9152,-2.8818,-2.835,-2.8259,-2.8137,-2.8024,-2.8024,-2.8063,-3.6872,-3.7734,0.0,0.0,0.0,0.0,0.0,0.0,0.0,0.0,0.0,0.0,0.0,0.0,0.0,0.0,0.0,0.0,0.0,0.0,0.0,0.0,0.0,0.0,0.0,0.0,0.0,0.0,0.0,0.0,0.0,0.0,0.0,0.0,-3.3807,-3.3807,-3.3807,-3.3807,-3.3807,-3.3807,-3.3807,-3.3807,-3.3807,-3.3807,-3.3807,-3.3807,-3.3807,-3.3807,-3.3807,-3.3807,-3.3807,-3.3807,-3.3807,-3.3807,-3.3807,-3.3807,-3.3807,-3.3807,-3.3807,-3.3807,-3.3807,-3.3807,-3.3807,-3.3775,-3.3753,-3.3739,-3.3639,-3.3222,-3.3237,-3.3222,-3.2691,-3.2569,-3.242,-3.1819,-3.154,-3.1389,-3.1271,-3.1232,-3.1232,-3.121,-3.119,-3.119,-3.119,-3.119,-3.119,-3.119,-3.119,-3.119,-3.119,-3.119,-3.119,-3.119,-3.119,-3.119,-3.119,-3.119,-3.119,-3.119,-3.1131,-3.0938,-3.0679,-3.0447,-3.0172,-2.9881,-2.9605,-2.9259,-2.8811,-2.8677,-2.8534,-2.8398,-2.8398,-2.8398,-3.8943,0.0,0.0,0.0,0.0,0.0,0.0,0.0,0.0,0.0,0.0,0.0,0.0,0.0,0.0,0.0,0.0,0.0,0.0,0.0,0.0,0.0,0.0,0.0,0.0,0.0,0.0,0.0,0.0,0.0,0.0,0.0,0.0,0.0,-3.3807,-3.3807,-3.3807,-3.3807,-3.3807,0.0,-3.3807,-3.3807,-3.3807,-3.3807,-3.3807,-3.3807,-3.3807,-3.3807,-3.3807,-3.3807,-3.3807,-3.3807,-3.3807,-3.3807,-3.3807,-3.3807,-3.3807,-3.3807,-3.3807,-3.3807,-3.3807,-3.3807,-3.3807,-3.3807,-3.3807,-3.3752,-3.3537,-3.2724,-3.2931,-3.318,-3.2264,-3.2481,-3.2757,-3.2162,-3.1821,-3.1598,-3.1391,-3.1315,-3.1293,-3.1213,-3.121,-3.119,-3.119,-3.119,-3.119,-3.119,-3.119,-3.119,-3.119,-3.119,-3.119,-3.119,-3.119,-3.119,-3.119,-3.119,-3.119,-3.119,-3.119,-3.119,-3.119,-3.0773,-3.0489,-3.0351,-2.9951,-2.9614,-2.9328,-2.9082,-2.8881,-2.8756,-2.8756,-2.8701,0.0,-3.8777,0.0,0.0,0.0,0.0,0.0,0.0,0.0,0.0,0.0,0.0,0.0,0.0,0.0,0.0,0.0,0.0,0.0,0.0,0.0,0.0,0.0,0.0,0.0,0.0,0.0,0.0,0.0,0.0,0.0,0.0,0.0,-3.382,-3.3807,-3.3807,-3.3807,-3.3807,-3.3807,0.0,-3.3807,-3.3807,-3.3807,-3.3807,-3.3807,-3.3807,-3.3807,-3.3807,-3.3807,-3.3807,-3.3807,-3.3807,-3.3807,-3.3807,-3.3807,-3.3807,-3.3807,-3.3807,-3.3807,-3.3807,-3.3807,-3.3807,-3.3807,-3.3807,-3.3807,-3.3366,-3.2821,-3.2643,-3.2206,-3.1871,-3.2206,-3.2299,-3.2364,-3.2688,-3.2403,-3.2002,-3.1746,-3.1576,-3.1423,-3.1293,-3.1232,-3.119,-3.119,-3.119,-3.119,-3.119,-3.119,-3.119,-3.119,-3.119,-3.119,-3.119,-3.119,-3.119,-3.119,-3.119,-3.119,-3.119,-3.119,-3.119,-3.119,-3.0995,-3.0797,-3.0613,-3.0274,-2.993,-2.9614,-2.935,-2.9198,-2.9175,-2.9175,-2.9152,0.0,0.0,0.0,0.0,0.0,0.0,0.0,0.0,0.0,0.0,0.0,0.0,0.0,0.0,0.0,0.0,0.0,0.0,0.0,0.0,0.0,0.0,0.0,0.0,0.0,0.0,0.0,0.0,0.0,0.0,0.0,-3.3363,-3.3438,-3.322,-3.3605,-3.3807,-3.3807,-3.3807,-3.3807,-3.3807,-3.3807,-3.3807,-3.3807,-3.3807,-3.3807,-3.3807,-3.3807,-3.3807,-3.3807,-3.3807,-3.3815,-3.386,-3.386,-3.3881,-3.3947,-3.3947,-3.3947,-3.3947,-3.3947,-3.3895,-3.386,-3.386,-3.3834,-3.3733,-3.3348,-3.2931,-3.2436,-3.1665,-3.1396,-3.1431,-3.1793,-3.2078,-3.2442,-3.3102,-3.2814,-3.2369,-3.2055,-3.1838,-3.1653,-3.1485,-3.1332,-3.1252,-3.1252,-3.123,-3.119,-3.119,-3.119,-3.119,-3.119,-3.119,-3.119,-3.119,-3.119,-3.119,-3.119,-3.119,-3.119,-3.119,-3.119,-3.119,-3.119,-3.1131,-3.0995,-3.081,-3.0506,-3.0231,-3.0033,-2.982,-2.971,-2.9643,-2.9643,-2.9554,0.0,0.0,0.0,0.0,0.0,0.0,0.0,0.0,0.0,0.0,0.0,0.0,0.0,0.0,0.0,0.0,0.0,0.0,0.0,0.0,0.0,0.0,0.0,0.0,0.0,0.0,0.0,0.0,0.0,0.0,-3.1838,-3.2332,-3.2582,-3.2394,-3.3036,-3.3385,-3.3385,-3.3385,-3.3385,-3.3385,-3.3398,-3.3398,-3.3398,-3.3424,-3.359,-3.382,-3.382,-3.3815,-3.3842,-3.3842,-3.3881,-3.3947,-3.3959,-3.4036,-3.4136,-3.4148,-3.4161,-3.4148,-3.4136,-3.4049,-3.3947,-3.3921,-3.3868,-3.3655,-3.2852,-3.2491,-3.2087,-3.0613,-3.0687,-3.1207,-3.1303,-3.1918,-3.2684,-3.3381,-3.319,-3.2766,-3.2403,-3.2162,-3.193,-3.1747,-3.1504,-3.1332,-3.1295,-3.1252,-3.119,-3.119,-3.119,-3.119,-3.119,-3.119,-3.119,-3.119,-3.119,-3.119,-3.119,-3.119,-3.119,-3.119,-3.119,-3.119,-3.119,-3.119,-3.1112,-3.0932,-3.0671,-3.0485,-3.0396,-3.0269,-3.0146,-3.0038,-3.0017,-2.9858,0.0,0.0,0.0,0.0,0.0,0.0,0.0,0.0,0.0,0.0,0.0,0.0,0.0,0.0,0.0,0.0,0.0,0.0,0.0,0.0,0.0,0.0,0.0,0.0,0.0,0.0,0.0,0.0,0.0,0.0,-3.1675,-3.1678,-3.1648,-3.1562,-3.1672,-3.1727,-3.1727,-3.1727,-3.1727,-3.1727,-3.1783,-3.1808,-3.1808,-3.1936,-3.2681,-3.3881,-3.3881,-3.3947,-3.4061,-3.4061,-3.4099,-3.4173,-3.4221,-3.4257,-3.4281,-3.434,-3.4351,-3.434,-3.4293,-3.4221,-3.4136,-3.4023,-3.3934,-3.3721,-3.2865,-3.2118,-3.1366,-3.0467,-3.0283,-3.0522,-3.1219,-3.1977,-3.2763,-3.3502,-3.3573,-3.3371,-3.2975,-3.2639,-3.237,-3.2162,-3.1765,-3.1443,-3.1315,-3.1252,-3.119,-3.119,-3.119,-3.119,-3.119,-3.119,-3.119,-3.119,-3.119,-3.119,-3.119,-3.119,-3.119,-3.119,-3.119,-3.119,-3.119,-3.119,-3.1131,-3.0995,-3.0773,-3.0589,-3.0396,-3.0269,-3.0189,-3.0167,-3.0038,-2.9913,-3.9879,0.0,0.0,0.0,0.0,0.0,0.0,0.0,0.0,0.0,0.0,0.0,0.0,0.0,0.0,0.0,0.0,0.0,0.0,0.0,0.0,0.0,0.0,0.0,0.0,0.0,0.0,0.0,0.0,-3.173,-3.0282,-3.0604,-3.0796,-3.0723,-3.1158,-3.1397,-3.1397,-3.1397,-3.1427,-3.1452,-3.1513,-3.1585,-3.1626,-3.1714,-3.208,-3.2668,-3.2711,-3.303,-3.3528,-3.3545,-3.3888,-3.4439,-3.4461,-3.4531,-3.4649,-3.467,-3.468,-3.467,-3.4599,-3.4498,-3.434,-3.4209,-3.4074,-3.3707,-3.2378,-3.1715,-3.1231,-3.043,-3.021,-3.0485,-3.1751,-3.2326,-3.2803,-3.3565,-3.3698,-3.3601,-3.3426,-3.3068,-3.2672,-3.2283,-3.1948,-3.1671,-3.1445,-3.1329,-3.1252,-3.121,-3.119,-3.119,-3.119,-3.119,-3.119,-3.119,-3.119,-3.119,-3.119,-3.119,-3.119,-3.119,-3.119,-3.119,-3.119,-3.119,-3.1151,-3.0995,-3.0915,-3.0794,-3.0688,-3.0609,-3.0547,-3.0485,-3.0422,-3.0279,0.0,0.0,0.0,0.0,0.0,0.0,0.0,0.0,0.0,0.0,0.0,0.0,0.0,0.0,0.0,0.0,0.0,0.0,0.0,0.0,0.0,0.0,0.0,0.0,0.0,0.0,0.0,0.0,0.0,-3.0969,-2.9453,-2.9747,-2.9945,-2.9898,-3.0485,-3.0797,-3.0797,-3.0821,-3.0858,-3.0917,-3.0999,-3.1084,-3.1176,-3.1243,-3.1272,-3.1264,-3.1696,-3.2272,-3.2916,-3.2922,-3.3373,-3.4059,-3.4098,-3.431,-3.466,-3.465,-3.4793,-3.4973,-3.4889,-3.4752,-3.4583,-3.4439,-3.4096,-3.3488,-3.1979,-3.1342,-3.0987,-3.0356,-3.0356,-3.0834,-3.2234,-3.2748,-3.3073,-3.366,-3.3766,-3.3712,-3.3657,-3.3324,-3.2928,-3.2471,-3.2162,-3.1893,-3.1614,-3.1408,-3.1274,-3.121,-3.119,-3.119,-3.119,-3.119,-3.119,-3.119,-3.119,-3.119,-3.119,-3.119,-3.119,-3.119,-3.119,-3.119,-3.119,-3.119,-3.1151,-3.1055,-3.1055,-3.0995,-3.0892,-3.0892,-3.0851,-3.0753,-3.0529,-3.0306,0.0,0.0,0.0,0.0,0.0,0.0,0.0,0.0,0.0,0.0,0.0,0.0,0.0,0.0,0.0,0.0,0.0,0.0,0.0,0.0,0.0,0.0,0.0,0.0,0.0,0.0,0.0,0.0,0.0,-3.1102,-3.0191,-2.9457,-2.906,-2.906,-2.9097,-2.9115,-2.9115,-2.9184,-2.9252,-2.9318,-2.945,-2.9573,-2.97,-2.9848,-2.9944,-3.0074,-3.1477,-3.2212,-3.2447,-3.2447,-3.251,-3.2615,-3.2684,-3.3223,-3.3955,-3.3958,-3.4478,-3.5157,-3.511,-3.4992,-3.486,-3.4647,-3.3937,-3.2955,-3.1908,-3.1008,-3.0329,-3.0222,-3.0742,-3.1531,-3.2381,-3.3183,-3.3752,-3.3788,-3.3807,-3.3739,-3.3549,-3.3342,-3.3129,-3.2916,-3.2506,-3.2091,-3.1819,-3.1504,-3.1274,-3.121,-3.119,-3.119,-3.119,-3.119,-3.119,-3.119,-3.119,-3.119,-3.119,-3.119,-3.119,-3.119,-3.119,-3.119,-3.119,-3.119,-3.119,-3.119,-3.119,-3.1092,-3.0892,-3.0892,-3.0892,-3.0875,-3.0049,-2.9636,0.0,0.0,0.0,0.0,0.0,0.0,0.0,0.0,0.0,0.0,0.0,0.0,0.0,0.0,0.0,0.0,0.0,0.0,0.0,0.0,0.0,0.0,0.0,0.0,0.0,0.0,0.0,0.0,0.0,0.0,-3.0246,-2.9445,-2.9005,-2.9005,-2.9005,-2.9028,-2.9055,-2.9123,-2.9222,-2.933,-2.9464,-2.9626,-2.9798,-2.9932,-3.0034,-3.0128,-3.0651,-3.1217,-3.1765,-3.1751,-3.2103,-3.2634,-3.2649,-3.2916,-3.3255,-3.3269,-3.3468,-3.371,-3.3651,-3.3538,-3.3394,-3.3242,-3.285,-3.227,-3.1269,-3.068,-3.0462,-3.0906,-3.1219,-3.1696,-3.3036,-3.3587,-3.3807,-3.3807,-3.3807,-3.378,-3.3712,-3.3573,-3.3368,-3.3129,-3.2848,-3.2539,-3.2179,-3.1948,-3.1728,-3.1502,-3.1464,-3.1408,-3.1274,-3.1254,-3.1252,-3.121,-3.119,-3.119,-3.119,-3.119,-3.119,-3.119,-3.119,-3.119,-3.119,-3.119,-3.119,-3.119,-3.119,-3.1151,-3.1092,-3.1092,-3.1092,-3.1075,-3.0292,-2.9936,-3.7138,0.0,0.0,0.0,0.0,0.0,0.0,0.0,0.0,0.0,0.0,0.0,0.0,0.0,0.0,0.0,0.0,0.0,0.0,0.0,0.0,0.0,0.0,0.0,0.0,0.0,0.0,0.0,0.0,0.0,-3.0632,-2.9574,-2.9005,-2.9005,-2.9028,-2.9074,-2.9123,-2.9222,-2.933,-2.9474,-2.9626,-2.9786,-2.9961,-3.0106,-3.0199,-3.0228,-3.026,-3.056,-3.1021,-3.103,-3.1383,-3.1928,-3.1928,-3.2153,-3.2487,-3.2487,-3.2667,-3.2891,-3.2851,-3.2761,-3.2657,-3.252,-3.2164,-3.1665,-3.0895,-3.0567,-3.0586,-3.1292,-3.1654,-3.21,-3.344,-3.3807,-3.3807,-3.3807,-3.3807,-3.3807,-3.3807,-3.3712,-3.3559,-3.3339,-3.3117,-3.285,-3.2471,-3.2249,-3.202,-3.171,-3.1617,-3.1542,-3.1315,-3.1295,-3.1274,-3.121,-3.119,-3.119,-3.119,-3.119,-3.119,-3.119,-3.119,-3.119,-3.119,-3.119,-3.119,-3.119,-3.119,-3.119,-3.119,-3.119,-3.119,-3.1173,-3.0192,-2.9448,0.0,0.0,0.0,0.0,0.0,0.0,0.0,0.0,0.0,0.0,0.0,0.0,0.0,0.0,0.0,0.0,0.0,0.0,0.0,0.0,0.0,0.0,0.0,0.0,0.0,0.0,0.0,0.0,0.0,-3.1433,-3.1397,-2.9879,-2.9005,-2.9005,-2.9074,-2.9123,-2.92,-2.933,-2.9474,-2.9617,-2.9822,-2.9988,-3.0109,-3.0246,-3.0292,-3.031,-3.0373,-3.0348,-3.031,-3.031,-3.0342,-3.0404,-3.0404,-3.0923,-3.166,-3.166,-3.216,-3.2827,-3.2833,-3.2774,-3.2706,-3.2562,-3.1928,-3.1151,-3.0894,-3.0675,-3.0687,-3.1353,-3.2046,-3.2784,-3.3587,-3.3807,-3.3807,-3.3807,-3.3807,-3.3807,-3.3807,-3.3753,-3.3657,-3.352,-3.3283,-3.3008,-3.2688,-3.2403,-3.2126,-3.1856,-3.1691,-3.1542,-3.1334,-3.1315,-3.1274,-3.121,-3.119,-3.119,-3.119,-3.119,-3.119,-3.119,-3.119,-3.119,-3.119,-3.119,-3.119,-3.119,-3.119,-3.119,-3.119,-3.119,-3.119,-3.1123,-2.9653,-2.8147,-3.5981,0.0,0.0,0.0,0.0,0.0,0.0,0.0,0.0,0.0,0.0,0.0,0.0,0.0,0.0,0.0,0.0,0.0,0.0,0.0,0.0,0.0,0.0,0.0,0.0,0.0,0.0,0.0,-3.2865,-3.2008,-3.1433,-2.9879,-2.9005,-2.9005,-2.9074,-2.9167,-2.927,-2.9443,-2.9636,-2.9822,-2.9969,-3.0116,-3.0246,-3.0286,-3.0329,-3.0373,-3.0379,-3.0398,-3.0373,-3.0373,-3.0379,-3.0404,-3.0404,-3.0558,-3.075,-3.075,-3.0904,-3.1096,-3.1084,-3.1046,-3.0989,-3.0949,-3.1085,-3.1241,-3.107,-3.1248,-3.166,-3.2327,-3.2557,-3.2784,-3.3587,-3.3807,-3.3807,-3.3807,-3.3807,-3.3807,-3.3807,-3.3793,-3.3753,-3.3657,-3.3563,-3.3371,-3.3083,-3.2896,-3.267,-3.2353,-3.2161,-3.1912,-3.156,-3.1464,-3.1385,-3.121,-3.119,-3.119,-3.119,-3.119,-3.119,-3.119,-3.119,-3.119,-3.119,-3.119,-3.119,-3.119,-3.119,-3.119,-3.119,-3.119,-3.092,-3.0378,-2.8856,-2.7621,-3.6558,-3.6988,-3.743,0.0,0.0,0.0,0.0,0.0,0.0,0.0,0.0,0.0,0.0,0.0,0.0,0.0,0.0,0.0,0.0,0.0,0.0,0.0,0.0,0.0,0.0,0.0,0.0,-3.3825,-3.3081,-3.2182,-3.1083,-2.983,-2.913,-2.9127,-2.9214,-2.933,-2.9425,-2.9617,-2.9815,-2.9996,-3.0123,-3.0221,-3.0299,-3.0329,-3.0348,-3.0404,-3.0404,-3.0404,-3.0404,-3.0404,-3.0404,-3.0404,-3.0404,-3.0404,-3.0404,-3.0404,-3.0404,-3.0404,-3.0404,-3.0373,-3.0393,-3.0727,-3.1082,-3.1417,-3.159,-3.2033,-3.2544,-3.2825,-3.3006,-3.322,-3.3678,-3.3807,-3.3807,-3.3807,-3.3807,-3.3807,-3.3807,-3.3807,-3.378,-3.3712,-3.3671,-3.3577,-3.3313,-3.3132,-3.2898,-3.254,-3.2266,-3.1948,-3.1596,-3.1481,-3.1349,-3.121,-3.119,-3.119,-3.119,-3.119,-3.119,-3.119,-3.119,-3.119,-3.119,-3.119,-3.119,-3.119,-3.119,-3.119,-3.119,-3.119,-3.0649,-2.96,-2.8365,-2.7401,-3.7815,-3.7507,-3.7142,-3.7719,-3.793,0.0,-3.9765,-3.9515,0.0,0.0,0.0,0.0,0.0,0.0,0.0,0.0,0.0,0.0,0.0,0.0,0.0,0.0,0.0,0.0,0.0,-3.5269,-3.4761,-3.399,-3.3175,-3.2115,-3.0709,-2.9879,-2.941,-2.9314,-2.9444,-2.9541,-2.9617,-2.9803,-2.9977,-3.0116,-3.0246,-3.0299,-3.031,-3.0373,-3.0404,-3.0404,-3.0404,-3.0404,-3.0404,-3.0404,-3.0404,-3.0404,-3.0404,-3.0404,-3.0404,-3.0404,-3.0404,-3.0404,-3.0404,-3.0404,-3.0533,-3.1341,-3.1629,-3.1754,-3.2368,-3.2978,-3.3382,-3.3096,-3.3381,-3.3807,-3.3807,-3.3807,-3.3807,-3.3807,-3.3807,-3.3807,-3.3807,-3.3807,-3.3793,-3.3726,-3.3712,-3.3643,-3.3452,-3.3211,-3.293,-3.259,-3.2214,-3.1875,-3.1595,-3.1445,-3.1332,-3.1249,-3.123,-3.121,-3.121,-3.121,-3.119,-3.119,-3.119,-3.119,-3.119,-3.119,-3.119,-3.119,-3.119,-3.119,-3.119,-3.1038,-3.0296,-2.8976,-2.8095,-2.7317,-3.8142,-3.8392,-3.8488,-3.7257,0.0,0.0,-3.7526,-3.7315,0.0,0.0,0.0,0.0,0.0,0.0,0.0,0.0,0.0,0.0,0.0,0.0,0.0,0.0,0.0,0.0,0.0,-3.5492,-3.4945,-3.4784,-3.3526,-3.2416,-3.1589,-3.0775,-3.0064,-2.9481,-2.9541,-2.9645,-2.9754,-2.9902,-3.0049,-3.0174,-3.026,-3.0329,-3.0379,-3.0379,-3.0404,-3.0404,-3.0404,-3.0404,-3.0404,-3.0404,-3.0404,-3.0404,-3.0404,-3.0404,-3.0404,-3.0404,-3.0404,-3.0404,-3.0404,-3.0404,-3.0538,-3.1404,-3.2045,-3.2603,-3.3372,-3.3942,-3.4263,-3.3821,-3.3758,-3.3807,-3.3807,-3.3807,-3.3807,-3.3807,-3.3807,-3.3807,-3.3807,-3.3807,-3.3807,-3.3793,-3.378,-3.3739,-3.3591,-3.3419,-3.3196,-3.2868,-3.2574,-3.2284,-3.2019,-3.1819,-3.1653,-3.1523,-3.137,-3.1293,-3.1293,-3.1232,-3.119,-3.119,-3.119,-3.119,-3.119,-3.119,-3.119,-3.119,-3.119,-3.119,-3.119,-3.0025,-2.9281,-2.8976,-2.7571,-2.6843,-3.9265,-3.9265,-3.9092,-3.82,0.0,0.0,0.0,0.0,-3.6942,0.0,0.0,0.0,0.0,0.0,0.0,0.0,0.0,0.0,0.0,0.0,0.0,0.0,0.0,0.0,0.0,-3.653,-3.5942,-3.521,-3.4191,-3.3313,-3.2676,-3.1541,-3.0744,-3.0401,-3.0047,-2.9897,-3.0007,-3.0109,-3.0181,-3.0248,-3.0323,-3.0373,-3.0404,-3.0404,-3.0404,-3.0404,-3.0402,-3.0408,-3.0389,-3.045,-3.0425,-3.0408,-3.039,-3.0404,-3.0404,-3.0404,-3.0404,-3.0404,-3.0404,-3.0404,-3.0615,-3.1891,-3.2532,-3.3032,-3.4189,-3.4538,-3.4473,-3.4099,-3.3921,-3.3842,-3.382,-3.3807,-3.3807,-3.3807,-3.3807,-3.3807,-3.3807,-3.3807,-3.3807,-3.3807,-3.3807,-3.3766,-3.3615,-3.3495,-3.3289,-3.2948,-3.2673,-3.2422,-3.2179,-3.1966,-3.1819,-3.1709,-3.1521,-3.137,-3.1315,-3.1232,-3.119,-3.119,-3.119,-3.119,-3.119,-3.119,-3.119,-3.119,-3.119,-3.119,-3.119,-3.0091,-2.9347,-2.8976,-2.7807,-2.7046,0.0,0.0,0.0,0.0,0.0,-3.8123,0.0,0.0,0.0,-3.7411,0.0,0.0,0.0,0.0,0.0,0.0,0.0,0.0,0.0,0.0,0.0,0.0,0.0,0.0,0.0,-3.7614,-3.6969,-3.5706,-3.5013,-3.4378,-3.3818,-3.2454,-3.158,-3.1337,-3.07,-3.0317,-3.0199,-3.0266,-3.0299,-3.031,-3.0373,-3.0404,-3.0404,-3.0404,-3.0404,-3.0396,-3.0411,-3.0428,-3.0414,-3.0479,-3.0474,-3.0422,-3.0408,-3.041,-3.0404,-3.0404,-3.0404,-3.0404,-3.0404,-3.0404,-3.0673,-3.2352,-3.3109,-3.3597,-3.4808,-3.486,-3.4461,-3.4197,-3.4011,-3.3881,-3.382,-3.3807,-3.3807,-3.3807,-3.3807,-3.3807,-3.3807,-3.3807,-3.3807,-3.3807,-3.3807,-3.3766,-3.3629,-3.352,-3.3349,-3.3042,-3.2787,-3.2557,-3.237,-3.2144,-3.1984,-3.1892,-3.167,-3.1481,-3.1351,-3.1271,-3.123,-3.123,-3.1269,-3.1269,-3.1249,-3.123,-3.123,-3.123,-3.121,-3.119,-3.119,-3.0598,-2.9922,-2.9196,-2.8229,-2.7486,0.0,0.0,0.0,0.0,-3.8642,0.0,0.0,0.0,-3.6519,-3.5904,0.0,0.0,0.0,0.0,0.0,0.0,0.0,0.0,0.0,0.0,0.0,0.0,0.0,0.0,0.0,0.0,-3.7271,-3.675,-3.5929,-3.5277,-3.4848,-3.3991,-3.2861,-3.1427,-3.136,-3.0972,-3.0207,-3.0267,-3.0304,-3.031,-3.0373,-3.0404,-3.0404,-3.0404,-3.0402,-3.0392,-3.0463,-3.049,-3.0486,-3.051,-3.05,-3.0474,-3.0422,-3.0389,-3.0404,-3.0404,-3.0404,-3.0404,-3.0404,-3.0404,-3.0673,-3.2352,-3.3855,-3.502,-3.5025,-3.4821,-3.4528,-3.4257,-3.4049,-3.3881,-3.382,-3.3807,-3.3807,-3.3807,-3.3807,-3.3807,-3.3807,-3.3807,-3.3807,-3.3807,-3.3807,-3.378,-3.3698,-3.3633,-3.352,-3.3364,-3.3165,-3.2977,-3.2836,-3.259,-3.2353,-3.2161,-3.1819,-3.1559,-3.1481,-3.1351,-3.1276,-3.1276,-3.1466,-3.1521,-3.1479,-3.1349,-3.1276,-3.1276,-3.1232,-3.119,-3.119,-3.1106,-3.07,-2.9939,-2.8483,-2.7756,0.0,0.0,0.0,0.0,0.0,0.0,-3.6442,0.0,-3.5904,0.0,0.0,0.0,0.0,0.0,0.0,0.0,0.0,0.0,0.0,0.0,0.0,0.0,0.0,0.0,0.0,0.0,0.0,0.0,0.0,-3.7042,-3.5938,-3.5146,-3.4205,-3.3062,-3.2109,-3.1444,-3.1072,-3.0605,-3.0367,-3.0367,-3.0398,-3.0404,-3.0404,-3.0402,-3.0411,-3.0469,-3.053,-3.0564,-3.0563,-3.06,-3.0586,-3.055,-3.0481,-3.0422,-3.0404,-3.0404,-3.0404,-3.0404,-3.0404,-3.0404,-3.0673,-3.2352,-3.4017,-3.5331,-3.5115,-3.4936,-3.4691,-3.4363,-3.4136,-3.3985,-3.3847,-3.3807,-3.3807,-3.3807,-3.3807,-3.3807,-3.3807,-3.3807,-3.3807,-3.3807,-3.3807,-3.3793,-3.3766,-3.3698,-3.3601,-3.3481,-3.3345,-3.3211,-3.3024,-3.282,-3.2591,-3.2405,-3.209,-3.1856,-3.1746,-3.1635,-3.1598,-3.1656,-3.173,-3.1747,-3.167,-3.1519,-3.1406,-3.1406,-3.131,-3.1329,-3.1426,-3.1426,-3.131,-3.1025,-2.9304,-2.8247,-3.9804,0.0,0.0,0.0,0.0,0.0,0.0,0.0,0.0,0.0,0.0,0.0,0.0,0.0,0.0,0.0,0.0,0.0,0.0,0.0,0.0,0.0,0.0,0.0,0.0,0.0,0.0,0.0,0.0,0.0,-3.6987,-3.617,-3.5273,-3.4225,-3.2795,-3.1929,-3.1698,-3.0846,-3.0404,-3.0404,-3.039,-3.0396,-3.0396,-3.0422,-3.046,-3.052,-3.0595,-3.0622,-3.0622,-3.0672,-3.0653,-3.0589,-3.0525,-3.0469,-3.0396,-3.0404,-3.0404,-3.0404,-3.0404,-3.0558,-3.0981,-3.2429,-3.3865,-3.5057,-3.5122,-3.5046,-3.4821,-3.4476,-3.4245,-3.4061,-3.3868,-3.3802,-3.3807,-3.3807,-3.3807,-3.3807,-3.3807,-3.3807,-3.3807,-3.3807,-3.3807,-3.3807,-3.3807,-3.3766,-3.3684,-3.3605,-3.3506,-3.3408,-3.3223,-3.2995,-3.2789,-3.259,-3.2301,-3.2109,-3.2002,-3.1948,-3.1984,-3.2109,-3.2073,-3.2037,-3.1983,-3.1781,-3.1651,-3.1614,-3.1523,-3.1543,-3.1691,-3.1693,-3.1765,-3.1804,-2.9982,-2.8814,0.0,0.0,0.0,-3.7199,0.0,0.0,0.0,0.0,-3.5712,0.0,0.0,0.0,0.0,0.0,0.0,-3.6692,0.0,0.0,0.0,0.0,0.0,0.0,0.0,0.0,0.0,0.0,0.0,0.0,0.0,0.0,-3.7985,-3.7125,-3.5895,-3.4244,-3.3333,-3.2487,-3.1718,-3.0846,-3.0404,-3.0404,-3.04,-3.0392,-3.0398,-3.0471,-3.0525,-3.06,-3.0665,-3.0711,-3.0697,-3.0701,-3.0651,-3.0591,-3.0535,-3.046,-3.0411,-3.0396,-3.0404,-3.0404,-3.0404,-3.0942,-3.1795,-3.2622,-3.3468,-3.4285,-3.5059,-3.5117,-3.487,-3.4647,-3.4351,-3.4074,-3.3934,-3.3842,-3.3807,-3.3807,-3.3807,-3.3807,-3.3807,-3.3807,-3.3807,-3.3807,-3.3807,-3.3807,-3.3807,-3.3807,-3.3807,-3.3793,-3.3671,-3.3577,-3.3509,-3.3196,-3.2916,-3.2718,-3.2437,-3.2266,-3.2197,-3.2249,-3.2403,-3.2669,-3.2556,-3.249,-3.249,-3.2214,-3.2019,-3.1876,-3.1876,-3.1876,-3.1894,-3.1967,-3.1985,-3.195,-3.0266,-2.9472,0.0,0.0,-3.745,-3.6846,0.0,0.0,0.0,0.0,0.0,0.0,0.0,0.0,0.0,0.0,-3.6692,-3.6692,-3.6019,0.0,0.0,0.0,0.0,0.0,0.0,0.0,0.0,0.0,0.0,0.0,0.0,0.0,0.0,-3.8031,-3.7031,-3.5892,-3.393,-3.2776,-3.2506,-3.1096,-3.0396,-3.04,-3.0433,-3.0465,-3.0462,-3.0548,-3.0599,-3.0664,-3.0748,-3.0774,-3.0762,-3.0767,-3.0736,-3.0667,-3.0548,-3.0496,-3.0463,-3.0427,-3.0404,-3.0404,-3.0404,-3.0962,-3.1737,-3.2025,-3.3038,-3.4204,-3.4377,-3.4718,-3.4973,-3.4678,-3.4409,-3.4185,-3.3959,-3.3842,-3.3807,-3.3807,-3.3807,-3.3807,-3.3807,-3.3807,-3.3807,-3.3807,-3.3807,-3.3807,-3.3807,-3.3807,-3.3807,-3.3807,-3.3726,-3.3629,-3.3577,-3.3375,-3.3211,-3.3052,-3.2912,-3.2816,-3.2802,-3.2864,-3.2928,-3.2959,-3.293,-3.2818,-3.2638,-3.2455,-3.2336,-3.2301,-3.2197,-3.2266,-3.2503,-3.2518,-3.2602,-3.2699,-3.1602,-3.0605,-3.6304,-3.6014,0.0,-3.543,-3.5423,0.0,-3.5122,0.0,0.0,0.0,0.0,0.0,0.0,0.0,0.0,-3.675,-3.5943,0.0,0.0,0.0,0.0,0.0,0.0,0.0,0.0,0.0,-3.9432,-4.0043,0.0,0.0,0.0,0.0,-3.7603,-3.6731,-3.4526,-3.3218,-3.2891,-3.1531,-3.0727,-3.0433,-3.0505,-3.0535,-3.0542,-3.0595,-3.0662,-3.0731,-3.078,-3.0796,-3.0792,-3.0795,-3.0759,-3.0697,-3.0542,-3.0482,-3.0458,-3.0427,-3.0404,-3.0404,-3.0404,-3.0769,-3.1288,-3.1602,-3.2429,-3.3397,-3.3878,-3.4343,-3.4681,-3.4696,-3.4531,-3.4305,-3.4036,-3.3895,-3.3815,-3.382,-3.3807,-3.3807,-3.3807,-3.3807,-3.3807,-3.3807,-3.3807,-3.3807,-3.3807,-3.3807,-3.3807,-3.3807,-3.3739,-3.3684,-3.3629,-3.352,-3.339,-3.3313,-3.3256,-3.3226,-3.3241,-3.3283,-3.3298,-3.3283,-3.3253,-3.3147,-3.2959,-3.2818,-3.2737,-3.2705,-3.2654,-3.2734,-3.2939,-3.2988,-3.3083,-3.3193,-3.2667,-3.1793]},{"header":{"parameterUnit":"m.s-1","parameterCategory":1,"la1":30.6,"la2":29.2853,"lo1":-89.7004,"lo2":-87.6739,"dy":0.0162,"dx":0.0183,"nx":112,"ny":82,"refTime":"2024-06-27T18:00:00:Z","depth":0,"parameterNumber":3,"parameterNumberName":"V-component_of_WINDS"},"data":[0.0,0.0,0.0,0.0,0.0,0.0,0.0,0.0,0.0,0.0,0.0,0.0,0.0,0.0,0.0,0.0,0.0,0.0,0.0,0.0,0.0,0.0,0.0,0.0,0.0,0.0,0.0,0.0,0.0,0.0,0.0,0.0,0.0,0.0,0.0,0.0,0.0,0.0,0.0,0.0,0.0,0.0,0.0,0.0,0.0,0.0,0.0,0.0,0.0,0.0,0.0,0.0,0.0,0.0,0.0,0.0,0.0,0.0,0.0,0.0,0.0,0.0,0.0,0.0,0.0,0.0,0.0,0.0,0.0,0.0,0.0,0.0,0.0,0.0,0.0,0.0,0.0,0.0,0.0,0.0,0.0,0.0,0.0,0.0,0.0,0.0,0.0,0.0,0.0,0.0,0.0,-2.3042,-2.3091,-2.3091,-2.3091,-2.3091,-2.2783,-2.1934,0.0,0.0,0.0,0.0,0.0,0.0,0.0,0.0,0.0,0.0,0.0,0.0,0.0,0.0,0.0,0.0,0.0,0.0,0.0,0.0,0.0,0.0,0.0,0.0,0.0,0.0,0.0,0.0,0.0,0.0,0.0,0.0,0.0,0.0,0.0,0.0,0.0,0.0,0.0,0.0,0.0,0.0,0.0,0.0,0.0,0.0,0.0,0.0,0.0,0.0,0.0,0.0,0.0,0.0,0.0,0.0,0.0,0.0,0.0,0.0,0.0,0.0,0.0,0.0,0.0,0.0,0.0,0.0,0.0,0.0,0.0,0.0,0.0,0.0,0.0,0.0,0.0,0.0,0.0,0.0,0.0,0.0,0.0,0.0,0.0,0.0,0.0,0.0,0.0,0.0,0.0,0.0,0.0,0.0,0.0,0.0,0.0,0.0,0.0,0.0,0.0,0.0,0.0,0.0,-2.2275,-2.3013,-2.3091,-2.3091,-2.3091,-2.3091,-2.2783,-2.1934,0.0,0.0,0.0,0.0,0.0,0.0,0.0,0.0,0.0,0.0,0.0,0.0,0.0,0.0,0.0,0.0,0.0,0.0,0.0,0.0,0.0,0.0,0.0,0.0,0.0,0.0,0.0,0.0,0.0,0.0,0.0,0.0,0.0,0.0,0.0,0.0,0.0,0.0,0.0,0.0,0.0,0.0,0.0,0.0,0.0,0.0,0.0,0.0,0.0,0.0,0.0,0.0,0.0,0.0,0.0,0.0,0.0,0.0,0.0,0.0,0.0,0.0,0.0,0.0,0.0,0.0,0.0,0.0,0.0,0.0,0.0,0.0,0.0,0.0,0.0,0.0,0.0,0.0,0.0,0.0,0.0,0.0,0.0,0.0,0.0,0.0,0.0,0.0,0.0,0.0,0.0,0.0,0.0,0.0,0.0,0.0,0.0,0.0,0.0,0.0,0.0,0.0,0.0,-2.2227,-2.2461,-2.3033,-2.3091,-2.3091,-2.3091,-2.3091,-2.2783,-2.1934,-2.1094,0.0,0.0,0.0,0.0,0.0,0.0,0.0,0.0,0.0,0.0,0.0,0.0,0.0,0.0,0.0,0.0,0.0,0.0,0.0,0.0,0.0,0.0,0.0,0.0,0.0,0.0,0.0,0.0,0.0,0.0,0.0,0.0,0.0,0.0,0.0,0.0,0.0,0.0,0.0,0.0,0.0,0.0,0.0,0.0,0.0,0.0,0.0,0.0,0.0,0.0,0.0,0.0,0.0,0.0,0.0,0.0,0.0,0.0,0.0,0.0,0.0,0.0,0.0,0.0,0.0,0.0,0.0,0.0,0.0,0.0,0.0,0.0,0.0,0.0,0.0,0.0,0.0,0.0,0.0,0.0,0.0,0.0,0.0,0.0,0.0,0.0,0.0,0.0,0.0,0.0,0.0,0.0,0.0,0.0,0.0,0.0,0.0,0.0,0.0,0.0,0.0,0.0,-2.2539,-2.274,-2.3062,-2.3091,-2.3091,-2.3091,-2.3003,-2.2676,-2.1934,-2.0997,0.0,0.0,0.0,0.0,0.0,0.0,0.0,0.0,0.0,0.0,0.0,0.0,0.0,0.0,0.0,0.0,0.0,0.0,0.0,0.0,0.0,0.0,0.0,0.0,0.0,0.0,0.0,0.0,0.0,0.0,0.0,0.0,0.0,0.0,0.0,0.0,0.0,0.0,0.0,0.0,0.0,0.0,0.0,0.0,0.0,0.0,0.0,0.0,0.0,0.0,0.0,0.0,0.0,0.0,0.0,0.0,0.0,0.0,0.0,0.0,0.0,0.0,0.0,0.0,0.0,0.0,0.0,0.0,0.0,0.0,0.0,0.0,0.0,0.0,0.0,0.0,0.0,0.0,0.0,0.0,0.0,0.0,0.0,0.0,0.0,0.0,0.0,0.0,0.0,0.0,0.0,0.0,0.0,0.0,0.0,0.0,0.0,0.0,0.0,0.0,0.0,0.0,-2.2607,-2.3062,-2.3091,-2.3091,-2.3091,-2.3091,-2.2783,-2.2363,-2.1914,-2.0674,0.0,0.0,0.0,0.0,0.0,0.0,0.0,0.0,0.0,0.0,0.0,0.0,0.0,0.0,0.0,0.0,0.0,0.0,0.0,0.0,0.0,0.0,0.0,0.0,0.0,0.0,0.0,0.0,0.0,0.0,0.0,0.0,0.0,0.0,0.0,0.0,0.0,0.0,0.0,0.0,0.0,0.0,0.0,0.0,0.0,0.0,0.0,0.0,0.0,0.0,0.0,0.0,0.0,0.0,0.0,0.0,0.0,0.0,0.0,0.0,0.0,0.0,0.0,0.0,0.0,0.0,0.0,0.0,0.0,0.0,0.0,0.0,0.0,0.0,0.0,0.0,0.0,0.0,0.0,0.0,0.0,0.0,0.0,0.0,0.0,0.0,0.0,0.0,0.0,0.0,0.0,0.0,0.0,0.0,0.0,0.0,0.0,0.0,0.0,0.0,0.0,0.0,-2.2393,-2.2808,0.0,-2.3091,-2.3091,-2.3091,-2.2711,-2.2217,-2.1523,0.0,0.0,0.0,0.0,0.0,0.0,0.0,0.0,0.0,0.0,0.0,0.0,0.0,0.0,0.0,0.0,0.0,0.0,0.0,0.0,0.0,0.0,0.0,0.0,0.0,0.0,0.0,0.0,0.0,0.0,0.0,0.0,0.0,0.0,0.0,0.0,0.0,0.0,0.0,0.0,0.0,0.0,0.0,0.0,0.0,0.0,0.0,0.0,0.0,0.0,0.0,0.0,0.0,0.0,0.0,0.0,0.0,0.0,0.0,0.0,0.0,0.0,0.0,0.0,0.0,0.0,0.0,0.0,0.0,0.0,0.0,0.0,0.0,0.0,0.0,0.0,0.0,0.0,0.0,0.0,0.0,0.0,0.0,0.0,0.0,0.0,0.0,0.0,0.0,0.0,0.0,0.0,0.0,0.0,0.0,0.0,0.0,0.0,0.0,0.0,0.0,0.0,-2.1836,-2.2373,-2.2822,0.0,-2.3091,-2.3042,-2.2906,-2.2549,-2.1943,-2.1074,0.0,0.0,0.0,0.0,0.0,0.0,0.0,0.0,0.0,0.0,0.0,0.0,0.0,0.0,0.0,0.0,0.0,0.0,0.0,0.0,0.0,0.0,0.0,0.0,0.0,0.0,0.0,0.0,0.0,0.0,0.0,0.0,0.0,0.0,0.0,0.0,0.0,0.0,0.0,0.0,0.0,0.0,0.0,0.0,0.0,0.0,0.0,0.0,0.0,0.0,0.0,0.0,0.0,0.0,0.0,0.0,0.0,0.0,0.0,0.0,0.0,0.0,0.0,0.0,0.0,0.0,0.0,0.0,0.0,0.0,0.0,0.0,0.0,0.0,0.0,0.0,0.0,0.0,0.0,0.0,0.0,0.0,0.0,0.0,0.0,0.0,0.0,0.0,0.0,0.0,0.0,0.0,0.0,0.0,0.0,0.0,0.0,0.0,0.0,0.0,0.0,0.0,-2.1836,-2.2617,-2.3091,-2.3091,-2.3081,-2.2916,-2.2539,-2.2119,-2.1544,0.0,0.0,0.0,0.0,0.0,0.0,0.0,0.0,0.0,0.0,0.0,0.0,0.0,0.0,0.0,0.0,0.0,0.0,0.0,0.0,0.0,0.0,0.0,0.0,0.0,0.0,0.0,0.0,0.0,0.0,0.0,0.0,0.0,0.0,0.0,0.0,0.0,0.0,0.0,0.0,0.0,0.0,0.0,0.0,0.0,0.0,0.0,0.0,0.0,0.0,0.0,0.0,0.0,0.0,0.0,0.0,0.0,0.0,0.0,0.0,0.0,0.0,0.0,0.0,0.0,0.0,0.0,0.0,0.0,0.0,0.0,0.0,0.0,0.0,0.0,0.0,0.0,0.0,0.0,0.0,0.0,0.0,0.0,0.0,0.0,0.0,0.0,0.0,0.0,0.0,0.0,0.0,0.0,0.0,0.0,0.0,0.0,0.0,0.0,0.0,0.0,0.0,0.0,-2.1836,-2.2353,-2.2695,-2.2695,-2.2432,-2.2207,-2.208,-2.2322,-2.2058,-2.106,0.0,0.0,0.0,0.0,0.0,0.0,0.0,0.0,0.0,0.0,0.0,0.0,0.0,0.0,0.0,0.0,0.0,0.0,0.0,0.0,0.0,0.0,0.0,0.0,0.0,0.0,0.0,0.0,0.0,0.0,0.0,0.0,0.0,0.0,0.0,0.0,0.0,0.0,0.0,0.0,0.0,0.0,0.0,0.0,0.0,0.0,0.0,0.0,0.0,0.0,0.0,0.0,0.0,0.0,0.0,0.0,0.0,0.0,0.0,0.0,0.0,0.0,0.0,0.0,0.0,0.0,0.0,0.0,0.0,0.0,0.0,0.0,0.0,0.0,0.0,0.0,0.0,0.0,0.0,0.0,0.0,0.0,0.0,0.0,0.0,0.0,0.0,0.0,0.0,0.0,0.0,0.0,0.0,0.0,0.0,0.0,0.0,0.0,0.0,0.0,0.0,0.0,-2.1309,-2.1894,-2.2266,-2.2266,-2.2031,-2.1816,-2.1641,-2.2288,-2.222,-2.1037,0.0,0.0,0.0,0.0,0.0,0.0,0.0,0.0,0.0,0.0,0.0,0.0,0.0,0.0,0.0,0.0,0.0,0.0,0.0,0.0,0.0,0.0,0.0,0.0,0.0,0.0,0.0,0.0,0.0,0.0,0.0,0.0,0.0,0.0,0.0,0.0,0.0,0.0,0.0,0.0,0.0,0.0,0.0,0.0,0.0,0.0,0.0,0.0,0.0,0.0,0.0,0.0,0.0,0.0,0.0,0.0,0.0,0.0,0.0,0.0,0.0,0.0,0.0,0.0,0.0,0.0,0.0,0.0,0.0,0.0,0.0,0.0,0.0,0.0,0.0,0.0,0.0,0.0,0.0,0.0,0.0,0.0,0.0,0.0,0.0,0.0,0.0,0.0,0.0,0.0,0.0,0.0,0.0,0.0,0.0,0.0,0.0,0.0,0.0,0.0,0.0,0.0,-2.0605,-2.1368,-2.1826,-2.1826,-2.1787,-2.1642,-2.1321,-2.2181,-2.2203,-2.0924,0.0,0.0,0.0,0.0,0.0,0.0,0.0,0.0,0.0,0.0,0.0,0.0,0.0,0.0,0.0,0.0,0.0,0.0,0.0,0.0,0.0,0.0,0.0,0.0,0.0,0.0,0.0,0.0,0.0,0.0,0.0,0.0,0.0,0.0,0.0,0.0,0.0,0.0,0.0,0.0,0.0,0.0,0.0,0.0,0.0,0.0,0.0,0.0,0.0,0.0,0.0,0.0,0.0,0.0,0.0,0.0,0.0,0.0,0.0,0.0,-2.0537,0.0,0.0,0.0,0.0,0.0,0.0,0.0,0.0,0.0,0.0,0.0,0.0,0.0,0.0,0.0,0.0,0.0,0.0,0.0,0.0,0.0,0.0,0.0,0.0,0.0,0.0,0.0,0.0,0.0,0.0,0.0,0.0,0.0,0.0,0.0,0.0,0.0,0.0,0.0,0.0,0.0,-2.0947,-2.122,-2.1327,-2.1327,-2.1055,-2.1143,-2.1786,-2.2741,-2.3176,-2.2764,-2.3736,0.0,0.0,0.0,0.0,0.0,0.0,0.0,0.0,0.0,0.0,0.0,0.0,0.0,0.0,0.0,0.0,0.0,0.0,0.0,0.0,0.0,0.0,0.0,0.0,0.0,0.0,0.0,0.0,0.0,0.0,0.0,0.0,0.0,0.0,0.0,0.0,0.0,0.0,0.0,0.0,0.0,0.0,0.0,0.0,0.0,0.0,0.0,0.0,0.0,0.0,0.0,0.0,0.0,0.0,0.0,0.0,0.0,0.0,0.0,0.0,-2.1006,0.0,0.0,0.0,0.0,0.0,0.0,0.0,0.0,0.0,0.0,0.0,0.0,0.0,0.0,0.0,0.0,0.0,0.0,0.0,0.0,0.0,0.0,0.0,0.0,0.0,0.0,0.0,0.0,0.0,0.0,0.0,0.0,0.0,0.0,0.0,0.0,0.0,0.0,0.0,0.0,-2.0479,-2.1153,-2.1585,-2.1585,-2.1814,-2.2104,-2.2315,-2.3275,-2.3572,-2.2937,-2.3592,0.0,0.0,0.0,0.0,0.0,0.0,0.0,0.0,0.0,0.0,0.0,0.0,0.0,0.0,0.0,0.0,0.0,0.0,0.0,0.0,0.0,0.0,0.0,0.0,0.0,0.0,0.0,0.0,0.0,0.0,0.0,0.0,0.0,0.0,0.0,0.0,0.0,0.0,0.0,0.0,0.0,0.0,0.0,0.0,0.0,0.0,0.0,0.0,0.0,0.0,0.0,0.0,0.0,-2.207,-2.21,-2.21,-2.21,-2.21,-2.209,-2.1678,-2.1689,-2.1826,0.0,0.0,0.0,0.0,0.0,0.0,0.0,0.0,0.0,0.0,0.0,0.0,0.0,0.0,0.0,0.0,0.0,0.0,0.0,0.0,0.0,0.0,0.0,0.0,0.0,-2.4979,-2.5426,0.0,0.0,0.0,0.0,0.0,0.0,0.0,0.0,0.0,0.0,0.0,0.0,-2.0439,-2.1545,-2.2253,-2.2253,-2.2922,-2.3259,-2.2962,-2.3642,-2.3673,-2.2806,-2.3084,-2.3007,0.0,0.0,0.0,0.0,0.0,0.0,0.0,0.0,0.0,0.0,0.0,0.0,0.0,0.0,0.0,0.0,0.0,0.0,0.0,0.0,0.0,0.0,0.0,0.0,0.0,0.0,0.0,0.0,0.0,0.0,0.0,0.0,-1.6252,-1.6163,0.0,0.0,0.0,0.0,0.0,0.0,0.0,0.0,0.0,0.0,0.0,0.0,0.0,-2.0457,-2.154,-2.2133,-2.2432,-2.2432,-2.275,-2.2925,-2.2925,-2.2925,-2.2925,-2.2925,-2.2867,0.0,-2.1875,-2.1758,0.0,0.0,0.0,0.0,0.0,0.0,0.0,0.0,0.0,0.0,0.0,0.0,0.0,0.0,0.0,0.0,0.0,0.0,0.0,0.0,0.0,0.0,-2.6549,-2.6511,-2.6444,-2.6437,0.0,-2.4894,-2.3455,-2.3388,-2.2994,0.0,0.0,0.0,0.0,0.0,0.0,0.0,-2.2845,-2.3187,-2.3294,-2.3294,-2.2989,-2.3149,-2.3943,-2.3656,-2.3523,-2.3797,-2.3854,-2.3597,-2.302,-2.2393,0.0,0.0,0.0,0.0,0.0,0.0,0.0,0.0,0.0,0.0,0.0,0.0,0.0,0.0,0.0,0.0,0.0,0.0,0.0,0.0,0.0,0.0,0.0,0.0,0.0,0.0,0.0,0.0,0.0,-1.5647,-1.6042,-1.5687,-1.5306,-1.4577,0.0,0.0,0.0,0.0,0.0,0.0,0.0,0.0,0.0,-1.9048,-2.0462,-2.1457,-2.2078,-2.2571,-2.2818,-2.2818,-2.3013,-2.3091,-2.3091,-2.3091,-2.3091,-2.3091,-2.3091,-2.2886,-2.2568,-2.2334,-2.2129,-2.1892,0.0,0.0,0.0,0.0,-2.1755,-2.2018,-2.2615,-2.31,0.0,0.0,0.0,0.0,0.0,0.0,0.0,0.0,0.0,0.0,0.0,0.0,0.0,-2.7042,-2.7285,-2.7569,-2.8084,-2.7405,-2.6375,0.0,-2.477,-2.4213,-2.2992,0.0,0.0,0.0,0.0,-2.2545,-2.3385,-2.4,-2.4232,-2.3943,-2.4153,-2.4275,-2.4083,-2.3847,-2.3638,-2.3491,-2.3484,-2.3371,-2.3108,-2.2581,-2.2196,0.0,0.0,0.0,0.0,0.0,0.0,0.0,0.0,0.0,0.0,0.0,0.0,0.0,0.0,0.0,0.0,0.0,0.0,0.0,0.0,0.0,0.0,0.0,0.0,0.0,0.0,0.0,0.0,-1.5738,-1.5937,-1.5823,-1.5655,-1.4942,0.0,0.0,0.0,0.0,0.0,0.0,-1.7249,-1.833,-1.9185,-1.9788,-2.1407,-2.2299,-2.2428,-2.2901,-2.3091,-2.3091,-2.3091,-2.3091,-2.3091,-2.3091,-2.3091,-2.3091,-2.3091,-2.3091,-2.3071,-2.276,-2.2607,-2.248,-2.2168,-2.1982,-2.1894,-2.2012,-2.2207,-2.2599,-2.3554,-2.4229,-2.4887,-2.583,0.0,-2.5361,-2.5483,0.0,0.0,0.0,0.0,-2.4373,-2.5123,-2.5576,-2.6117,-2.7018,-2.7559,-2.8047,-2.8562,-2.8787,-2.8496,0.0,-2.67,-2.617,-2.4889,0.0,0.0,0.0,0.0,-2.3624,-2.4207,-2.4921,-2.5165,-2.4635,-2.5073,-2.5021,-2.4079,-2.3866,-2.359,-2.3133,-2.3108,-2.3108,-2.3108,-2.2706,-2.2431,-2.2309,0.0,0.0,0.0,0.0,0.0,0.0,0.0,0.0,0.0,0.0,0.0,0.0,0.0,0.0,0.0,0.0,0.0,0.0,0.0,0.0,0.0,0.0,0.0,0.0,0.0,0.0,0.0,0.0,0.0,-1.7261,-1.687,0.0,0.0,0.0,0.0,-1.7001,-1.716,-1.7792,-1.9102,-1.9531,-2.0254,-2.1339,-2.2055,-2.258,-2.3062,-2.3081,-2.3091,-2.3091,-2.3091,-2.3091,-2.3091,-2.3091,-2.3091,-2.3091,-2.3091,-2.3091,-2.3091,-2.3071,-2.2828,-2.251,-2.249,-2.2236,-2.1934,-2.2334,-2.2777,-2.3301,-2.446,-2.5389,-2.6206,-2.6815,-2.6959,-2.6864,-2.6661,-2.6505,0.0,0.0,-2.6198,-2.6097,-2.6131,-2.6156,-2.6328,-2.6895,-2.7187,-2.7469,-2.8034,-2.8561,-2.9051,0.0,-2.9149,-2.8422,-2.7471,0.0,-2.5694,-2.567,-2.523,-2.524,-2.6233,-2.6383,-2.6205,-2.5594,-2.5126,-2.4619,-2.4054,-2.3459,-2.3133,-2.3108,-2.3108,-2.3108,-2.3108,-2.3083,-2.2819,-2.2322,-2.1744,0.0,0.0,0.0,0.0,0.0,0.0,0.0,0.0,0.0,0.0,0.0,0.0,0.0,0.0,0.0,0.0,0.0,0.0,0.0,0.0,0.0,0.0,0.0,0.0,0.0,0.0,0.0,0.0,-1.7246,-1.728,0.0,-1.6163,-1.6884,-1.7563,-1.8003,-1.8719,-1.9476,-2.0242,-2.0384,-2.0878,-2.1864,-2.2233,-2.2618,-2.3091,-2.3091,-2.3091,-2.3091,-2.3091,-2.3091,-2.3091,-2.3091,-2.3091,-2.3091,-2.3091,-2.3091,-2.3091,-2.3091,-2.3013,-2.2877,-2.2877,-2.2779,-2.2676,-2.2559,-2.2807,-2.3303,-2.3805,-2.4651,-2.5622,-2.693,-2.7533,-2.7637,-2.7215,-2.7037,-2.6952,-2.66,-2.6465,-2.6396,-2.6396,-2.6396,-2.6446,-2.6634,-2.6741,-2.6939,-2.7457,-2.7733,-2.8034,-2.8599,-2.9126,-2.9138,-2.8052,-2.7557,-2.7064,-2.636,-2.6101,-2.6094,-2.6452,-2.6499,-2.6273,-2.5649,-2.5435,-2.4958,-2.4067,-2.3803,-2.3496,-2.3133,-2.3108,-2.3108,-2.3108,-2.2769,-2.2656,-2.2807,-2.1945,-2.1421,0.0,0.0,0.0,0.0,0.0,0.0,0.0,0.0,0.0,0.0,0.0,0.0,0.0,0.0,0.0,0.0,0.0,0.0,0.0,0.0,0.0,0.0,0.0,0.0,0.0,0.0,-1.7383,-1.7782,-1.7882,-1.7709,-1.7046,-1.7873,-1.8714,-1.9255,-2.0025,-2.0698,-2.13,-2.1328,-2.1632,-2.2309,-2.2485,-2.2706,-2.3091,-2.3091,-2.3091,-2.3091,-2.3091,-2.3023,-2.2886,-2.2886,-2.2808,-2.2715,-2.2715,-2.2715,-2.2715,-2.2715,-2.2715,-2.2701,-2.2984,-2.3013,-2.2847,-2.2617,-2.2633,-2.2967,-2.3621,-2.4568,-2.5735,-2.6974,-2.7742,-2.7996,-2.7444,-2.7281,-2.7203,-2.665,-2.6499,-2.6499,-2.6499,-2.6499,-2.6499,-2.6499,-2.6499,-2.66,-2.6964,-2.719,-2.7394,-2.7758,-2.8586,-2.8988,-2.8235,-2.7946,-2.7582,-2.6889,-2.6612,-2.6499,-2.6499,-2.6499,-2.6273,-2.5649,-2.5598,-2.5159,-2.4092,-2.4004,-2.3753,-2.3145,-2.3108,-2.3108,-2.3108,-2.2581,-2.2543,-2.3095,-2.2234,-2.1769,-2.1769,0.0,0.0,0.0,0.0,0.0,0.0,0.0,0.0,0.0,0.0,0.0,0.0,0.0,0.0,0.0,0.0,0.0,0.0,0.0,0.0,0.0,0.0,0.0,-1.6773,-1.7179,-1.7721,-1.8829,-1.8812,-1.87,-1.87,-1.89,-1.9538,-2.0782,-2.0908,-2.1358,-2.2331,-2.2388,-2.253,-2.2803,-2.2803,-2.2891,-2.3091,-2.3091,-2.3091,-2.3091,-2.3081,-2.2867,-2.251,-2.25,-2.2275,-2.1885,-2.1885,-2.1885,-2.1885,-2.1885,-2.1885,-2.1963,-2.2783,-2.2808,-2.249,-2.248,-2.2323,-2.2401,-2.3963,-2.5381,-2.6602,-2.7026,-2.757,-2.7959,-2.7419,-2.7291,-2.7178,-2.665,-2.6499,-2.6499,-2.6499,-2.6499,-2.6499,-2.6499,-2.6499,-2.6499,-2.6499,-2.6914,-2.7291,-2.7291,-2.7682,-2.8059,-2.8084,-2.7632,-2.7268,-2.7291,-2.6839,0.0,-2.6499,-2.6499,-2.6285,-2.5686,-2.5624,-2.5197,-2.4142,-2.4029,-2.3778,-2.317,-2.3108,-2.3108,-2.3108,-2.2581,-2.2531,-2.307,-2.2556,-2.2309,-2.2309,0.0,0.0,0.0,0.0,0.0,0.0,0.0,0.0,0.0,0.0,0.0,0.0,0.0,0.0,0.0,0.0,0.0,0.0,0.0,0.0,0.0,0.0,-1.5813,-1.6785,-1.7458,-1.7996,-1.851,-1.8523,-1.8603,-1.8882,-1.9425,-2.0005,-2.0646,-2.1086,-2.1483,-2.1742,-2.2017,-2.2264,-2.2485,-2.2706,-2.2891,-2.3091,-2.3091,-2.3091,-2.3091,-2.2789,-2.2627,-2.25,-2.2197,-2.1992,-2.1885,-2.1885,-2.1885,-2.1885,-2.1885,-2.1885,-2.1904,-2.2139,-2.2158,-2.2021,-2.1658,-2.171,-2.2102,-2.3394,-2.4457,-2.5324,-2.6043,-2.6553,-2.6927,-2.6763,-2.6713,-2.6688,-2.6537,-2.6499,-2.6499,-2.6499,-2.6499,-2.6499,-2.6499,-2.6499,-2.6499,-2.6499,-2.6612,-2.6713,-2.6713,-2.6839,-2.7065,-2.7444,-2.7381,-2.719,-2.6788,-2.6587,0.0,-2.6499,-2.6499,-2.6436,-2.6273,-2.626,-2.5971,-2.5222,-2.4808,-2.4324,-2.3803,-2.3333,-2.3108,-2.3108,-2.2581,-2.2355,-2.2506,-2.2385,-2.2309,0.0,0.0,0.0,0.0,0.0,0.0,0.0,0.0,0.0,0.0,0.0,0.0,0.0,0.0,0.0,0.0,0.0,0.0,0.0,0.0,0.0,0.0,-1.4881,-1.5866,-1.6717,-1.7443,-1.7933,-1.8086,-1.8112,-1.8193,-1.8425,-1.8999,-1.9489,-1.9916,-2.0514,-2.094,-2.1117,-2.1655,-2.2098,-2.2317,-2.262,-2.2891,-2.3091,-2.3091,-2.3003,-2.2828,-2.2627,-2.2324,-2.1973,-2.1719,-2.1514,0.0,-2.1378,-2.1378,-2.1378,-2.1378,-2.1378,0.0,0.0,0.0,0.0,0.0,-2.1426,-2.2073,-2.3001,-2.4009,-2.4933,-2.5571,-2.6107,-2.6499,-2.6499,-2.6499,-2.6499,-2.6499,-2.6499,-2.6499,-2.6499,-2.6499,-2.6499,-2.6499,-2.6499,-2.6499,-2.6499,-2.6499,-2.6499,-2.6499,-2.6499,0.0,-2.6914,-2.6964,-2.6864,-2.6549,-2.6499,-2.6499,-2.6499,-2.6499,-2.6499,-2.6499,-2.6499,-2.6172,-2.5335,-2.4996,0.0,0.0,0.0,-2.2995,-2.2769,-2.2681,0.0,0.0,0.0,0.0,0.0,0.0,0.0,0.0,-2.4682,-2.487,0.0,0.0,0.0,0.0,0.0,0.0,0.0,0.0,0.0,0.0,0.0,0.0,0.0,0.0,0.0,0.0,-1.4745,-1.5551,-1.6415,-1.7041,-1.7438,-1.7521,-1.7578,-1.7619,-1.7619,-1.8072,-1.851,-1.8859,-1.9529,-2.0072,-2.0406,0.0,0.0,0.0,0.0,-2.2833,-2.3091,-2.3052,-2.2838,-2.251,-2.2412,-2.1931,-2.119,-2.1142,-2.0947,-2.0605,-2.0605,-2.0605,-2.0605,-2.0605,-2.0605,-2.0683,-2.1435,-2.1504,-2.1113,-2.1006,-2.1464,-2.2214,-2.2879,0.0,0.0,-2.5535,-2.6037,-2.6499,-2.6499,-2.6499,-2.6499,-2.6499,-2.6499,-2.6499,-2.6499,-2.6499,-2.6499,-2.6499,-2.6499,-2.6499,-2.6499,-2.6499,-2.6499,-2.6499,-2.6499,-2.6499,-2.6499,-2.6499,-2.6499,-2.6499,-2.6499,-2.6499,-2.6499,-2.6499,-2.6499,-2.6499,0.0,0.0,-2.4996,-2.4763,-2.4274,-2.3271,-2.3145,-2.2882,-2.2393,-2.2844,-2.2882,-2.241,-2.2857,-2.3358,-2.3904,-2.4424,-2.4996,-2.5485,-2.4669,-2.4782,0.0,0.0,0.0,0.0,0.0,0.0,0.0,0.0,0.0,0.0,0.0,0.0,0.0,0.0,0.0,-1.4038,-1.4476,-1.4934,-1.5503,-1.5589,-1.5858,-1.6569,-1.6812,-1.6976,-1.7212,-1.7749,-1.8115,-1.8183,-1.8959,-1.9386,-1.9309,-2.0271,0.0,-2.1626,-2.2074,-2.2587,-2.3091,-2.276,-2.2598,-2.251,0.0,0.0,-2.1181,-2.0859,-2.0683,-2.0605,-2.0605,-2.0605,-2.0605,-2.0605,-2.0605,-2.0625,-2.0791,-2.0811,-2.0762,-2.1235,-2.1693,-2.2289,-2.3534,-2.4432,-2.5123,-2.5828,-2.6258,-2.6499,-2.6499,-2.6499,0.0,-2.6499,-2.6499,-2.6499,-2.6499,-2.6499,-2.6499,-2.6499,-2.6499,-2.6499,-2.6499,-2.6499,-2.6499,-2.6499,-2.6499,-2.6499,-2.6499,-2.6499,-2.6499,-2.6499,-2.6499,-2.6499,-2.6499,-2.6499,-2.6499,-2.6499,-2.6072,-2.5674,-2.546,-2.4657,-2.4067,-2.3841,-2.3358,-2.3058,-2.2945,-2.3045,-2.3058,-2.2945,-2.3045,-2.3158,-2.3271,-2.3879,-2.4443,-2.4983,-2.5674,-2.6135,0.0,0.0,0.0,0.0,0.0,0.0,0.0,0.0,0.0,0.0,0.0,-1.2472,-1.2233,0.0,-1.3313,-1.36,-1.3978,-1.4318,-1.4569,-1.4553,-1.4764,-1.5522,-1.5923,-1.6193,-1.6355,-1.6871,-1.7212,-1.7212,-1.7917,-1.8323,-1.8208,-1.9232,-2.0036,-2.0545,-2.1189,-2.1778,-2.2268,-2.2211,-2.209,-2.1824,-2.1395,-2.1073,-2.0889,-2.0703,-2.0605,-2.0605,-2.0605,-2.0605,-2.0605,-2.0605,-2.0605,-2.0605,-2.0605,-2.0605,-2.0644,-2.1156,-2.1731,-2.2402,-2.3508,-2.4443,-2.5229,-2.5828,-2.6258,-2.6499,-2.6499,-2.6499,-2.6499,-2.6499,-2.6499,-2.6499,-2.6499,-2.6499,-2.6499,-2.6499,-2.6499,-2.6499,-2.6499,-2.6499,-2.6499,-2.6499,-2.6499,-2.6499,-2.6499,-2.6499,-2.6499,-2.6499,-2.6499,-2.6499,-2.6499,-2.6499,-2.6386,-2.6097,-2.5774,-2.5372,-2.4833,-2.4042,-2.3534,-2.3534,-2.3271,-2.3108,-2.3108,-2.3108,-2.3108,-2.3108,-2.3108,-2.3108,-2.3108,-2.3715,-2.4142,-2.4431,-2.5259,-2.5971,0.0,0.0,0.0,0.0,0.0,0.0,0.0,0.0,-1.2472,-1.2704,-1.2886,-1.2856,-1.2422,-1.2898,-1.3292,-1.312,-1.3446,-1.3709,-1.3726,-1.3723,-1.3874,-1.433,-1.4958,-1.5427,-1.5488,-1.5975,-1.6283,-1.6263,-1.6894,-1.7229,-1.7147,-1.8134,-1.8909,-1.9415,-2.0228,-2.0889,-2.1381,-2.1613,-2.1541,-2.115,-2.1103,-2.0918,-2.0605,-2.0605,-2.0605,-2.0605,-2.0605,-2.0605,-2.0605,-2.0605,-2.0605,-2.0605,-2.0605,-2.0546,-2.0526,-2.1049,-2.1731,-2.2478,-2.3409,-2.4383,-2.5312,-2.5793,-2.6188,-2.6499,-2.6499,-2.6499,-2.6499,-2.6499,-2.6499,-2.6499,-2.6499,-2.6499,-2.6499,-2.6499,-2.6499,-2.6499,-2.6499,-2.6411,-2.6361,-2.6474,-2.6399,-2.6361,-2.6474,-2.6499,-2.6499,-2.6499,-2.6499,-2.6499,-2.6499,-2.6399,-2.6147,-2.5649,-2.541,-2.4883,-2.3916,-2.3371,-2.3108,-2.3108,-2.3108,-2.3108,-2.3108,-2.3108,-2.3108,-2.3108,-2.3108,-2.3108,-2.3108,-2.3602,-2.3891,-2.4004,-2.4456,-2.5247,-1.0916,-1.095,-1.135,-1.1974,-1.2242,-1.2544,0.0,0.0,-1.3384,-1.4171,-1.3973,-1.352,-1.2924,-1.3053,-1.3195,-1.3123,-1.3047,-1.3059,-1.3179,-1.3105,-1.2961,-1.285,-1.3892,-1.4722,-1.5057,-1.5591,-1.5898,-1.5794,-1.6402,-1.6615,-1.6252,-1.7106,-1.7968,-1.8754,-1.9418,-2.0145,-2.0983,-2.0986,-2.0978,-2.092,-2.0742,-2.0654,-2.0605,-2.0605,-2.0605,-2.0605,-2.0605,-2.0605,-2.0605,-2.0605,-2.0605,-2.0605,-2.0605,-2.037,-2.0105,-2.1082,-2.1769,-2.2327,-2.368,-2.4551,-2.5158,-2.591,-2.6339,-2.6499,-2.6499,-2.6499,-2.6499,-2.6499,-2.6499,-2.6499,-2.6499,-2.6499,-2.6499,-2.6499,-2.6499,-2.6499,-2.6499,-2.6084,-2.585,-2.6399,-2.6084,-2.585,-2.6411,-2.6499,-2.6499,-2.6499,-2.6499,-2.6499,-2.6499,-2.6047,-2.5661,-2.5598,-2.4745,-2.3916,-2.3258,-2.3145,-2.3108,-2.3108,-2.3108,-2.3108,-2.3108,-2.3108,-2.3108,-2.3108,-2.3108,-2.3108,-2.3108,-2.317,-2.3471,-2.4004,-2.4067,-2.4669,-1.0835,-1.1675,0.0,0.0,-1.279,-1.3346,-1.3095,-1.306,-1.3138,-1.3377,-1.3321,-1.3071,-1.2598,-1.2708,-1.2795,0.0,-1.2607,-1.2566,-1.2621,-1.2607,-1.2526,-1.2452,-1.3165,-1.3864,-1.4255,-1.4689,-1.5017,-1.513,-1.5533,-1.5707,-1.5548,-1.6252,-1.6843,-1.7351,-1.8091,-1.8781,-1.9398,-1.9762,-2.0078,-2.0316,-2.038,-2.0498,-2.0605,-2.0605,-2.0605,-2.0605,-2.0605,-2.0605,-2.0605,-2.0605,-2.0605,-2.0576,-2.0283,-2.0078,-1.9969,-2.0534,-2.0968,-2.1438,-2.2353,-2.3305,-2.4227,-2.4762,-2.5198,-2.5561,-2.5862,-2.5996,-2.6059,-2.6399,-2.6499,-2.6499,-2.6499,-2.6499,-2.6499,-2.6499,-2.6499,-2.6399,-2.6059,-2.5774,-2.5573,-2.5523,-2.531,-2.5322,-2.5862,-2.5996,-2.6109,-2.6449,-2.6499,-2.6373,-2.6034,-2.5749,-2.536,-2.4732,-2.3966,-2.3358,-2.312,-2.3108,-2.3108,-2.3108,-2.3108,-2.3108,-2.3108,-2.3108,-2.3108,-2.3108,-2.3108,-2.3108,-2.3108,-2.3108,-2.3233,-2.3471,-2.3471,-2.3916,-1.1063,0.0,0.0,-1.2298,-1.2989,-1.3501,-1.259,-1.2564,-1.2668,-1.2465,-1.251,-1.2487,-1.2247,-1.2368,-1.2467,-1.2328,-1.2305,-1.2305,-1.2305,-1.2305,-1.2331,-1.2412,-1.277,-1.3208,-1.371,-1.4072,-1.4405,-1.4587,-1.4873,-1.4957,-1.4915,-1.5506,-1.5914,-1.6098,-1.6927,-1.7529,-1.7934,-1.8656,-1.9222,-1.9666,-2.0029,-2.0294,-2.0527,-2.0566,-2.0605,-2.0605,-2.0605,-2.0605,-2.0605,-2.0605,-2.0537,-2.0352,-2.0039,-1.9766,-1.9561,-1.9698,-2.0091,-2.0644,-2.1304,-2.2298,-2.3337,-2.3737,-2.4243,-2.4831,-2.5206,-2.5452,-2.5686,-2.6135,-2.6373,-2.6499,-2.6499,-2.6499,-2.6499,-2.6499,-2.6373,-2.6135,-2.5686,-2.536,-2.5084,-2.4838,-2.4662,-2.4757,-2.5285,-2.5385,-2.5523,-2.5984,-2.6047,-2.5946,-2.5636,-2.5335,-2.4795,-2.3853,-2.3358,-2.3108,-2.3108,-2.3108,-2.3108,-2.3108,-2.3108,-2.3108,-2.3108,-2.3108,-2.3108,-2.3108,-2.3108,-2.3108,-2.3108,-2.3108,-2.3108,-2.3108,-2.3108,-2.3409,0.0,0.0,-1.1383,-1.228,-1.2554,-1.2512,-1.1945,-1.2092,-1.2255,-1.2051,-1.2017,-1.2047,-1.217,-1.2204,-1.2228,-1.2295,-1.2305,-1.2305,-1.2305,-1.2305,-1.2412,-1.2737,-1.2815,-1.3018,0.0,-1.4035,-1.4323,-1.4413,-1.4608,-1.4608,-1.444,-1.4866,-1.5208,-1.5436,-1.6098,-1.664,-1.7033,-1.7893,-1.8545,-1.9042,-1.9627,-2.0059,-2.0303,-2.0489,-2.0605,-2.0605,-2.0605,-2.0605,-2.0605,-2.0605,-2.0312,-1.9932,-1.9922,-1.9368,-1.8637,-1.8637,-1.9292,-2.0309,-2.1058,-2.1908,-2.2797,-2.3335,-2.4001,-2.4618,-2.4631,-2.5078,-2.5598,-2.5611,-2.6059,-2.6499,-2.6499,-2.6499,-2.6499,-2.6499,-2.6059,-2.5611,-2.5598,-2.4782,-2.4205,-2.4687,-2.4393,-2.4192,-2.4713,-2.4813,-2.4813,-2.4838,-2.4838,-2.5046,-2.5536,-2.4682,-2.3816,-2.3195,-2.3108,-2.3108,-2.3108,-2.3108,-2.3108,-2.3108,-2.3108,-2.3108,-2.3108,-2.3108,-2.3108,-2.3108,-2.3108,-2.3108,-2.3108,-2.3108,-2.3108,-2.3108,-2.3108,-2.3409,0.0,0.0,-1.058,-1.0909,-1.1218,-1.1376,-1.1091,-1.1143,-1.1302,-1.1205,-1.1265,-1.1336,-1.1404,-1.1714,-1.2011,-1.2033,-1.2178,-1.2305,-1.2305,-1.2305,-1.2412,-1.275,-1.2965,0.0,0.0,0.0,0.0,-1.4181,-1.4243,-1.4292,-1.4201,-1.4489,-1.465,-1.4727,-1.5242,-1.5741,-1.6139,-1.6886,-1.761,-1.8336,-1.9271,-1.9833,-2.002,-2.0294,-2.042,-2.042,-2.0527,-2.0605,-2.0605,-2.0605,-2.0312,-1.9883,-1.9609,-1.915,-1.8568,-1.8286,-1.8518,-1.9026,-1.9622,-2.0487,-2.1379,-2.1791,-2.2317,-2.2921,-2.3509,-2.4083,-2.4686,-2.5299,-2.5856,-2.6339,-2.6465,-2.6499,-2.6499,-2.6499,-2.6047,-2.5498,-2.5159,-2.4519,-2.3941,-2.371,-2.3521,-2.3572,-2.418,-2.428,-2.428,-2.428,-2.428,-2.4343,-2.4519,-2.386,-2.3321,-2.312,-2.3108,-2.3108,-2.3108,-2.3108,-2.3108,-2.3108,-2.3108,-2.3108,-2.3108,-2.3108,-2.3108,-2.3108,-2.3108,-2.3108,-2.3108,-2.3108,-2.3108,-2.3108,-2.3108,-2.3208,-0.9405,-0.9715,-0.9981,-1.0085,-1.0318,-1.0523,-1.0449,-1.0506,-1.0584,-1.0692,-1.0804,-1.0901,-1.0975,-1.139,-1.175,-1.1886,-1.2118,-1.2305,-1.2305,-1.2305,-1.2452,-1.2904,-1.3093,-1.3367,0.0,0.0,0.0,-1.4075,-1.4088,-1.4088,-1.4088,-1.4201,-1.4279,-1.4279,-1.4657,-1.4992,-1.536,-1.6031,-1.6878,-1.7885,-1.8825,-1.939,-1.9587,-1.9912,-2.0032,-1.9966,-2.0149,-2.0206,-2.0145,-2.0145,-1.9853,-1.9397,-1.916,-1.8789,-1.8344,-1.8105,-1.8144,-1.8371,-1.8741,-1.9462,-2.028,-2.0549,-2.1092,-2.173,-2.2369,-2.3204,-2.4074,-2.4814,-2.5571,-2.6236,-2.6465,-2.6499,-2.6449,-2.6235,-2.5724,-2.5172,-2.4644,-2.4061,-2.3547,-2.3183,-2.3108,-2.3221,-2.3597,-2.369,-2.369,-2.369,-2.369,-2.369,-2.369,-2.3333,-2.3108,-2.3108,-2.3108,-2.3108,-2.3108,-2.3108,-2.3108,-2.3108,-2.3108,-2.3108,-2.3108,-2.3108,-2.3108,-2.3108,-2.3108,-2.3108,-2.3108,-2.3108,-2.3108,-2.3108,-2.3108,-2.3108,-0.9337,-0.9467,-0.9535,-0.9788,-0.9841,-0.9908,-1.0057,-1.0077,-1.0207,-1.0553,-1.06,-1.0687,-1.0962,0.0,-1.1543,-1.1879,-1.2138,-1.2325,-1.2325,-1.2288,-1.2508,0.0,0.0,0.0,0.0,0.0,0.0,-1.4088,0.0,-1.4088,-1.4088,-1.4088,-1.4088,-1.4088,-1.4279,-1.4482,-1.4692,-1.536,-1.6345,-1.7659,-1.8296,-1.8745,-1.8962,-1.9341,-1.9433,-1.9297,-1.9487,-1.9482,-1.9287,-1.9287,-1.9033,-1.8598,-1.8598,-1.8344,-1.8008,-1.8008,-1.811,-1.8303,-1.8414,-1.8942,-1.9572,-1.9715,-2.0323,-2.106,-2.1293,-2.2453,-2.3791,-2.4173,-2.5197,-2.6236,-2.643,-2.6499,-2.6348,-2.5737,-2.5197,-2.4637,-2.4117,-2.354,-2.3108,-2.3108,-2.3108,-2.3108,-2.3108,-2.3108,-2.3108,-2.3108,-2.3108,-2.3108,-2.3108,-2.3108,-2.3108,-2.3108,-2.3108,-2.3108,-2.3108,-2.3108,-2.3108,-2.3108,-2.3108,-2.3108,-2.3108,-2.3108,-2.3108,-2.3108,-2.3108,-2.3108,-2.3108,-2.3108,-2.3108,-2.3108,-2.3108,-2.3108,-0.8951,-0.8971,-0.8991,-0.9065,-0.9219,-0.9461,-0.9726,-0.996,-1.0261,-1.0775,-1.0747,-1.0747,-1.1223,0.0,0.0,-1.2144,-1.234,0.0,-1.2462,-1.2272,0.0,-1.2731,0.0,-1.3181,-1.3535,-1.3568,0.0,0.0,-1.3997,-1.4088,-1.4088,-1.4088,-1.4088,-1.4088,-1.4166,-1.4286,-1.4482,-1.5276,-1.6064,-1.6755,-1.7204,-1.7651,-1.8055,-1.8333,-1.8622,-1.885,-1.9079,-1.9211,-1.9287,-1.9287,-1.9033,-1.8598,-1.8598,-1.8344,-1.8008,-1.8008,-1.8042,-1.8076,-1.811,-1.8506,-1.9042,-1.9231,-1.9518,-1.9857,-2.0484,-2.1572,-2.2775,-2.3691,-2.4813,-2.5863,-2.6383,-2.6499,-2.6348,-2.5737,-2.5197,-2.4637,-2.4117,-2.354,-2.3108,-2.3108,-2.3108,-2.3108,-2.3108,-2.3108,-2.3108,-2.3108,-2.3108,-2.3108,-2.3108,-2.3108,-2.3108,-2.3108,-2.3108,-2.3108,-2.3108,-2.3108,-2.3108,-2.3108,-2.3108,-2.3108,-2.3108,-2.3108,-2.3108,-2.3108,-2.3108,-2.3108,-2.3108,-2.3108,-2.3108,-2.3108,-2.3108,-2.3108,-0.8804,-0.8804,-0.8804,-0.8804,-0.8904,-0.9138,-0.9586,-0.9813,-1.0094,-1.0713,-1.0445,0.0,-1.0518,-1.1038,0.0,0.0,0.0,0.0,-1.2212,-1.1977,-1.1918,0.0,-1.2304,0.0,-1.2766,-1.2875,-1.3045,0.0,-1.3652,-1.3997,-1.4088,-1.4088,-1.4088,-1.4088,-1.4088,-1.4208,-1.4398,-1.4977,-1.5443,-1.5824,-1.6229,-1.6553,-1.6814,-1.7285,-1.7625,-1.781,0.0,-1.8512,-1.8605,-1.8685,-1.8584,-1.8325,-1.8325,-1.8213,-1.8008,-1.8008,-1.8008,-1.8008,-1.8008,-1.8212,-1.8472,-1.8674,-1.8898,-1.9187,-1.9737,-2.0907,-2.2263,-2.3179,-2.4494,-2.5662,-2.5912,-2.6054,-2.5921,-2.5084,-2.4669,-2.4274,-2.374,-2.3333,-2.3108,-2.3108,-2.3108,-2.3108,-2.3108,-2.3108,-2.3108,-2.3108,-2.3108,-2.3108,-2.3108,-2.3108,-2.3108,-2.3108,-2.3108,-2.3108,-2.3108,-2.3108,-2.3108,-2.3108,-2.3108,-2.3108,-2.3108,-2.3108,-2.3108,-2.3108,-2.3108,-2.3108,-2.3108,-2.3108,-2.3108,-2.3108,-2.3108,-2.3108,-0.8804,-0.8804,-0.8804,-0.8804,-0.8811,-0.8984,-0.9559,-0.9713,-0.9877,-1.0368,0.0,-0.9488,-0.9456,-1.0063,-1.0625,-1.0636,0.0,-1.2046,-1.1842,-1.152,-1.1317,-1.1408,-1.1464,-1.157,-1.1778,-1.2057,-1.2308,-1.248,-1.3123,-1.3636,-1.3986,-1.3988,-1.3988,-1.4028,-1.4028,-1.4126,-1.4356,-1.4566,-1.4761,-1.4942,-1.5343,-1.5502,-1.5467,-1.6197,-1.6526,-1.6602,0.0,0.0,-1.7706,-1.794,-1.8008,-1.8008,-1.8008,-1.8008,-1.8008,-1.8008,-1.8008,-1.8008,-1.8008,-1.8008,-1.8042,-1.8202,-1.8472,-1.8774,-1.911,-2.0359,-2.183,-2.2648,-2.4065,-2.529,-2.5234,-2.5332,-2.5234,-2.423,-2.4004,-2.3841,-2.3233,-2.3108,-2.3108,-2.3108,-2.3108,-2.3108,-2.3108,-2.3108,-2.3108,-2.3108,-2.3108,-2.3108,-2.3108,-2.3108,-2.3108,-2.3108,-2.3108,-2.3108,-2.3108,-2.3108,-2.3108,-2.3108,-2.3108,-2.3108,-2.3108,-2.3108,-2.3108,-2.3108,-2.3108,-2.3108,-2.3108,-2.3108,-2.3108,-2.3108,-2.3108,-2.3108,-0.8804,-0.8804,-0.8804,-0.8804,-0.8883,-0.9098,-0.9577,-0.9784,0.0,0.0,-0.9681,-0.9423,-0.9204,-0.9385,-0.9986,-1.1258,0.0,0.0,0.0,0.0,-1.0252,0.0,0.0,0.0,0.0,0.0,0.0,0.0,0.0,-1.2634,-1.3385,-1.3372,-1.3474,-1.3673,-1.368,-1.3841,-1.4166,-1.4363,-1.4358,-1.4192,-1.4444,-1.4597,-1.4704,-1.5011,-1.5604,-1.6383,-1.6865,0.0,-1.7706,-1.794,-1.8008,-1.8008,-1.8008,-1.8008,-1.8008,-1.8008,-1.8008,-1.8008,-1.8008,-1.8008,-1.8008,-1.8042,-1.8076,-1.8245,-1.8741,-1.9617,-2.0653,-2.1831,-2.2981,-2.4013,-2.4571,-2.4841,-2.4795,-2.4155,-2.4004,-2.3841,-2.3233,-2.3108,-2.3108,-2.3108,-2.3108,-2.3108,-2.3108,-2.3108,-2.3108,-2.3108,-2.3108,-2.3108,-2.3108,-2.3108,-2.3108,-2.3108,-2.3108,-2.3108,-2.3108,-2.3108,-2.3108,-2.3108,-2.3108,-2.3108,-2.3108,-2.3108,-2.3108,-2.3108,-2.3108,-2.3108,-2.3108,-2.3108,-2.3108,-2.3108,-2.3108,-2.3108,-0.8844,-0.8804,-0.8844,-0.8964,-0.9001,-0.905,-0.9197,0.0,0.0,0.0,-0.8557,-0.8249,-0.8166,0.0,0.0,0.0,0.0,0.0,0.0,0.0,0.0,0.0,0.0,0.0,0.0,0.0,0.0,0.0,0.0,-1.1566,-1.2728,-1.2968,-1.3114,-1.3212,-1.3333,-1.3487,-1.3627,-1.3743,-1.3709,-1.3567,-1.3695,-1.3722,-1.3712,-1.4147,-1.4714,-1.5435,-1.6131,0.0,-1.7476,-1.7716,-1.7896,-1.8008,-1.8008,-1.8008,-1.8008,-1.8008,-1.8008,-1.8008,-1.8008,-1.8008,-1.8008,-1.8008,-1.8008,-1.8076,-1.8438,-1.9192,-2.0126,-2.1029,-2.216,-2.3166,-2.3522,-2.3806,-2.3894,-2.3505,-2.3491,-2.3446,-2.3158,-2.3108,-2.3108,-2.3108,-2.3108,-2.3108,-2.3108,-2.3108,-2.3108,-2.3108,-2.3108,-2.3108,-2.3108,-2.3108,-2.3108,-2.3108,-2.3108,-2.3108,-2.3108,-2.3108,-2.3108,-2.3108,-2.3108,-2.3108,-2.3108,-2.3108,-2.3108,-2.3108,-2.3108,-2.3108,-2.3108,-2.3108,-2.3108,-2.3108,-2.3108,-2.3108,-0.8938,-0.8871,-0.8931,-0.9158,-0.9171,-0.9122,-0.9078,-0.8848,0.0,0.0,-0.7611,-0.7096,-0.7016,0.0,-0.7826,0.0,0.0,0.0,0.0,0.0,0.0,0.0,0.0,0.0,0.0,0.0,0.0,0.0,0.0,0.0,-1.1954,-1.2426,-1.2694,-1.2792,-1.2995,-1.314,-1.3213,-1.3213,-1.318,-1.3113,-1.3113,-1.3024,-1.2948,-1.3483,-1.4044,-1.4573,-1.5542,0.0,0.0,-1.7535,-1.7818,-1.8008,-1.8008,-1.8008,-1.8008,-1.8008,-1.8008,-1.8008,-1.8008,-1.8008,-1.8008,-1.8008,-1.8008,-1.8042,-1.8236,-1.8883,-1.9716,-2.0238,-2.1308,-2.2259,-2.2336,-2.2659,-2.2899,-2.2825,-2.2878,-2.2987,-2.3047,-2.3047,-2.3078,-2.3078,-2.3108,-2.3108,-2.3108,-2.3108,-2.3108,-2.3108,-2.3108,-2.3108,-2.3108,-2.3108,-2.3108,-2.3108,-2.3108,-2.3108,-2.3108,-2.3108,-2.3108,-2.3108,-2.3108,-2.3108,-2.3108,-2.3108,-2.3108,-2.3108,-2.3108,-2.3108,-2.3108,-2.3108,-2.3108,-2.3108,-2.3108,-2.3108,-0.9178,-0.9171,-0.9178,-0.9204,-0.9385,-0.9631,-0.9918,0.0,0.0,-0.8283,-0.7611,-0.6885,-0.6256,-0.6318,-0.687,0.0,0.0,0.0,0.0,0.0,0.0,0.0,0.0,0.0,0.0,0.0,0.0,0.0,0.0,0.0,-1.1158,-1.1596,-1.2017,-1.2511,-1.2747,-1.2965,-1.3206,-1.3213,-1.3066,-1.2831,-1.2831,-1.2783,-1.264,-1.3052,-1.3652,-1.4374,-1.5365,0.0,0.0,-1.751,-1.7818,-1.8008,-1.8008,-1.8008,-1.8008,-1.8008,-1.8008,-1.8008,-1.8008,-1.8008,-1.8008,-1.8008,-1.8008,-1.8042,-1.8236,-1.8569,-1.9003,-1.9536,-2.0216,-2.0855,-2.1183,-2.1647,-2.2073,-2.2389,-2.2451,-2.2543,-2.2848,-2.2909,-2.2939,-2.3078,-2.3108,-2.3108,-2.3108,-2.3108,-2.3108,-2.3108,-2.3108,-2.3108,-2.3108,-2.3108,-2.3108,-2.3108,-2.3108,-2.3108,-2.3108,-2.3108,-2.3108,-2.3108,-2.3108,-2.3108,-2.3108,-2.3108,-2.3108,-2.3108,-2.3108,-2.3108,-2.3108,-2.3108,-2.3108,-2.3108,-2.3108,-2.3108,-0.9552,-0.9506,-0.9552,-0.969,-0.9678,-0.9463,-0.8943,0.0,-0.7851,-0.6929,-0.6582,-0.6389,-0.6215,-0.6259,-0.6521,0.0,-0.6962,-0.6982,-0.7709,0.0,0.0,0.0,0.0,0.0,0.0,0.0,0.0,0.0,0.0,0.0,-0.9803,-1.0807,-1.1496,-1.1834,-1.2291,-1.2538,-1.2665,-1.2665,-1.2599,-1.2516,-1.2516,-1.2455,-1.2415,-1.2709,-1.3258,-1.4049,-1.4752,0.0,0.0,-1.7201,-1.7657,-1.8008,-1.8008,-1.8008,-1.8008,-1.8008,-1.8008,-1.8008,-1.8008,-1.8008,-1.8008,-1.8008,-1.8008,-1.8008,-1.811,-1.8313,-1.8573,-1.8841,-1.9297,-1.9781,-2.0193,-2.0869,-2.1471,-2.1745,-2.2037,-2.2371,-2.2708,-2.286,-2.2939,-2.3078,-2.3108,-2.3108,-2.3108,-2.3108,-2.3108,-2.3108,-2.3108,-2.3108,-2.3108,-2.3108,-2.3108,-2.3108,-2.3108,-2.3108,-2.3108,-2.3108,-2.3108,-2.3108,-2.3108,-2.3108,-2.3108,-2.3108,-2.3108,-2.3108,-2.3108,-2.3108,-2.3108,-2.3108,-2.3108,-2.3108,-2.3108,-2.3108,-0.996,-0.9821,-0.9817,-0.9882,-0.9758,-0.9419,0.0,-0.8017,-0.7486,-0.6467,-0.6099,-0.6078,-0.6272,-0.63,-0.6361,0.0,-0.663,-0.6787,-0.7027,0.0,0.0,0.0,0.0,0.0,0.0,0.0,0.0,0.0,0.0,0.0,0.0,-1.0169,-1.1074,-1.1409,-1.2003,-1.2305,-1.2305,-1.2305,-1.2305,-1.2305,-1.2305,-1.2305,-1.2305,-1.2526,-1.2966,-1.3651,0.0,0.0,0.0,-1.6959,-1.7476,-1.794,-1.7974,-1.8008,-1.8008,-1.8008,-1.8008,-1.8008,-1.8008,-1.8008,-1.8008,-1.8008,-1.8008,-1.8008,-1.8008,-1.8144,-1.8303,-1.8405,-1.8707,-1.9098,-1.954,-2.0117,-2.0645,-2.0933,-2.1368,-2.1862,-2.2285,-2.2561,-2.2818,-2.2987,-2.3078,-2.3108,-2.3108,-2.3108,-2.3108,-2.3108,-2.3108,-2.3108,-2.3108,-2.3108,-2.3108,-2.3108,-2.3108,-2.3108,-2.3108,-2.3108,-2.3108,-2.3108,-2.3108,-2.3108,-2.3108,-2.3108,-2.3108,-2.3108,-2.3108,-2.3108,-2.3108,-2.3108,-2.3108,-2.3108,-2.3108,-2.3108,-1.0437,-1.0136,-0.9914,-0.95,-0.9606,-0.9673,0.0,-0.8435,-0.7773,-0.737,-0.6611,-0.6078,-0.6272,-0.63,-0.6399,-0.6651,-0.6698,-0.6854,-0.7351,0.0,0.0,0.0,0.0,0.0,0.0,0.0,0.0,0.0,0.0,0.0,0.0,-0.9722,-1.0775,-1.1372,-1.2003,-1.2305,-1.2305,-1.2305,-1.2305,-1.2305,-1.2305,-1.2305,-1.2305,-1.2526,-1.2826,0.0,0.0,0.0,0.0,-1.6811,-1.7407,-1.7706,-1.794,-1.8008,-1.8008,-1.8008,-1.8008,-1.8008,-1.8008,-1.8008,-1.8008,-1.8008,-1.8008,-1.8008,-1.8008,-1.8144,-1.8303,-1.8303,-1.8539,-1.8875,-1.921,-1.9299,-1.9464,-1.9998,-2.0366,-2.0784,-2.1471,-2.2013,-2.2512,-2.2848,-2.3017,-2.3108,-2.3108,-2.3108,-2.3108,-2.3108,-2.3108,-2.3108,-2.3108,-2.3108,-2.3108,-2.3108,-2.3108,-2.3108,-2.3108,-2.3108,-2.3108,-2.3108,-2.3108,-2.3108,-2.3108,-2.3108,-2.3108,-2.3108,-2.3108,-2.3108,-2.3108,-2.3108,-2.3108,-2.3108,-2.3108,-2.3108,-0.9213,-0.9468,-0.972,-0.881,-0.8629,-0.8499,-0.7734,-0.7451,-0.7174,-0.6556,-0.6297,-0.6242,-0.6289,-0.6378,-0.6545,-0.6807,0.0,0.0,0.0,0.0,0.0,0.0,0.0,0.0,0.0,0.0,0.0,0.0,0.0,0.0,0.0,-0.9798,-1.07,-1.1186,-1.1892,-1.2305,-1.2305,-1.2305,-1.2305,-1.2305,-1.2305,-1.2305,-1.2305,-1.2378,0.0,0.0,0.0,0.0,0.0,-1.6533,-1.7157,-1.7706,-1.794,-1.8008,-1.8008,-1.8008,-1.8008,-1.8008,-1.8008,-1.8008,-1.8008,-1.8008,-1.8008,-1.8008,-1.8008,-1.8042,-1.8076,-1.8076,-1.8269,-1.8472,-1.8596,-1.8798,-1.9054,-1.9474,-1.9901,-2.042,-2.1123,-2.1608,-2.2037,-2.2482,-2.2604,-2.2684,-2.2939,-2.2969,-2.2987,-2.3078,-2.3108,-2.3108,-2.3108,-2.3108,-2.3108,-2.3108,-2.3108,-2.3108,-2.3108,-2.3108,-2.3108,-2.3108,-2.3108,-2.3108,-2.3108,-2.3108,-2.3108,-2.3108,-2.3108,-2.3108,-2.3108,-2.3108,-2.3108,-2.3108,-2.3108,-2.3108,0.0,-1.0026,-1.0143,-0.8896,-0.8632,-0.8333,-0.7126,-0.7037,-0.696,-0.6252,-0.6231,-0.6317,-0.6371,-0.6453,-0.6573,-0.6836,-0.7004,0.0,0.0,0.0,0.0,0.0,0.0,0.0,0.0,0.0,0.0,0.0,0.0,0.0,0.0,-0.9722,-1.0625,-1.1074,-1.1892,-1.2305,-1.2305,-1.2305,-1.2305,-1.2305,-1.2305,-1.2305,-1.2305,-1.2305,0.0,0.0,0.0,0.0,0.0,-1.6245,-1.695,-1.7545,-1.7872,-1.8008,-1.8008,-1.8008,-1.8008,-1.8008,-1.8008,-1.8008,-1.8008,-1.8008,-1.8008,-1.8008,-1.8008,-1.8008,-1.8008,-1.8008,-1.8076,-1.8178,-1.8178,-1.8337,-1.8573,-1.8854,-1.932,-1.9879,-2.0431,-2.0976,-2.1526,-2.1932,-2.2204,-2.242,-2.2769,-2.2878,-2.2939,-2.3078,-2.3108,-2.3108,-2.3108,-2.3108,-2.3108,-2.3108,-2.3108,-2.3108,-2.3108,-2.3108,-2.3108,-2.3108,-2.3108,-2.3108,-2.3108,-2.3108,-2.3108,-2.3108,-2.3108,-2.3108,-2.3108,-2.3108,-2.3108,-2.3108,-2.3108,-2.3108,0.0,-1.1397,-1.0862,-0.9357,-0.9092,-0.8761,-0.713,-0.699,0.0,-0.6419,-0.631,-0.6354,-0.6487,-0.6528,-0.66,-0.6852,0.0,0.0,0.0,0.0,0.0,0.0,0.0,0.0,0.0,0.0,0.0,0.0,0.0,0.0,0.0,-0.9539,-1.0481,-1.1111,-1.1855,-1.2298,-1.2305,-1.2305,-1.2305,-1.2305,-1.2305,-1.2305,-1.2305,-1.2305,0.0,0.0,0.0,0.0,0.0,-1.6,-1.6811,-1.7235,-1.7759,-1.7974,-1.8008,-1.8008,-1.8008,-1.8008,-1.8008,-1.8008,-1.8008,-1.8008,-1.8008,-1.8008,-1.8008,-1.8008,-1.8008,-1.8008,-1.8008,-1.8008,-1.8008,-1.8008,-1.8042,-1.8236,-1.8707,-1.9142,-1.9473,-2.0215,-2.0892,-2.123,-2.1726,-2.2185,-2.2555,-2.2726,-2.2866,-2.3017,-2.3078,-2.3078,-2.3078,-2.3078,-2.3108,-2.3108,-2.3108,-2.3108,-2.3108,-2.3108,-2.3108,-2.3108,-2.3108,-2.3108,-2.3108,-2.3108,-2.3108,-2.3108,-2.3108,-2.3108,-2.3108,-2.3108,-2.3108,-2.3108,-2.3108,-2.3108,-1.1163,0.0,-0.9314,-0.7261,-0.688,-0.6881,0.0,-0.638,-0.6482,-0.6328,0.0,-0.6474,-0.6508,-0.6664,-0.6878,-0.7018,0.0,0.0,0.0,0.0,0.0,0.0,0.0,0.0,0.0,0.0,0.0,0.0,0.0,0.0,0.0,-0.9576,-1.0406,-1.1298,-1.1818,-1.215,-1.2305,-1.2305,-1.2305,-1.2305,-1.2305,-1.2305,-1.2305,-1.2305,0.0,0.0,0.0,0.0,-1.4673,-1.5613,-1.6464,-1.7235,-1.7613,-1.7862,-1.8008,-1.8008,-1.8008,-1.8008,-1.8008,-1.8008,-1.8008,-1.8008,-1.8008,-1.8008,-1.8008,-1.8008,-1.8008,-1.8008,-1.8008,-1.8008,-1.8008,-1.8008,-1.8042,-1.8236,-1.8472,-1.8751,-1.9131,-1.9452,-1.9835,-2.0323,-2.0624,-2.1008,-2.162,-2.1951,-2.223,-2.2531,-2.2775,-2.2939,-2.2939,-2.3047,-2.3108,-2.3108,-2.3108,-2.3108,-2.3108,-2.3108,-2.3108,-2.3108,-2.3108,-2.3108,-2.3108,-2.3108,-2.3108,-2.3108,-2.3108,-2.3108,-2.3108,-2.3108,-2.3108,-2.3108,-2.3108,-2.3108,-0.9814,-0.9743,-0.9566,-0.7433,-0.6987,-0.6915,-0.6367,0.0,0.0,0.0,0.0,-0.6535,-0.6563,-0.677,0.0,0.0,0.0,0.0,0.0,0.0,0.0,0.0,0.0,0.0,0.0,0.0,0.0,0.0,0.0,0.0,0.0,-0.9349,-1.018,-1.1111,-1.1595,-1.2003,-1.2305,-1.2305,-1.2305,-1.2305,-1.2305,-1.2305,-1.2305,-1.2305,-1.2378,0.0,0.0,0.0,-1.4322,-1.5267,-1.6053,-1.6751,-1.727,-1.7545,-1.7657,-1.7794,-1.7862,-1.7896,-1.7974,-1.8008,-1.8008,-1.8008,-1.8008,-1.8008,-1.8008,-1.8008,-1.8008,-1.8008,-1.8008,-1.8008,-1.8008,-1.8008,-1.8042,-1.8144,-1.8279,-1.8482,-1.8707,-1.8898,-1.921,-1.9639,-1.9933,-2.0355,-2.104,-2.1388,-2.1671,-2.2118,-2.242,-2.2604,-2.2665,-2.2878,-2.3017,-2.3017,-2.3047,-2.3108,-2.3108,-2.3108,-2.3108,-2.3108,-2.3108,-2.3108,-2.3108,-2.3108,-2.3108,-2.3108,-2.3108,-2.3108,-2.3108,-2.3108,-2.3108,-2.3108,-2.3108,-2.3108,-0.8765,-0.9606,-1.041,-0.8295,-0.7771,-0.7541,-0.6699,0.0,0.0,0.0,0.0,0.0,0.0,-0.6878,0.0,0.0,0.0,0.0,0.0,0.0,0.0,0.0,0.0,0.0,0.0,0.0,0.0,0.0,0.0,0.0,0.0,-0.9051,-0.9954,-1.0812,-1.1409,-1.1892,-1.2305,-1.2305,-1.2305,-1.2305,-1.2305,-1.2305,-1.2305,-1.2305,-1.2305,0.0,0.0,0.0,-1.3833,-1.4848,-1.5568,-1.6061,-1.6751,-1.7063,-1.721,-1.7545,-1.7672,-1.774,-1.793,-1.8008,-1.8008,-1.8008,-1.8008,-1.8008,-1.8008,-1.8008,-1.8008,-1.8008,-1.8008,-1.8008,-1.8008,-1.8008,-1.8008,-1.8008,-1.8144,-1.8236,-1.8236,-1.8472,-1.8764,-1.9077,-1.9375,-1.9813,-2.0506,-2.0784,-2.106,-2.1565,-2.1851,-2.208,-2.2223,-2.2574,-2.2787,-2.2818,-2.2957,-2.3078,-2.3078,-2.3078,-2.3108,-2.3108,-2.3108,-2.3108,-2.3108,-2.3108,-2.3108,-2.3108,-2.3108,-2.3108,-2.3108,-2.3108,-2.3108,-2.3108,-2.3108,-2.3108,-1.0682,-1.0589,-0.9874,-0.7367,-0.6748,-0.6703,-0.6675,0.0,0.0,0.0,0.0,0.0,0.0,0.0,0.0,0.0,0.0,0.0,0.0,0.0,0.0,0.0,0.0,0.0,0.0,0.0,0.0,0.0,0.0,0.0,0.0,-0.9003,-0.9868,-1.1037,-1.1484,-1.1892,-1.2305,-1.2305,-1.2305,-1.2305,-1.2305,-1.2305,-1.2305,-1.2305,-1.2305,0.0,0.0,-1.301,-1.3601,-1.4101,-1.4812,-1.5638,-1.6017,-1.6508,-1.7003,-1.7392,-1.7588,-1.774,-1.793,-1.8008,-1.8008,-1.8008,-1.8008,-1.8008,-1.8008,-1.8008,-1.8008,-1.8008,-1.8008,-1.8008,-1.8008,-1.8008,-1.8008,-1.8008,-1.8008,-1.8042,-1.8042,-1.8076,-1.8178,-1.8395,-1.8607,-1.8841,-1.9297,-1.9715,-2.0096,-2.0323,-2.0901,-2.1325,-2.1514,-2.1975,-2.234,-2.2451,-2.2757,-2.2939,-2.2939,-2.3017,-2.3108,-2.3108,-2.3108,-2.3108,-2.3108,-2.3108,-2.3108,-2.3108,-2.3108,-2.3108,-2.3108,-2.3108,-2.3108,-2.3108,-2.3108,-2.3108,-0.9341,-0.8889,-0.8122,-0.6914,-0.7736,-0.8818,-0.8726,0.0,0.0,0.0,0.0,0.0,0.0,0.0,0.0,0.0,0.0,0.0,0.0,0.0,0.0,0.0,0.0,0.0,0.0,0.0,0.0,0.0,0.0,0.0,0.0,0.0,-1.0099,-1.1074,-1.1595,-1.2003,-1.2305,-1.2305,-1.2305,-1.2305,-1.2305,-1.2305,-1.2305,-1.2305,-1.2305,-1.2305,0.0,-1.2826,-1.32,-1.3593,-1.4173,-1.4776,-1.5223,-1.5692,-1.6202,-1.6795,-1.7132,-1.7279,-1.7382,-1.7426,-1.7426,-1.7426,-1.7426,-1.7426,-1.752,-1.7554,-1.7623,-1.7784,-1.794,-1.8008,-1.8008,-1.8008,-1.8008,-1.8008,-1.8008,-1.8008,-1.8008,-1.8008,-1.8076,-1.8269,-1.8347,-1.8506,-1.8875,-1.9131,-1.9353,-1.9639,-2.0085,-2.0484,-2.0677,-2.123,-2.1651,-2.1839,-2.2149,-2.2396,-2.2525,-2.2574,-2.2757,-2.3078,-2.3108,-2.3108,-2.3108,-2.3108,-2.3108,-2.3108,-2.3108,-2.3108,-2.3108,-2.3108,-2.3108,-2.3108,-2.3108,-2.3108,-0.8109,-0.7696,-0.7191,-0.7477,-0.8703,-0.9805,-0.971,-0.9521,0.0,0.0,0.0,0.0,0.0,0.0,0.0,0.0,0.0,0.0,0.0,0.0,0.0,0.0,0.0,0.0,0.0,0.0,0.0,0.0,0.0,0.0,0.0,0.0,-1.0331,-1.1149,-1.1706,-1.2114,-1.2305,-1.2305,-1.2305,-1.2305,-1.2305,-1.2305,-1.2305,-1.2305,-1.2305,-1.2305,-1.2452,-1.2636,-1.2863,-1.3156,-1.3557,-1.3985,-1.4474,-1.4982,-1.5568,-1.6228,-1.6612,-1.676,-1.676,-1.676,-1.676,-1.676,-1.676,-1.6795,-1.695,-1.7019,-1.7123,-1.7432,-1.7657,-1.7837,-1.7974,-1.8008,-1.8008,-1.8008,-1.8008,-1.8008,-1.8008,-1.8008,-1.8042,-1.8212,-1.8245,-1.8303,-1.8573,-1.864,-1.8764,-1.9044,-1.9342,-1.9649,-1.9846,-2.042,-2.0869,-2.1071,-2.1471,-2.1796,-2.2049,-2.2049,-2.2254,-2.272,-2.2854,-2.2927,-2.2927,-2.3017,-2.3047,-2.3047,-2.3078,-2.3108,-2.3108,-2.3108,-2.3108,-2.3108,-2.3108,-2.3108,-0.9042,-0.8948,-0.8696,-0.9715,-0.8472,0.0,-0.751,-0.7263,0.0,-0.7413,0.0,0.0,0.0,0.0,0.0,0.0,0.0,0.0,0.0,0.0,0.0,0.0,0.0,0.0,0.0,0.0,0.0,0.0,0.0,0.0,0.0,0.0,0.0,-1.1335,-1.1781,-1.2114,-1.2305,-1.2305,-1.2305,-1.2305,-1.2305,-1.2305,-1.2305,-1.2305,-1.2305,-1.2305,-1.2335,-1.2452,-1.2636,-1.2636,-1.301,-1.3564,-1.3804,-1.4553,-1.5532,-1.5991,-1.6219,-1.6341,-1.6341,-1.6341,-1.6341,-1.6341,-1.6341,-1.6341,-1.6376,-1.649,-1.6682,-1.6899,-1.7107,-1.7373,-1.7872,-1.8008,-1.8008,-1.8008,-1.8008,-1.8008,-1.8008,-1.8008,-1.8008,-1.8008,-1.8008,-1.8042,-1.8042,-1.8202,-1.8337,-1.8371,-1.8674,-1.8942,-1.9142,-1.9584,-1.9966,-2.0161,-2.0773,-2.1282,-2.1628,-2.1659,-2.1647,-2.171,-2.218,-2.2451,-2.2451,-2.2757,-2.2909,-2.2909,-2.3047,-2.3108,-2.3108,-2.3108,-2.3108,-2.3108,-2.3108,-2.3108,-0.7173,-0.7873,-0.8405,-0.8086,-0.7964,0.0,0.0,-0.9206,-0.8987,-0.8424,-0.828,0.0,0.0,0.0,0.0,0.0,0.0,0.0,0.0,0.0,0.0,0.0,0.0,0.0,0.0,0.0,0.0,0.0,0.0,0.0,0.0,0.0,0.0,-1.1744,-1.204,-1.2231,-1.2305,-1.2305,-1.2305,-1.2305,-1.2305,-1.2305,-1.2305,-1.2305,-1.2305,-1.2305,-1.2305,-1.2342,-1.2415,-1.2415,-1.2636,-1.2973,-1.3448,-1.3949,-1.4482,-1.4732,-1.4875,-1.4939,-1.4939,-1.4939,-1.4939,-1.4939,-1.4939,-1.4966,-1.5171,-1.5313,-1.5463,-1.6044,-1.6324,-1.6673,-1.7579,-1.7818,-1.7852,-1.7974,-1.8008,-1.8008,-1.8008,-1.8008,-1.8008,-1.8008,-1.8008,-1.8008,-1.8008,-1.8076,-1.811,-1.811,-1.8337,-1.8506,-1.8607,-1.8931,-1.9264,-1.9462,-1.9879,-2.0204,-2.0366,-2.0366,-2.0366,-2.0366,-2.1313,-2.1951,-2.2075,-2.2199,-2.2365,-2.2574,-2.2635,-2.2775,-2.3,-2.3,-2.3017,-2.3108,-2.3108,-2.3108,-0.6757,-0.7636,-0.8367,-0.759,0.0,0.0,-0.9105,-0.9383,-0.926,-0.8557,-0.836,0.0,0.0,0.0,0.0,0.0,0.0,0.0,0.0,0.0,0.0,0.0,0.0,0.0,0.0,0.0,0.0,0.0,0.0,0.0,0.0,0.0,0.0,0.0,-1.2187,-1.2305,-1.2305,-1.2305,-1.2305,-1.2305,-1.2305,-1.2305,-1.2305,-1.2305,-1.2305,-1.2305,-1.2305,-1.2305,-1.2305,-1.2305,-1.2415,-1.2636,-1.3193,-1.3484,-1.3622,-1.3848,-1.392,-1.392,-1.392,-1.392,-1.392,-1.392,-1.392,-1.3949,-1.4186,-1.4294,-1.4466,-1.5152,-1.5471,-1.5895,-1.6906,-1.7398,-1.7681,-1.7862,-1.794,-1.8008,-1.8008,-1.8008,-1.8008,-1.8008,-1.8008,-1.8008,-1.8008,-1.8008,-1.8008,-1.8008,-1.811,-1.8202,-1.8202,-1.8472,-1.8741,-1.8975,-1.9208,-1.9374,-1.944,-1.944,-1.944,-1.944,-2.0291,-2.0985,-2.1313,-2.1534,-2.1796,-2.2099,-2.2235,-2.2482,-2.286,-2.2878,-2.2969,-2.3108,-2.3108,-2.3108,-0.8343,-0.8638,-0.889,0.0,0.0,0.0,-0.6932,-0.6886,-0.7014,-0.7309,0.0,-0.7095,0.0,0.0,0.0,0.0,0.0,0.0,0.0,0.0,0.0,0.0,0.0,0.0,0.0,0.0,0.0,0.0,0.0,0.0,0.0,0.0,0.0,0.0,-1.2187,-1.2305,-1.2305,-1.2305,-1.2305,-1.2305,-1.2305,-1.2305,-1.2305,-1.2305,-1.2305,-1.2305,-1.2305,-1.2305,-1.2305,-1.2305,-1.2415,-1.2636,-1.3046,-1.3193,-1.3229,-1.3419,-1.3492,-1.3492,-1.3492,-1.3492,-1.3492,-1.3492,-1.3492,-1.3492,-1.3492,-1.363,-1.3869,-1.4194,-1.4589,-1.5046,-1.5798,-1.6716,-1.7529,-1.7672,-1.7862,-1.8008,-1.8008,-1.8008,-1.8008,-1.8008,-1.8008,-1.8008,-1.8008,-1.8008,-1.8008,-1.8008,-1.8008,-1.8008,-1.8008,-1.8168,-1.8405,-1.8741,-1.8808,-1.8875,-1.9075,-1.9108,-1.9108,-1.9108,-1.9108,-1.9386,-2.0063,-2.0741,-2.1198,-2.1388,-2.1925,-2.2352,-2.2678,-2.283,-2.2969,-2.3078,-2.3078,-2.3078,-0.6928,-0.8093,0.0,0.0,0.0,0.0,0.0,-0.7297,0.0,0.0,0.0,0.0,0.0,0.0,0.0,0.0,0.0,0.0,0.0,0.0,0.0,0.0,0.0,0.0,0.0,0.0,0.0,0.0,0.0,0.0,0.0,0.0,0.0,0.0,-1.2268,-1.2305,-1.2305,-1.2305,-1.2305,-1.2305,-1.2305,-1.2305,-1.2305,-1.2305,-1.2305,-1.2305,-1.2305,-1.2305,-1.2305,-1.2305,-1.2342,-1.2415,-1.2526,-1.2562,-1.2562,-1.2636,-1.2673,-1.2673,-1.2673,-1.2673,-1.2673,-1.2673,-1.2673,-1.2673,-1.2826,-1.2893,-1.3039,-1.3404,-1.384,-1.4266,-1.484,-1.5665,-1.6508,-1.7348,-1.7691,-1.7828,-1.7974,-1.8008,-1.8008,-1.8008,-1.8008,-1.8008,-1.8008,-1.8008,-1.8008,-1.8008,-1.8008,-1.8008,-1.8008,-1.8042,-1.8144,-1.8245,-1.8245,-1.8245,-1.8313,-1.8337,-1.8337,-1.8337,-1.8472,-1.8831,-1.9507,-1.9846,-2.0237,-2.0688,-2.1083,-2.1569,-2.2149,-2.2328,-2.2482,-2.2592,-2.2592,-2.2574,-0.864,-0.9715,0.0,0.0,0.0,0.0,0.0,0.0,0.0,0.0,0.0,0.0,0.0,0.0,0.0,0.0,0.0,0.0,0.0,0.0,0.0,0.0,0.0,0.0,0.0,0.0,0.0,0.0,0.0,0.0,0.0,0.0,0.0,0.0,-1.2305,-1.2305,-1.2305,-1.2305,-1.2305,-1.2305,-1.2305,-1.2305,-1.2305,-1.2305,-1.2305,-1.2305,-1.2305,-1.2305,-1.2305,-1.2305,-1.2305,-1.2305,-1.2305,-1.2305,-1.2305,-1.2305,-1.2305,-1.2305,-1.2305,-1.2305,-1.2305,-1.2305,-1.2305,-1.2335,-1.2452,-1.2489,-1.2535,-1.2753,-1.3092,-1.3549,-1.3961,-1.4628,-1.5551,-1.683,-1.7348,-1.7579,-1.7828,-1.7896,-1.7896,-1.7974,-1.8008,-1.8008,-1.8008,-1.8008,-1.8008,-1.8008,-1.8008,-1.8008,-1.8008,-1.8008,-1.8008,-1.8008,-1.8008,-1.8008,-1.8008,-1.8008,-1.8008,-1.8008,-1.811,-1.8361,-1.8754,-1.9164,-1.9594,-1.9966,-2.0442,-2.0967,-2.1514,-2.1757,-2.1944,-2.2087,-2.2087,-2.2087,-1.1906,0.0,0.0,0.0,0.0,0.0,0.0,0.0,0.0,0.0,0.0,0.0,0.0,0.0,0.0,0.0,0.0,0.0,0.0,0.0,0.0,0.0,0.0,0.0,0.0,0.0,0.0,0.0,0.0,0.0,0.0,0.0,0.0,0.0,-1.2305,-1.2305,-1.2305,-1.2305,-1.2305,0.0,-1.2305,-1.2305,-1.2305,-1.2305,-1.2305,-1.2305,-1.2305,-1.2305,-1.2305,-1.2305,-1.2305,-1.2305,-1.2305,-1.2305,-1.2305,-1.2305,-1.2305,-1.2305,-1.2305,-1.2305,-1.2305,-1.2305,-1.2305,-1.2305,-1.2305,-1.2285,-1.2248,-1.2194,-1.2476,-1.2861,-1.3158,-1.3704,-1.4542,-1.6035,-1.6742,-1.7201,-1.7535,-1.7672,-1.775,-1.793,-1.7974,-1.8008,-1.8008,-1.8008,-1.8008,-1.8008,-1.8008,-1.8008,-1.8008,-1.8008,-1.8008,-1.8008,-1.8008,-1.8008,-1.8008,-1.8008,-1.8008,-1.8008,-1.8008,-1.8008,-1.8008,-1.8674,-1.9098,-1.9243,-1.9966,-2.0496,-2.0871,-2.1178,-2.142,-2.1522,-2.1522,-2.1628,0.0,-1.0435,0.0,0.0,0.0,0.0,0.0,0.0,0.0,0.0,0.0,0.0,0.0,0.0,0.0,0.0,0.0,0.0,0.0,0.0,0.0,0.0,0.0,0.0,0.0,0.0,0.0,0.0,0.0,0.0,0.0,0.0,0.0,-1.2268,-1.2305,-1.2305,-1.2305,-1.2305,-1.2305,0.0,-1.2305,-1.2305,-1.2305,-1.2305,-1.2305,-1.2305,-1.2305,-1.2305,-1.2305,-1.2305,-1.2305,-1.2305,-1.2305,-1.2305,-1.2305,-1.2305,-1.2305,-1.2305,-1.2305,-1.2305,-1.2305,-1.2305,-1.2305,-1.2305,-1.2305,-1.2144,-1.1986,-1.1962,-1.1961,-1.2075,-1.2565,-1.2968,-1.353,-1.4554,-1.5542,-1.6394,-1.6968,-1.7323,-1.7598,-1.775,-1.7896,-1.8008,-1.8008,-1.8008,-1.8008,-1.8008,-1.8008,-1.8008,-1.8008,-1.8008,-1.8008,-1.8008,-1.8008,-1.8008,-1.8008,-1.8008,-1.8008,-1.8008,-1.8008,-1.8008,-1.8008,-1.8303,-1.8596,-1.8898,-1.9473,-1.9998,-2.0496,-2.0839,-2.1019,-2.1051,-2.1051,-2.1083,0.0,0.0,0.0,0.0,0.0,0.0,0.0,0.0,0.0,0.0,0.0,0.0,0.0,0.0,0.0,0.0,0.0,0.0,0.0,0.0,0.0,0.0,0.0,0.0,0.0,0.0,0.0,0.0,0.0,0.0,0.0,-1.0961,-1.1473,-1.2091,-1.2231,-1.2305,-1.2305,-1.2305,-1.2305,-1.2305,-1.2305,-1.2305,-1.2305,-1.2305,-1.2305,-1.2305,-1.2305,-1.2305,-1.2305,-1.2305,-1.2224,-1.2157,-1.2157,-1.204,-1.1855,-1.1855,-1.1855,-1.1855,-1.1855,-1.2003,-1.2157,-1.2157,-1.2231,-1.2278,-1.2138,-1.2027,-1.1846,-1.1564,-1.1505,-1.1635,-1.2006,-1.2354,-1.282,-1.3585,-1.4653,-1.5657,-1.6333,-1.6795,-1.7141,-1.7407,-1.7681,-1.7862,-1.7862,-1.794,-1.8008,-1.8008,-1.8008,-1.8008,-1.8008,-1.8008,-1.8008,-1.8008,-1.8008,-1.8008,-1.8008,-1.8008,-1.8008,-1.8008,-1.8008,-1.8008,-1.8008,-1.811,-1.8303,-1.865,-1.9108,-1.9539,-1.9878,-2.0161,-2.0324,-2.0421,-2.0421,-2.055,0.0,0.0,0.0,0.0,0.0,0.0,0.0,0.0,0.0,0.0,0.0,0.0,0.0,0.0,0.0,0.0,0.0,0.0,0.0,0.0,0.0,0.0,0.0,0.0,0.0,0.0,0.0,0.0,0.0,0.0,-1.0345,-1.0779,-1.1259,-1.179,-1.2024,-1.2151,-1.2151,-1.2151,-1.2151,-1.2151,-1.2115,-1.2115,-1.2115,-1.2042,-1.2101,-1.2268,-1.2268,-1.2224,-1.215,-1.215,-1.204,-1.1855,-1.1818,-1.1595,-1.1298,-1.126,-1.1223,-1.126,-1.1298,-1.1558,-1.1855,-1.1929,-1.2077,-1.2208,-1.1957,-1.1866,-1.1718,-1.1142,-1.1169,-1.1397,-1.1587,-1.1894,-1.2301,-1.2939,-1.3833,-1.476,-1.5542,-1.6079,-1.6533,-1.6925,-1.7373,-1.7681,-1.7706,-1.7862,-1.8008,-1.8008,-1.8008,-1.8008,-1.8008,-1.8008,-1.8008,-1.8008,-1.8008,-1.8008,-1.8008,-1.8008,-1.8008,-1.8008,-1.8008,-1.8008,-1.8008,-1.8008,-1.8144,-1.8448,-1.8841,-1.9142,-1.9318,-1.9517,-1.9671,-1.9835,-1.9868,-2.014,0.0,0.0,0.0,0.0,0.0,0.0,0.0,0.0,0.0,0.0,0.0,0.0,0.0,0.0,0.0,0.0,0.0,0.0,0.0,0.0,0.0,0.0,0.0,0.0,0.0,0.0,0.0,0.0,0.0,0.0,-1.0714,-1.0946,-1.1207,-1.1449,-1.1489,-1.1509,-1.1509,-1.1509,-1.1509,-1.1509,-1.1411,-1.1342,-1.1342,-1.1035,-1.1333,-1.204,-1.204,-1.1855,-1.1521,-1.1521,-1.1409,-1.1186,-1.1037,-1.0925,-1.085,-1.0663,-1.0625,-1.0663,-1.0812,-1.1037,-1.1298,-1.1632,-1.1892,-1.2024,-1.1921,-1.169,-1.1416,-1.1089,-1.1022,-1.1109,-1.1363,-1.1678,-1.2087,-1.2567,-1.2929,-1.3441,-1.4338,-1.5133,-1.5744,-1.6079,-1.689,-1.7564,-1.7672,-1.7862,-1.8008,-1.8008,-1.8008,-1.8008,-1.8008,-1.8008,-1.8008,-1.8008,-1.8008,-1.8008,-1.8008,-1.8008,-1.8008,-1.8008,-1.8008,-1.8008,-1.8008,-1.8008,-1.811,-1.8303,-1.8674,-1.8975,-1.9318,-1.9517,-1.9605,-1.9638,-1.9835,-1.9987,-0.9161,0.0,0.0,0.0,0.0,0.0,0.0,0.0,0.0,0.0,0.0,0.0,0.0,0.0,0.0,0.0,0.0,0.0,0.0,0.0,0.0,0.0,0.0,0.0,0.0,0.0,0.0,0.0,0.0,-1.0425,-1.0501,-1.0762,-1.0981,-1.1182,-1.1302,-1.1389,-1.1389,-1.1389,-1.1361,-1.1292,-1.1121,-1.0914,-1.0736,-1.0534,-1.0734,-1.1249,-1.1064,-1.0972,-1.0894,-1.0778,-1.0603,-1.0406,-1.0331,-1.0024,-0.9609,-0.9533,-0.9496,-0.9533,-0.9717,-1.0137,-1.0663,-1.1074,-1.1484,-1.1771,-1.1545,-1.1426,-1.1329,-1.1076,-1.0995,-1.1096,-1.1557,-1.1806,-1.198,-1.2341,-1.2599,-1.2856,-1.3251,-1.4122,-1.5062,-1.5833,-1.6542,-1.7107,-1.752,-1.7725,-1.7862,-1.7974,-1.8008,-1.8008,-1.8008,-1.8008,-1.8008,-1.8008,-1.8008,-1.8008,-1.8008,-1.8008,-1.8008,-1.8008,-1.8008,-1.8008,-1.8008,-1.8008,-1.8076,-1.8303,-1.8438,-1.864,-1.8852,-1.8942,-1.9042,-1.9142,-1.9241,-1.9429,0.0,0.0,0.0,0.0,0.0,0.0,0.0,0.0,0.0,0.0,0.0,0.0,0.0,0.0,0.0,0.0,0.0,0.0,0.0,0.0,0.0,0.0,0.0,0.0,0.0,0.0,0.0,0.0,0.0,-1.0664,-1.0502,-1.0607,-1.0751,-1.0882,-1.1096,-1.1209,-1.1209,-1.1142,-1.1041,-1.0873,-1.0636,-1.0325,-0.998,-0.9701,-0.9673,-0.9895,-0.9956,-0.9944,-0.9907,-0.9752,-0.953,-0.9325,-0.9256,-0.8913,-0.8401,-0.8359,-0.8353,-0.8437,-0.8699,-0.9231,-0.9916,-1.0406,-1.0914,-1.1327,-1.1089,-1.1137,-1.1202,-1.1049,-1.1049,-1.1223,-1.1772,-1.196,-1.2037,-1.2251,-1.2415,-1.2562,-1.2709,-1.3506,-1.4446,-1.5444,-1.6079,-1.6647,-1.7254,-1.7545,-1.7784,-1.7974,-1.8008,-1.8008,-1.8008,-1.8008,-1.8008,-1.8008,-1.8008,-1.8008,-1.8008,-1.8008,-1.8008,-1.8008,-1.8008,-1.8008,-1.8008,-1.8008,-1.8076,-1.8202,-1.8202,-1.8303,-1.8516,-1.8516,-1.8583,-1.8707,-1.8662,-1.88,0.0,0.0,0.0,0.0,0.0,0.0,0.0,0.0,0.0,0.0,0.0,0.0,0.0,0.0,0.0,0.0,0.0,0.0,0.0,0.0,0.0,0.0,0.0,0.0,0.0,0.0,0.0,0.0,0.0,-1.1052,-1.0989,-1.0722,-1.0613,-1.0613,-1.0626,-1.0633,-1.0633,-1.0442,-1.0251,-1.0059,-0.9604,-0.9218,-0.8868,-0.8138,-0.7779,-0.7743,-0.884,-0.8971,-0.8316,-0.8316,-0.8068,-0.7717,-0.7508,-0.7517,-0.7644,-0.7451,-0.7447,-0.7633,-0.8025,-0.8441,-0.8894,-0.969,-1.0174,-1.0509,-1.0754,-1.0791,-1.0777,-1.0962,-1.1189,-1.1476,-1.1826,-1.2078,-1.2285,-1.2298,-1.2305,-1.2489,-1.3046,-1.3513,-1.3977,-1.4569,-1.5417,-1.6219,-1.683,-1.7373,-1.7784,-1.7974,-1.8008,-1.8008,-1.8008,-1.8008,-1.8008,-1.8008,-1.8008,-1.8008,-1.8008,-1.8008,-1.8008,-1.8008,-1.8008,-1.8008,-1.8008,-1.8008,-1.8008,-1.8008,-1.8008,-1.8178,-1.8516,-1.8516,-1.8516,-1.8506,-1.8324,-1.825,0.0,0.0,0.0,0.0,0.0,0.0,0.0,0.0,0.0,0.0,0.0,0.0,0.0,0.0,0.0,0.0,0.0,0.0,0.0,0.0,0.0,0.0,0.0,0.0,0.0,0.0,0.0,0.0,0.0,0.0,-1.1009,-1.0754,-1.0593,-1.0593,-1.0593,-1.053,-1.0396,-1.0206,-0.9919,-0.953,-0.9043,-0.8495,-0.7949,-0.7428,-0.7003,-0.6679,-0.7111,-0.7351,-0.7407,-0.7294,-0.7154,-0.7011,-0.694,-0.6809,-0.6615,-0.6542,-0.6543,-0.6629,-0.6923,-0.7358,-0.7902,-0.8597,-0.9226,-0.9751,-1.0009,-1.0302,-1.0638,-1.102,-1.1247,-1.1536,-1.2024,-1.2225,-1.2305,-1.2305,-1.2305,-1.2378,-1.2562,-1.2929,-1.3397,-1.3977,-1.4625,-1.5346,-1.6088,-1.6542,-1.6959,-1.7417,-1.7486,-1.7545,-1.7784,-1.7818,-1.7862,-1.7974,-1.8008,-1.8008,-1.8008,-1.8008,-1.8008,-1.8008,-1.8008,-1.8008,-1.8008,-1.8008,-1.8008,-1.8008,-1.8008,-1.8076,-1.8178,-1.8178,-1.8178,-1.8168,-1.7843,-1.7678,-0.7514,0.0,0.0,0.0,0.0,0.0,0.0,0.0,0.0,0.0,0.0,0.0,0.0,0.0,0.0,0.0,0.0,0.0,0.0,0.0,0.0,0.0,0.0,0.0,0.0,0.0,0.0,0.0,0.0,0.0,-1.1149,-1.0801,-1.0593,-1.0593,-1.053,-1.0403,-1.0206,-0.9919,-0.953,-0.9011,-0.8425,-0.7842,-0.7228,-0.6778,-0.635,-0.6013,-0.5951,-0.6148,-0.6523,-0.6384,-0.6314,-0.6278,-0.6278,-0.6141,-0.5948,-0.5948,-0.5944,-0.6022,-0.6237,-0.6591,-0.7091,-0.7695,-0.8318,-0.8893,-0.9372,-0.9895,-1.0457,-1.1043,-1.1365,-1.1683,-1.2171,-1.2305,-1.2305,-1.2305,-1.2305,-1.2305,-1.2305,-1.2562,-1.2966,-1.347,-1.4057,-1.4669,-1.5444,-1.5947,-1.6403,-1.6994,-1.7166,-1.7304,-1.7672,-1.7706,-1.7784,-1.7974,-1.8008,-1.8008,-1.8008,-1.8008,-1.8008,-1.8008,-1.8008,-1.8008,-1.8008,-1.8008,-1.8008,-1.8008,-1.8008,-1.8008,-1.8008,-1.8008,-1.8008,-1.7998,-1.7432,-1.7002,0.0,0.0,0.0,0.0,0.0,0.0,0.0,0.0,0.0,0.0,0.0,0.0,0.0,0.0,0.0,0.0,0.0,0.0,0.0,0.0,0.0,0.0,0.0,0.0,0.0,0.0,0.0,0.0,0.0,-1.1402,-1.1389,-1.0875,-1.0593,-1.0593,-1.0403,-1.0206,-0.9983,-0.953,-0.9011,-0.8458,-0.7782,-0.7199,-0.6675,-0.6119,-0.5785,-0.5583,-0.5458,-0.5488,-0.5583,-0.5583,-0.5521,-0.5395,-0.5395,-0.5487,-0.5583,-0.5583,-0.5671,-0.5825,-0.6011,-0.6222,-0.6469,-0.707,-0.7481,-0.7947,-0.8822,-0.9488,-1.0156,-1.0987,-1.1545,-1.1973,-1.2225,-1.2305,-1.2305,-1.2305,-1.2305,-1.2305,-1.2305,-1.2452,-1.2709,-1.3119,-1.3659,-1.431,-1.5026,-1.5586,-1.6149,-1.676,-1.7028,-1.7304,-1.7638,-1.7672,-1.7784,-1.7974,-1.8008,-1.8008,-1.8008,-1.8008,-1.8008,-1.8008,-1.8008,-1.8008,-1.8008,-1.8008,-1.8008,-1.8008,-1.8008,-1.8008,-1.8008,-1.8008,-1.8008,-1.7969,-1.7077,-1.621,-0.6385,0.0,0.0,0.0,0.0,0.0,0.0,0.0,0.0,0.0,0.0,0.0,0.0,0.0,0.0,0.0,0.0,0.0,0.0,0.0,0.0,0.0,0.0,0.0,0.0,0.0,0.0,0.0,-1.1921,-1.165,-1.1402,-1.0875,-1.0593,-1.0593,-1.0403,-1.0079,-0.9652,-0.9177,-0.8533,-0.7782,-0.7195,-0.6642,-0.6119,-0.5818,-0.5587,-0.5458,-0.5425,-0.5428,-0.5458,-0.5458,-0.5425,-0.5395,-0.5395,-0.5423,-0.5457,-0.5457,-0.5484,-0.5518,-0.5586,-0.5684,-0.5884,-0.6191,-0.6785,-0.75,-0.818,-0.9145,-1.0134,-1.0856,-1.1449,-1.1973,-1.2225,-1.2305,-1.2305,-1.2305,-1.2305,-1.2305,-1.2305,-1.2342,-1.2452,-1.2709,-1.301,-1.3441,-1.4086,-1.4517,-1.5018,-1.578,-1.6167,-1.6612,-1.727,-1.7486,-1.7666,-1.7974,-1.8008,-1.8008,-1.8008,-1.8008,-1.8008,-1.8008,-1.8008,-1.8008,-1.8008,-1.8008,-1.8008,-1.8008,-1.8008,-1.8008,-1.8008,-1.8008,-1.7852,-1.7539,-1.666,-1.5947,-0.6487,-0.6522,-0.66,0.0,0.0,0.0,0.0,0.0,0.0,0.0,0.0,0.0,0.0,0.0,0.0,0.0,0.0,0.0,0.0,0.0,0.0,0.0,0.0,0.0,0.0,0.0,0.0,-1.2311,-1.1959,-1.1515,-1.0931,-1.049,-1.0244,-1.0136,-0.9881,-0.953,-0.9102,-0.8528,-0.7884,-0.7167,-0.6609,-0.6148,-0.5752,-0.5587,-0.5488,-0.5395,-0.5395,-0.5395,-0.5395,-0.5395,-0.5395,-0.5395,-0.5395,-0.5395,-0.5395,-0.5395,-0.5395,-0.5395,-0.5395,-0.5458,-0.5564,-0.5799,-0.6324,-0.7001,-0.7803,-0.8884,-0.9989,-1.0784,-1.1526,-1.2091,-1.2258,-1.2305,-1.2305,-1.2305,-1.2305,-1.2305,-1.2305,-1.2305,-1.2378,-1.2562,-1.2673,-1.2973,-1.3586,-1.4021,-1.4561,-1.539,-1.5956,-1.6542,-1.7245,-1.7495,-1.7691,-1.7974,-1.8008,-1.8008,-1.8008,-1.8008,-1.8008,-1.8008,-1.8008,-1.8008,-1.8008,-1.8008,-1.8008,-1.8008,-1.8008,-1.8008,-1.8008,-1.8008,-1.7695,-1.709,-1.6418,-1.586,-0.6668,-0.6614,-0.6549,-0.6651,-0.6688,0.0,-0.6967,-0.6923,0.0,0.0,0.0,0.0,0.0,0.0,0.0,0.0,0.0,0.0,0.0,0.0,0.0,0.0,0.0,0.0,0.0,-1.2273,-1.248,-1.2371,-1.187,-1.1176,-1.0275,-0.9925,-0.9663,-0.9454,-0.9107,-0.8786,-0.8458,-0.7777,-0.7162,-0.6642,-0.6119,-0.5752,-0.5583,-0.5458,-0.5395,-0.5395,-0.5395,-0.5395,-0.5395,-0.5395,-0.5395,-0.5395,-0.5395,-0.5395,-0.5395,-0.5395,-0.5395,-0.5395,-0.5395,-0.5395,-0.5452,-0.5703,-0.6076,-0.6641,-0.7659,-0.8759,-0.9849,-1.0833,-1.1698,-1.2305,-1.2305,-1.2305,-1.2305,-1.2305,-1.2305,-1.2305,-1.2305,-1.2305,-1.2342,-1.2526,-1.2562,-1.2746,-1.3346,-1.3884,-1.4489,-1.5284,-1.6017,-1.6682,-1.7289,-1.752,-1.7681,-1.7906,-1.794,-1.7974,-1.7974,-1.7974,-1.8008,-1.8008,-1.8008,-1.8008,-1.8008,-1.8008,-1.8008,-1.8008,-1.8008,-1.8008,-1.8008,-1.792,-1.7447,-1.6687,-1.6221,-1.5811,-0.6725,-0.677,-0.6787,-0.6569,0.0,0.0,-0.6617,-0.658,0.0,0.0,0.0,0.0,0.0,0.0,0.0,0.0,0.0,0.0,0.0,0.0,0.0,0.0,0.0,0.0,0.0,-1.2699,-1.2719,-1.2703,-1.1872,-1.1083,-1.0416,-0.9888,-0.9479,-0.9119,-0.8786,-0.8431,-0.8112,-0.7386,-0.6765,-0.6276,-0.5848,-0.5587,-0.5425,-0.5425,-0.5395,-0.5395,-0.5395,-0.5395,-0.5395,-0.5395,-0.5395,-0.5395,-0.5395,-0.5395,-0.5395,-0.5395,-0.5395,-0.5395,-0.5395,-0.5395,-0.5419,-0.5573,-0.6084,-0.6781,-0.7475,-0.8699,-1.0108,-1.1439,-1.2037,-1.2305,-1.2305,-1.2305,-1.2305,-1.2305,-1.2305,-1.2305,-1.2305,-1.2305,-1.2305,-1.2342,-1.2378,-1.2489,-1.2936,-1.3375,-1.392,-1.4677,-1.5319,-1.5921,-1.6447,-1.683,-1.7141,-1.7339,-1.7613,-1.775,-1.775,-1.7896,-1.8008,-1.8008,-1.8008,-1.8008,-1.8008,-1.8008,-1.8008,-1.8008,-1.8008,-1.8008,-1.8008,-1.7291,-1.6863,-1.6687,-1.5918,-1.5498,-0.6879,-0.6879,-0.6849,-0.6736,0.0,0.0,0.0,0.0,-0.6555,0.0,0.0,0.0,0.0,0.0,0.0,0.0,0.0,0.0,0.0,0.0,0.0,0.0,0.0,0.0,0.0,-1.316,-1.2949,-1.2382,-1.144,-1.0543,-0.9757,-0.9044,-0.849,-0.8111,-0.7771,-0.7489,-0.7204,-0.6675,-0.6243,-0.5914,-0.562,-0.5458,-0.5395,-0.5395,-0.5395,-0.5395,-0.5292,-0.5259,-0.5256,-0.513,-0.516,-0.5259,-0.5359,-0.5395,-0.5395,-0.5395,-0.5395,-0.5395,-0.5395,-0.5395,-0.5433,-0.5623,-0.6029,-0.6533,-0.7306,-0.8732,-1.0293,-1.1409,-1.1929,-1.215,-1.2268,-1.2305,-1.2305,-1.2305,-1.2305,-1.2305,-1.2305,-1.2305,-1.2305,-1.2305,-1.2305,-1.2415,-1.282,-1.3236,-1.3746,-1.4497,-1.5106,-1.5682,-1.6132,-1.6508,-1.683,-1.7038,-1.7382,-1.7613,-1.7672,-1.7896,-1.8008,-1.8008,-1.8008,-1.8008,-1.8008,-1.8008,-1.8008,-1.8008,-1.8008,-1.8008,-1.8008,-1.7373,-1.6943,-1.6687,-1.6055,-1.5615,0.0,0.0,0.0,0.0,0.0,-0.6722,0.0,0.0,0.0,-0.6597,0.0,0.0,0.0,0.0,0.0,0.0,0.0,0.0,0.0,0.0,0.0,0.0,0.0,0.0,0.0,-1.3551,-1.3091,-1.1774,-1.0997,-1.0061,-0.8864,-0.8129,-0.7509,-0.7091,-0.6806,-0.6548,-0.635,-0.602,-0.5752,-0.5583,-0.5458,-0.5395,-0.5395,-0.5395,-0.5395,-0.5326,-0.5123,-0.5024,-0.4987,-0.4827,-0.4861,-0.5057,-0.5259,-0.5362,-0.5395,-0.5395,-0.5395,-0.5395,-0.5395,-0.5395,-0.5443,-0.5705,-0.6024,-0.6493,-0.7399,-0.8813,-1.0331,-1.1111,-1.1669,-1.204,-1.2268,-1.2305,-1.2305,-1.2305,-1.2305,-1.2305,-1.2305,-1.2305,-1.2305,-1.2305,-1.2305,-1.2415,-1.2783,-1.3119,-1.3601,-1.4281,-1.4856,-1.5355,-1.5744,-1.6158,-1.6473,-1.6735,-1.7151,-1.7495,-1.7647,-1.7828,-1.794,-1.794,-1.7872,-1.7872,-1.7906,-1.794,-1.794,-1.794,-1.7974,-1.8008,-1.8008,-1.7666,-1.7275,-1.6814,-1.6339,-1.5909,0.0,0.0,0.0,0.0,-0.6814,0.0,0.0,0.0,-0.648,-0.6371,0.0,0.0,0.0,0.0,0.0,0.0,0.0,0.0,0.0,0.0,0.0,0.0,0.0,0.0,0.0,0.0,-1.2879,-1.1061,-1.0942,-1.0116,-0.8206,-0.7925,-0.7436,-0.668,-0.6523,-0.6372,-0.6214,-0.5815,-0.5617,-0.5583,-0.5458,-0.5395,-0.5395,-0.5395,-0.5292,-0.512,-0.4927,-0.4761,-0.4658,-0.4628,-0.4694,-0.4861,-0.5057,-0.5256,-0.5395,-0.5395,-0.5395,-0.5395,-0.5395,-0.5395,-0.5443,-0.5705,-0.6389,-0.7244,-0.8046,-0.9046,-1.0105,-1.0925,-1.1558,-1.204,-1.2268,-1.2305,-1.2305,-1.2305,-1.2305,-1.2305,-1.2305,-1.2305,-1.2305,-1.2305,-1.2305,-1.2378,-1.2599,-1.2826,-1.3119,-1.3564,-1.3992,-1.4382,-1.4748,-1.5284,-1.578,-1.6167,-1.683,-1.7314,-1.7495,-1.7647,-1.774,-1.774,-1.7442,-1.7382,-1.7539,-1.7691,-1.774,-1.774,-1.7896,-1.8008,-1.8008,-1.7959,-1.7725,-1.7285,-1.6486,-1.6065,0.0,0.0,0.0,0.0,0.0,0.0,-0.6467,0.0,-0.6371,0.0,0.0,0.0,0.0,0.0,0.0,0.0,0.0,0.0,0.0,0.0,0.0,0.0,0.0,0.0,0.0,0.0,0.0,0.0,0.0,-0.9021,-0.7721,-0.731,-0.6843,-0.6277,-0.606,-0.5899,-0.5864,-0.5603,-0.5491,-0.5491,-0.5428,-0.5395,-0.5395,-0.5292,-0.5123,-0.4894,-0.4495,-0.4261,-0.4125,-0.3995,-0.4095,-0.4361,-0.4691,-0.5057,-0.5395,-0.5395,-0.5395,-0.5395,-0.5395,-0.5395,-0.5443,-0.5705,-0.6266,-0.6988,-0.7825,-0.8589,-0.9458,-1.0588,-1.1298,-1.1744,-1.2194,-1.2305,-1.2305,-1.2305,-1.2305,-1.2305,-1.2305,-1.2305,-1.2305,-1.2305,-1.2305,-1.2342,-1.2415,-1.2599,-1.2856,-1.3273,-1.3557,-1.3884,-1.4274,-1.4784,-1.5328,-1.5718,-1.6307,-1.676,-1.6968,-1.7132,-1.7201,-1.7054,-1.6915,-1.6925,-1.7151,-1.7426,-1.7588,-1.7588,-1.7759,-1.7725,-1.7554,-1.7554,-1.74,-1.7109,-1.6664,-1.6309,-0.6974,0.0,0.0,0.0,0.0,0.0,0.0,0.0,0.0,0.0,0.0,0.0,0.0,0.0,0.0,0.0,0.0,0.0,0.0,0.0,0.0,0.0,0.0,0.0,0.0,0.0,0.0,0.0,0.0,0.0,-0.7273,-0.6867,-0.6458,-0.5996,-0.5783,-0.563,-0.5589,-0.5474,-0.5395,-0.5395,-0.5359,-0.5326,-0.5326,-0.5057,-0.4824,-0.4561,-0.4028,-0.3658,-0.3489,-0.3393,-0.356,-0.3925,-0.4392,-0.4894,-0.5326,-0.5395,-0.5395,-0.5395,-0.5395,-0.5423,-0.5498,-0.5718,-0.6124,-0.6656,-0.7425,-0.8131,-0.8965,-1.0212,-1.0962,-1.1521,-1.2077,-1.2261,-1.2305,-1.2305,-1.2305,-1.2305,-1.2305,-1.2305,-1.2305,-1.2305,-1.2305,-1.2305,-1.2305,-1.2415,-1.2636,-1.29,-1.3156,-1.3455,-1.3804,-1.4389,-1.49,-1.5284,-1.5842,-1.6228,-1.6438,-1.6542,-1.6473,-1.614,-1.6254,-1.6368,-1.6517,-1.6943,-1.7185,-1.7254,-1.7339,-1.726,-1.7028,-1.6985,-1.689,-1.6733,-1.6534,-1.6261,0.0,0.0,0.0,-0.6559,0.0,0.0,0.0,0.0,-0.6337,0.0,0.0,0.0,0.0,0.0,0.0,-0.6511,0.0,0.0,0.0,0.0,0.0,0.0,0.0,0.0,0.0,0.0,0.0,0.0,0.0,0.0,-0.6826,-0.6755,-0.6531,-0.6,-0.5878,-0.5728,-0.5593,-0.5474,-0.5395,-0.5395,-0.519,-0.512,-0.5087,-0.4758,-0.4392,-0.3995,-0.346,-0.3025,-0.2753,-0.2922,-0.3222,-0.3587,-0.4325,-0.4824,-0.5123,-0.5326,-0.5395,-0.5395,-0.5395,-0.5491,-0.5606,-0.5752,-0.6014,-0.6432,-0.7053,-0.7906,-0.8856,-0.969,-1.0625,-1.1484,-1.1892,-1.215,-1.2305,-1.2305,-1.2305,-1.2305,-1.2305,-1.2305,-1.2305,-1.2305,-1.2305,-1.2305,-1.2305,-1.2305,-1.2305,-1.2342,-1.2673,-1.2973,-1.32,-1.392,-1.4569,-1.4867,-1.5471,-1.5912,-1.6096,-1.5947,-1.5586,-1.4974,-1.5311,-1.5541,-1.5541,-1.6061,-1.6447,-1.6638,-1.6638,-1.6638,-1.6603,-1.642,-1.6341,-1.6324,-1.5924,-1.5712,0.0,0.0,-0.6603,-0.6538,0.0,0.0,0.0,0.0,0.0,0.0,0.0,0.0,0.0,0.0,-0.6511,-0.6511,-0.6392,0.0,0.0,0.0,0.0,0.0,0.0,0.0,0.0,0.0,0.0,0.0,0.0,0.0,0.0,-0.6791,-0.6613,-0.6329,-0.5983,-0.5779,-0.5732,-0.5518,-0.5326,-0.519,-0.499,-0.4791,-0.4553,-0.409,-0.3689,-0.3291,-0.2622,-0.2287,-0.2185,-0.2388,-0.2757,-0.3257,-0.409,-0.4592,-0.4927,-0.5263,-0.5395,-0.5395,-0.5395,-0.5494,-0.5596,-0.5647,-0.5863,-0.6224,-0.6877,-0.7538,-0.8356,-0.9576,-1.0438,-1.1149,-1.1818,-1.215,-1.2305,-1.2305,-1.2305,-1.2305,-1.2305,-1.2305,-1.2305,-1.2305,-1.2305,-1.2305,-1.2305,-1.2305,-1.2305,-1.2305,-1.2526,-1.2783,-1.2973,-1.3484,-1.3884,-1.4158,-1.4482,-1.4697,-1.4776,-1.4589,-1.4446,-1.4374,-1.4489,-1.474,-1.5089,-1.5524,-1.5815,-1.5885,-1.6009,-1.5824,-1.5286,-1.5207,-1.5073,-1.4816,-1.4443,-1.4639,-0.6238,-0.631,0.0,-0.6247,-0.6286,0.0,-0.6193,0.0,0.0,0.0,0.0,0.0,0.0,0.0,0.0,-0.6521,-0.6702,0.0,0.0,0.0,0.0,0.0,0.0,0.0,0.0,0.0,-1.0014,-0.8969,0.0,0.0,0.0,0.0,-0.663,-0.6518,-0.6088,-0.5857,-0.58,-0.5524,-0.5245,-0.499,-0.4661,-0.4325,-0.3987,-0.3384,-0.2919,-0.2587,-0.1916,-0.1648,-0.1715,-0.1985,-0.2488,-0.3159,-0.3987,-0.4556,-0.496,-0.5263,-0.5395,-0.5395,-0.5395,-0.546,-0.5552,-0.5572,-0.5718,-0.5964,-0.6585,-0.7143,-0.7887,-0.9135,-1.0024,-1.0775,-1.1595,-1.2003,-1.2224,-1.2268,-1.2305,-1.2305,-1.2305,-1.2305,-1.2305,-1.2305,-1.2305,-1.2305,-1.2305,-1.2305,-1.2305,-1.2305,-1.2489,-1.2636,-1.2783,-1.3119,-1.3448,-1.3586,-1.3775,-1.3848,-1.3811,-1.3659,-1.3622,-1.3659,-1.3731,-1.3985,-1.4374,-1.474,-1.4919,-1.4991,-1.5054,-1.4832,-1.4322,-1.4258,-1.4086,-1.3876,-1.3615,-1.3824]}]]